[[{"header":{"parameterUnit":"m.s-1","parameterCategory":1,"la1":31.0,"la2":29.5877,"lo1":-88.7671,"lo2":-86.6584,"dy":0.0162,"dx":0.0185,"nx":115,"ny":88,"refTime":"2023-03-12T06:00:00:Z","depth":0,"parameterNumber":2,"parameterNumberName":"U-component_of_WINDS"},"data":[0.0,0.0,0.0,0.0,0.0,0.0,0.0,0.0,0.0,0.0,0.0,0.0,0.0,0.0,0.0,0.0,0.0,0.0,0.0,0.0,0.0,0.0,0.0,0.0,0.0,0.0,0.0,0.0,0.0,0.0,0.0,0.0,0.0,0.0,0.0,0.0,0.0,0.0,0.0,0.0,0.0,0.0,0.0,0.0,0.0,0.0,0.0,0.0,0.0,0.0,0.0,0.0,0.0,0.0,0.0,0.0,0.0,0.0,0.0,0.0,0.0,0.0,0.0,0.0,0.0,0.0,0.0,0.0,0.0,0.0,0.0,0.0,0.0,0.0,0.0,0.0,0.0,0.0,0.0,0.0,0.0,0.0,0.0,0.0,0.0,0.0,0.0,0.0,0.0,0.0,0.0,0.0,0.0,0.0,0.0,0.0,0.0,0.0,0.0,0.0,0.0,0.0,0.0,0.0,0.0,0.0,0.0,0.0,0.0,0.0,0.0,0.0,0.0,0.0,0.0,0.0,0.0,0.0,0.0,0.0,0.0,0.0,0.0,0.0,0.0,0.0,0.0,0.0,0.0,0.0,0.0,0.0,0.0,0.0,0.0,0.0,0.0,0.0,0.0,0.0,0.0,0.0,0.0,0.0,0.0,0.0,0.0,0.0,0.0,0.0,0.0,0.0,0.0,0.0,0.0,0.0,0.0,0.0,0.0,0.0,0.0,0.0,0.0,0.0,0.0,0.0,0.0,0.0,0.0,0.0,0.0,0.0,0.0,0.0,0.0,0.0,0.0,0.0,0.0,0.0,0.0,0.0,0.0,0.0,0.0,0.0,0.0,0.0,0.0,0.0,0.0,0.0,0.0,0.0,0.0,0.0,0.0,0.0,0.0,0.0,0.0,0.0,0.0,0.0,0.0,0.0,0.0,0.0,0.0,0.0,0.0,0.0,0.0,0.0,0.0,0.0,0.0,0.0,0.0,0.0,0.0,0.0,0.0,0.0,0.0,0.0,0.0,0.0,0.0,0.0,0.0,0.0,0.0,0.0,0.0,0.0,0.0,0.0,0.0,0.0,0.0,0.0,0.0,0.0,0.0,0.0,0.0,0.0,0.0,0.0,0.0,0.0,0.0,0.0,0.0,0.0,0.0,0.0,0.0,0.0,0.0,0.0,0.0,0.0,0.0,0.0,0.0,0.0,0.0,0.0,0.0,0.0,0.0,0.0,0.0,0.0,0.0,0.0,0.0,0.0,0.0,0.0,0.0,0.0,0.0,0.0,0.0,0.0,0.0,0.0,0.0,0.0,0.0,0.0,0.0,0.0,0.0,0.0,0.0,0.0,0.0,0.0,0.0,0.0,0.0,0.0,0.0,0.0,0.0,0.0,0.0,0.0,0.0,0.0,0.0,0.0,0.0,0.0,0.0,0.0,0.0,0.0,0.0,0.0,0.0,0.0,0.0,0.0,0.0,0.0,0.0,0.0,0.0,0.0,0.0,0.0,0.0,0.0,0.0,0.0,0.0,0.0,0.0,0.0,0.0,0.0,0.0,0.0,0.0,0.0,0.0,0.0,0.0,0.0,0.0,0.0,0.0,0.0,0.0,0.0,0.0,0.0,0.0,0.0,0.0,0.0,0.0,0.0,0.0,0.0,0.0,0.0,0.0,0.0,0.0,0.0,0.0,0.0,0.0,0.0,0.0,0.0,0.0,0.0,0.0,0.0,0.0,0.0,0.0,0.0,0.0,0.0,0.0,0.0,0.0,0.0,0.0,0.0,0.0,0.0,0.0,0.0,0.0,0.0,0.0,0.0,0.0,0.0,0.0,0.0,0.0,0.0,0.0,0.0,0.0,0.0,0.0,0.0,0.0,0.0,0.0,0.0,0.0,0.0,0.0,0.0,0.0,0.0,0.0,0.0,0.0,0.0,0.0,0.0,0.0,0.0,0.0,0.0,0.0,0.0,0.0,0.0,0.0,0.0,0.0,0.0,0.0,0.0,0.0,0.0,0.0,0.0,0.0,0.0,0.0,0.0,0.0,0.0,0.0,0.0,0.0,0.0,0.0,0.0,0.0,0.0,0.0,0.0,0.0,0.0,0.0,0.0,0.0,0.0,0.0,0.0,0.0,0.0,0.0,0.0,0.0,0.0,0.0,0.0,0.0,0.0,0.0,0.0,0.0,0.0,0.0,0.0,0.0,0.0,0.0,0.0,0.0,0.0,0.0,0.0,0.0,0.0,0.0,0.0,0.0,0.0,0.0,0.0,0.0,0.0,0.0,0.0,0.0,0.0,0.0,0.0,0.0,0.0,0.0,0.0,0.0,0.0,0.0,0.0,0.0,0.0,0.0,0.0,0.0,0.0,0.0,0.0,0.0,0.0,0.0,0.0,0.0,0.0,0.0,0.0,0.0,0.0,0.0,0.0,0.0,0.0,0.0,0.0,0.0,0.0,0.0,0.0,0.0,0.0,0.0,0.0,0.0,0.0,0.0,0.0,0.0,0.0,0.0,0.0,0.0,0.0,0.0,0.0,0.0,0.0,0.0,0.0,0.0,0.0,0.0,0.0,0.0,0.0,0.0,0.0,0.0,0.0,0.0,0.0,0.0,0.0,0.0,0.0,0.0,0.0,0.0,0.0,0.0,0.0,0.0,0.0,0.0,0.0,0.0,0.0,0.0,0.0,0.0,0.0,0.0,0.0,0.0,0.0,0.0,0.0,0.0,0.0,0.0,0.0,0.0,0.0,0.0,0.0,0.0,0.0,0.0,0.0,0.0,0.0,0.0,0.0,0.0,0.0,0.0,0.0,0.0,0.0,0.0,0.0,0.0,0.0,0.0,0.0,0.0,0.0,0.0,0.0,0.0,0.0,0.0,0.0,0.0,0.0,0.0,0.0,0.0,0.0,0.0,0.0,0.0,0.0,0.0,0.0,0.0,0.0,0.0,0.0,0.0,0.0,0.0,0.0,0.0,0.0,0.0,0.0,0.0,0.0,0.0,0.0,0.0,0.0,0.0,0.0,0.0,0.0,0.0,0.0,0.0,0.0,0.0,0.0,0.0,0.0,0.0,0.0,0.0,0.0,0.0,0.0,0.0,0.0,0.0,0.0,0.0,0.0,0.0,0.0,0.0,0.0,0.0,0.0,0.0,0.0,0.0,0.0,0.0,0.0,0.0,0.0,0.0,0.0,0.0,0.0,0.0,0.0,0.0,0.0,0.0,0.0,0.0,0.0,0.0,0.0,0.0,0.0,0.0,0.0,0.0,0.0,0.0,0.0,0.0,0.0,0.0,0.0,0.0,0.0,0.0,0.0,0.0,0.0,0.0,0.0,0.0,0.0,0.0,0.0,0.0,0.0,0.0,0.0,0.0,0.0,0.0,0.0,0.0,0.0,0.0,0.0,0.0,0.0,0.0,0.0,0.0,0.0,0.0,0.0,0.0,0.0,0.0,0.0,0.0,0.0,0.0,0.0,0.0,0.0,0.0,0.0,0.0,0.0,0.0,0.0,0.0,0.0,0.0,0.0,0.0,0.0,0.0,0.0,0.0,0.0,0.0,0.0,0.0,0.0,0.0,0.0,0.0,0.0,0.0,0.0,0.0,0.0,0.0,0.0,0.0,0.0,0.0,0.0,0.0,0.0,0.0,0.0,0.0,0.0,0.0,0.0,0.0,0.0,0.0,0.0,0.0,0.0,0.0,0.0,0.0,0.0,0.0,0.0,0.0,0.0,0.0,0.0,0.0,0.0,0.0,0.0,0.0,0.0,0.0,0.0,0.0,0.0,0.0,0.0,0.0,0.0,0.0,0.0,0.0,0.0,0.0,0.0,0.0,0.0,0.0,0.0,0.0,0.0,0.0,0.0,0.0,0.0,0.0,0.0,0.0,0.0,0.0,0.0,0.0,0.0,0.0,0.0,0.0,0.0,0.0,0.0,0.0,0.0,0.0,0.0,0.0,0.0,0.0,0.0,0.0,0.0,0.0,0.0,0.0,0.0,0.0,0.0,0.0,0.0,0.0,0.0,0.0,0.0,0.0,0.0,0.0,0.0,0.0,0.0,0.0,0.0,0.0,0.0,0.0,0.0,0.0,0.0,0.0,0.0,0.0,0.0,0.0,0.0,0.0,0.0,0.0,0.0,0.0,0.0,0.0,0.0,0.0,0.0,0.0,0.0,0.0,0.0,0.0,0.0,0.0,0.0,0.0,0.0,0.0,0.0,0.0,0.0,0.0,0.0,0.0,0.0,0.0,0.0,0.0,0.0,0.0,0.0,0.0,0.0,-4.2021,0.0,0.0,0.0,-4.4125,0.0,0.0,0.0,0.0,0.0,0.0,0.0,0.0,0.0,0.0,0.0,0.0,0.0,0.0,0.0,0.0,0.0,0.0,0.0,0.0,0.0,0.0,0.0,0.0,0.0,0.0,0.0,0.0,0.0,0.0,0.0,0.0,0.0,0.0,0.0,0.0,0.0,0.0,0.0,0.0,0.0,0.0,0.0,0.0,0.0,0.0,0.0,0.0,0.0,0.0,0.0,0.0,0.0,0.0,0.0,0.0,0.0,0.0,0.0,0.0,0.0,0.0,0.0,0.0,0.0,0.0,0.0,0.0,0.0,0.0,0.0,0.0,0.0,0.0,0.0,0.0,0.0,0.0,0.0,0.0,0.0,0.0,0.0,0.0,0.0,0.0,0.0,0.0,0.0,0.0,0.0,0.0,0.0,0.0,0.0,0.0,0.0,0.0,0.0,0.0,0.0,0.0,0.0,0.0,0.0,0.0,0.0,0.0,0.0,0.0,-4.344,-4.4378,-4.5041,-4.5369,-4.5405,0.0,0.0,0.0,0.0,0.0,0.0,0.0,0.0,0.0,0.0,0.0,0.0,0.0,0.0,0.0,0.0,0.0,0.0,0.0,0.0,0.0,0.0,0.0,0.0,0.0,0.0,0.0,0.0,0.0,0.0,0.0,0.0,0.0,0.0,0.0,0.0,0.0,0.0,0.0,0.0,0.0,0.0,0.0,0.0,0.0,0.0,0.0,0.0,0.0,0.0,0.0,0.0,0.0,0.0,0.0,0.0,0.0,0.0,0.0,0.0,0.0,0.0,0.0,0.0,0.0,0.0,0.0,0.0,0.0,0.0,0.0,0.0,0.0,0.0,0.0,0.0,0.0,0.0,0.0,0.0,0.0,0.0,0.0,0.0,0.0,0.0,0.0,0.0,0.0,0.0,0.0,0.0,0.0,0.0,0.0,0.0,0.0,0.0,0.0,0.0,0.0,0.0,0.0,0.0,0.0,0.0,0.0,0.0,0.0,0.0,0.0,0.0,-4.6318,-4.6644,-4.6794,0.0,0.0,0.0,0.0,0.0,0.0,0.0,0.0,0.0,0.0,0.0,0.0,0.0,0.0,0.0,0.0,0.0,0.0,0.0,0.0,0.0,0.0,0.0,0.0,0.0,0.0,0.0,0.0,0.0,0.0,0.0,0.0,0.0,0.0,0.0,0.0,0.0,0.0,0.0,0.0,0.0,0.0,0.0,0.0,0.0,0.0,0.0,0.0,0.0,0.0,0.0,0.0,0.0,0.0,0.0,0.0,0.0,0.0,0.0,0.0,0.0,0.0,0.0,0.0,0.0,0.0,0.0,0.0,0.0,0.0,0.0,0.0,0.0,0.0,0.0,0.0,0.0,0.0,0.0,0.0,0.0,0.0,0.0,0.0,0.0,0.0,0.0,0.0,0.0,0.0,0.0,0.0,0.0,0.0,0.0,0.0,0.0,0.0,0.0,0.0,0.0,0.0,0.0,0.0,0.0,0.0,0.0,0.0,0.0,0.0,-4.5755,-4.6237,-4.7181,0.0,-4.8508,0.0,0.0,0.0,0.0,0.0,0.0,0.0,0.0,0.0,0.0,0.0,0.0,0.0,0.0,0.0,0.0,0.0,0.0,0.0,0.0,0.0,0.0,0.0,0.0,0.0,0.0,0.0,0.0,0.0,0.0,0.0,0.0,0.0,0.0,0.0,0.0,0.0,0.0,0.0,0.0,0.0,0.0,0.0,0.0,0.0,0.0,0.0,0.0,0.0,0.0,0.0,0.0,0.0,0.0,0.0,0.0,0.0,0.0,0.0,0.0,0.0,0.0,0.0,0.0,0.0,0.0,0.0,0.0,0.0,0.0,0.0,0.0,0.0,0.0,0.0,0.0,0.0,0.0,0.0,0.0,0.0,0.0,0.0,0.0,0.0,0.0,0.0,0.0,0.0,0.0,0.0,0.0,0.0,0.0,0.0,0.0,0.0,0.0,0.0,0.0,0.0,0.0,0.0,0.0,0.0,0.0,0.0,0.0,0.0,0.0,-4.6856,-4.7625,-4.8276,-4.8919,0.0,0.0,0.0,0.0,0.0,0.0,0.0,0.0,0.0,0.0,0.0,0.0,0.0,0.0,0.0,0.0,0.0,0.0,0.0,0.0,0.0,0.0,0.0,0.0,0.0,0.0,0.0,0.0,0.0,0.0,0.0,0.0,0.0,0.0,0.0,0.0,0.0,0.0,0.0,0.0,0.0,0.0,0.0,0.0,0.0,0.0,0.0,0.0,0.0,0.0,0.0,0.0,0.0,0.0,0.0,0.0,0.0,0.0,0.0,0.0,0.0,0.0,0.0,0.0,0.0,0.0,0.0,0.0,0.0,0.0,0.0,0.0,0.0,0.0,0.0,0.0,0.0,0.0,0.0,0.0,0.0,0.0,0.0,0.0,0.0,0.0,0.0,0.0,0.0,0.0,0.0,0.0,0.0,0.0,0.0,0.0,0.0,0.0,0.0,0.0,0.0,0.0,0.0,0.0,0.0,0.0,0.0,0.0,0.0,0.0,-4.7527,-4.8235,-4.9343,-4.9631,-5.0067,-5.0678,0.0,0.0,0.0,0.0,0.0,0.0,0.0,0.0,0.0,0.0,0.0,0.0,0.0,0.0,0.0,0.0,0.0,0.0,0.0,0.0,0.0,0.0,0.0,0.0,0.0,0.0,0.0,0.0,0.0,0.0,0.0,0.0,0.0,0.0,0.0,0.0,0.0,0.0,0.0,0.0,0.0,0.0,0.0,0.0,0.0,0.0,0.0,0.0,0.0,0.0,0.0,0.0,0.0,0.0,0.0,0.0,0.0,0.0,0.0,0.0,0.0,0.0,0.0,0.0,0.0,0.0,0.0,0.0,0.0,0.0,0.0,0.0,0.0,0.0,0.0,0.0,0.0,0.0,0.0,0.0,0.0,0.0,0.0,0.0,0.0,0.0,0.0,0.0,0.0,0.0,0.0,0.0,0.0,0.0,0.0,0.0,0.0,0.0,0.0,0.0,0.0,0.0,0.0,0.0,0.0,0.0,0.0,0.0,-4.7399,-4.8652,-5.0007,-5.1283,-5.1374,-5.1499,0.0,0.0,0.0,0.0,0.0,0.0,0.0,0.0,0.0,0.0,0.0,0.0,0.0,0.0,0.0,0.0,0.0,0.0,0.0,0.0,0.0,0.0,0.0,0.0,0.0,0.0,0.0,0.0,0.0,0.0,0.0,0.0,0.0,0.0,0.0,0.0,0.0,0.0,0.0,0.0,0.0,0.0,0.0,0.0,0.0,0.0,0.0,0.0,0.0,0.0,0.0,0.0,0.0,0.0,0.0,0.0,0.0,0.0,0.0,0.0,0.0,0.0,0.0,0.0,0.0,0.0,0.0,0.0,0.0,0.0,0.0,0.0,0.0,0.0,0.0,0.0,0.0,0.0,0.0,0.0,0.0,0.0,0.0,0.0,0.0,0.0,0.0,0.0,0.0,0.0,0.0,0.0,0.0,0.0,0.0,0.0,0.0,0.0,0.0,0.0,0.0,0.0,0.0,0.0,0.0,0.0,0.0,0.0,0.0,-4.7385,-4.8741,-5.0099,-5.1323,-5.145,-5.187,0.0,0.0,0.0,0.0,0.0,0.0,0.0,0.0,0.0,0.0,0.0,0.0,0.0,0.0,0.0,0.0,0.0,0.0,0.0,0.0,0.0,0.0,0.0,0.0,0.0,0.0,0.0,0.0,0.0,0.0,0.0,0.0,0.0,0.0,0.0,0.0,0.0,0.0,0.0,0.0,0.0,0.0,0.0,0.0,0.0,0.0,0.0,0.0,0.0,0.0,0.0,0.0,0.0,0.0,0.0,0.0,0.0,0.0,0.0,0.0,0.0,0.0,0.0,0.0,0.0,0.0,0.0,0.0,0.0,0.0,0.0,0.0,0.0,0.0,0.0,0.0,0.0,0.0,0.0,0.0,0.0,0.0,0.0,0.0,0.0,0.0,0.0,0.0,0.0,0.0,0.0,0.0,0.0,0.0,0.0,0.0,0.0,0.0,0.0,0.0,0.0,0.0,0.0,0.0,0.0,0.0,0.0,0.0,0.0,-4.8612,0.0,-5.0812,-5.1879,-5.2085,-5.2565,0.0,0.0,0.0,0.0,0.0,0.0,0.0,0.0,0.0,0.0,0.0,0.0,0.0,0.0,0.0,0.0,0.0,0.0,0.0,0.0,0.0,0.0,0.0,0.0,0.0,0.0,0.0,0.0,0.0,0.0,0.0,0.0,0.0,0.0,0.0,0.0,0.0,0.0,0.0,0.0,0.0,0.0,0.0,0.0,0.0,0.0,0.0,0.0,0.0,0.0,0.0,0.0,0.0,0.0,0.0,0.0,0.0,0.0,0.0,0.0,0.0,0.0,0.0,0.0,0.0,0.0,0.0,0.0,0.0,0.0,0.0,0.0,0.0,0.0,0.0,0.0,0.0,0.0,0.0,0.0,0.0,0.0,0.0,0.0,0.0,0.0,0.0,0.0,0.0,0.0,0.0,0.0,0.0,0.0,0.0,0.0,0.0,0.0,0.0,0.0,0.0,0.0,0.0,0.0,0.0,0.0,0.0,0.0,-4.9686,-5.1274,-5.1551,-5.215,-5.3224,-5.341,-5.372,0.0,0.0,0.0,0.0,0.0,0.0,0.0,0.0,0.0,0.0,0.0,0.0,0.0,0.0,0.0,0.0,0.0,0.0,0.0,0.0,0.0,0.0,0.0,0.0,0.0,0.0,0.0,0.0,0.0,0.0,0.0,0.0,0.0,0.0,0.0,0.0,0.0,0.0,0.0,0.0,0.0,0.0,0.0,0.0,0.0,0.0,0.0,0.0,0.0,0.0,0.0,0.0,0.0,0.0,0.0,0.0,0.0,0.0,0.0,0.0,0.0,0.0,0.0,0.0,0.0,0.0,0.0,0.0,0.0,0.0,0.0,0.0,0.0,0.0,0.0,0.0,0.0,0.0,0.0,0.0,0.0,0.0,0.0,0.0,0.0,0.0,0.0,0.0,0.0,0.0,0.0,0.0,0.0,0.0,0.0,0.0,0.0,0.0,0.0,0.0,0.0,0.0,0.0,0.0,0.0,0.0,0.0,0.0,0.0,-5.1194,-5.1285,-5.1805,-5.2777,-5.2993,-5.3285,0.0,0.0,0.0,0.0,0.0,0.0,0.0,0.0,0.0,0.0,0.0,0.0,0.0,0.0,0.0,0.0,0.0,0.0,0.0,0.0,0.0,0.0,0.0,0.0,0.0,0.0,0.0,0.0,0.0,0.0,0.0,0.0,0.0,0.0,0.0,0.0,0.0,0.0,0.0,0.0,0.0,0.0,0.0,0.0,0.0,0.0,0.0,0.0,0.0,0.0,0.0,0.0,0.0,0.0,0.0,0.0,0.0,0.0,0.0,0.0,0.0,0.0,0.0,0.0,0.0,0.0,0.0,0.0,0.0,0.0,0.0,0.0,0.0,0.0,0.0,0.0,0.0,0.0,0.0,0.0,0.0,0.0,0.0,0.0,0.0,0.0,0.0,0.0,0.0,0.0,0.0,0.0,0.0,0.0,0.0,0.0,0.0,0.0,0.0,0.0,0.0,0.0,0.0,0.0,0.0,0.0,0.0,0.0,0.0,-5.1337,-5.156,-5.2018,-5.2725,-5.3189,-5.3585,-5.3937,0.0,0.0,0.0,0.0,0.0,0.0,0.0,0.0,0.0,0.0,0.0,0.0,0.0,0.0,0.0,0.0,0.0,0.0,0.0,0.0,0.0,0.0,0.0,0.0,0.0,0.0,0.0,0.0,0.0,0.0,0.0,0.0,0.0,0.0,0.0,0.0,0.0,0.0,0.0,0.0,0.0,0.0,0.0,0.0,0.0,0.0,0.0,0.0,0.0,0.0,0.0,0.0,0.0,0.0,0.0,0.0,0.0,0.0,0.0,0.0,0.0,0.0,0.0,0.0,0.0,0.0,0.0,0.0,0.0,0.0,0.0,0.0,0.0,0.0,0.0,0.0,0.0,0.0,0.0,0.0,0.0,0.0,0.0,0.0,0.0,0.0,0.0,0.0,0.0,0.0,0.0,0.0,0.0,0.0,0.0,0.0,0.0,0.0,0.0,0.0,0.0,0.0,0.0,0.0,0.0,0.0,0.0,0.0,-5.1695,-5.2286,-5.2714,-5.2962,-5.3734,-5.4417,0.0,0.0,0.0,0.0,0.0,0.0,0.0,0.0,0.0,0.0,0.0,0.0,0.0,0.0,0.0,0.0,0.0,0.0,0.0,0.0,0.0,0.0,0.0,0.0,0.0,0.0,0.0,0.0,0.0,0.0,0.0,0.0,0.0,0.0,0.0,0.0,0.0,0.0,0.0,0.0,0.0,0.0,0.0,0.0,0.0,0.0,0.0,0.0,0.0,0.0,0.0,0.0,0.0,0.0,0.0,0.0,0.0,0.0,0.0,0.0,0.0,0.0,0.0,0.0,0.0,0.0,0.0,0.0,0.0,0.0,0.0,0.0,0.0,0.0,0.0,0.0,0.0,0.0,0.0,0.0,0.0,0.0,0.0,0.0,0.0,0.0,0.0,0.0,0.0,0.0,0.0,0.0,0.0,0.0,0.0,0.0,0.0,0.0,0.0,0.0,0.0,0.0,0.0,0.0,0.0,0.0,0.0,0.0,0.0,-5.163,-5.2207,-5.2606,-5.2726,-5.3112,-5.3439,0.0,0.0,0.0,0.0,0.0,0.0,0.0,0.0,0.0,0.0,0.0,0.0,0.0,0.0,0.0,0.0,0.0,0.0,0.0,0.0,0.0,0.0,0.0,0.0,0.0,0.0,0.0,0.0,0.0,0.0,0.0,0.0,0.0,0.0,0.0,0.0,0.0,0.0,0.0,0.0,0.0,0.0,0.0,0.0,0.0,0.0,0.0,0.0,0.0,0.0,0.0,0.0,0.0,0.0,0.0,0.0,0.0,0.0,0.0,0.0,0.0,0.0,0.0,0.0,0.0,0.0,0.0,0.0,0.0,0.0,0.0,0.0,0.0,0.0,0.0,0.0,0.0,0.0,0.0,0.0,0.0,0.0,0.0,0.0,0.0,0.0,0.0,0.0,0.0,0.0,0.0,0.0,0.0,0.0,0.0,0.0,0.0,0.0,0.0,0.0,0.0,0.0,0.0,0.0,0.0,0.0,0.0,0.0,-5.1595,-5.1965,-5.2606,-5.3112,-5.3408,-5.3394,-5.3505,0.0,0.0,0.0,0.0,0.0,0.0,0.0,0.0,0.0,0.0,0.0,0.0,0.0,0.0,0.0,0.0,0.0,0.0,0.0,0.0,0.0,0.0,0.0,0.0,0.0,0.0,0.0,0.0,0.0,0.0,0.0,0.0,0.0,0.0,0.0,0.0,0.0,0.0,0.0,0.0,0.0,0.0,0.0,0.0,0.0,0.0,0.0,0.0,0.0,0.0,0.0,0.0,0.0,0.0,0.0,0.0,0.0,0.0,0.0,0.0,0.0,0.0,0.0,0.0,0.0,0.0,0.0,0.0,0.0,0.0,0.0,0.0,0.0,0.0,0.0,0.0,0.0,0.0,0.0,0.0,0.0,0.0,0.0,0.0,0.0,0.0,0.0,0.0,0.0,0.0,0.0,0.0,0.0,0.0,0.0,0.0,0.0,0.0,0.0,0.0,0.0,0.0,0.0,0.0,0.0,0.0,0.0,0.0,-5.1916,-5.2577,-5.3244,-5.3871,-5.4386,-5.4158,-5.415,0.0,0.0,0.0,0.0,0.0,0.0,0.0,0.0,0.0,0.0,0.0,0.0,0.0,0.0,0.0,0.0,0.0,0.0,0.0,0.0,0.0,0.0,0.0,0.0,0.0,0.0,0.0,0.0,0.0,0.0,0.0,0.0,0.0,0.0,0.0,0.0,0.0,0.0,0.0,0.0,0.0,0.0,0.0,0.0,0.0,0.0,0.0,0.0,0.0,0.0,0.0,0.0,0.0,0.0,0.0,0.0,0.0,0.0,0.0,0.0,0.0,0.0,0.0,0.0,0.0,0.0,0.0,0.0,0.0,0.0,0.0,0.0,0.0,0.0,0.0,0.0,0.0,0.0,0.0,0.0,0.0,0.0,0.0,0.0,0.0,0.0,0.0,0.0,0.0,0.0,0.0,0.0,0.0,0.0,0.0,0.0,0.0,0.0,0.0,0.0,0.0,0.0,0.0,0.0,0.0,0.0,0.0,0.0,-5.2373,-5.3024,-5.3411,-5.3651,-5.3809,-5.4419,-5.4791,0.0,0.0,0.0,0.0,0.0,0.0,0.0,0.0,0.0,0.0,0.0,0.0,0.0,0.0,0.0,0.0,0.0,0.0,0.0,0.0,0.0,0.0,0.0,0.0,0.0,0.0,0.0,0.0,0.0,0.0,0.0,0.0,0.0,0.0,0.0,0.0,0.0,0.0,0.0,0.0,0.0,0.0,0.0,0.0,0.0,0.0,0.0,0.0,-5.8321,0.0,0.0,0.0,0.0,0.0,0.0,0.0,0.0,0.0,0.0,0.0,0.0,0.0,0.0,0.0,0.0,0.0,0.0,0.0,0.0,0.0,0.0,0.0,0.0,0.0,0.0,0.0,0.0,0.0,0.0,0.0,0.0,0.0,0.0,0.0,0.0,0.0,0.0,0.0,0.0,0.0,0.0,0.0,0.0,0.0,0.0,0.0,0.0,0.0,0.0,0.0,0.0,0.0,0.0,0.0,0.0,0.0,0.0,0.0,-5.2573,-5.3524,-5.3833,-5.4309,-5.492,-5.5763,-5.5732,0.0,0.0,0.0,0.0,0.0,0.0,0.0,0.0,0.0,0.0,0.0,0.0,0.0,0.0,0.0,0.0,0.0,0.0,0.0,0.0,0.0,0.0,0.0,0.0,0.0,0.0,0.0,0.0,0.0,0.0,0.0,0.0,0.0,0.0,0.0,0.0,0.0,0.0,0.0,0.0,0.0,0.0,0.0,0.0,0.0,0.0,0.0,0.0,0.0,0.0,0.0,0.0,0.0,0.0,0.0,0.0,0.0,0.0,0.0,0.0,0.0,0.0,0.0,0.0,0.0,0.0,0.0,0.0,0.0,0.0,0.0,0.0,0.0,0.0,0.0,0.0,0.0,0.0,0.0,0.0,0.0,0.0,0.0,0.0,0.0,0.0,0.0,0.0,0.0,0.0,0.0,0.0,0.0,0.0,0.0,0.0,0.0,0.0,0.0,0.0,0.0,0.0,0.0,0.0,0.0,0.0,0.0,-5.1863,-5.2649,-5.3951,-5.4356,-5.5162,-5.6391,-5.7034,-5.6661,-5.5099,0.0,0.0,0.0,0.0,0.0,0.0,0.0,0.0,0.0,0.0,0.0,0.0,0.0,0.0,0.0,0.0,0.0,0.0,0.0,0.0,0.0,0.0,0.0,0.0,0.0,0.0,0.0,0.0,0.0,0.0,0.0,0.0,0.0,0.0,0.0,0.0,0.0,0.0,-5.4891,-5.6902,0.0,0.0,0.0,0.0,0.0,0.0,0.0,0.0,-6.0593,0.0,0.0,0.0,0.0,0.0,0.0,0.0,0.0,0.0,0.0,0.0,0.0,0.0,0.0,0.0,0.0,0.0,0.0,0.0,0.0,0.0,0.0,0.0,0.0,0.0,0.0,0.0,0.0,0.0,0.0,0.0,0.0,0.0,0.0,0.0,0.0,0.0,0.0,0.0,0.0,0.0,0.0,0.0,0.0,0.0,0.0,0.0,0.0,0.0,0.0,0.0,0.0,0.0,0.0,0.0,0.0,-5.1366,-5.2065,-5.2966,-5.3965,-5.4781,-5.5503,-5.617,-5.6643,-5.7023,-5.7323,0.0,0.0,0.0,0.0,0.0,0.0,0.0,0.0,0.0,0.0,0.0,0.0,0.0,0.0,0.0,0.0,0.0,0.0,0.0,0.0,0.0,0.0,0.0,0.0,0.0,0.0,0.0,0.0,0.0,0.0,0.0,0.0,0.0,0.0,0.0,0.0,0.0,0.0,0.0,-5.9014,-5.9742,0.0,0.0,0.0,0.0,0.0,0.0,0.0,0.0,-6.0805,0.0,0.0,0.0,0.0,0.0,0.0,0.0,0.0,0.0,0.0,0.0,0.0,0.0,0.0,0.0,0.0,0.0,0.0,0.0,0.0,0.0,0.0,0.0,0.0,0.0,0.0,0.0,0.0,0.0,0.0,0.0,0.0,0.0,0.0,0.0,0.0,0.0,0.0,0.0,0.0,0.0,0.0,0.0,0.0,0.0,0.0,0.0,0.0,0.0,0.0,0.0,0.0,0.0,0.0,0.0,-5.2657,-5.307,-5.3835,-5.4939,-5.5703,-5.6575,-5.7637,-5.8398,-5.8921,0.0,0.0,0.0,0.0,0.0,0.0,0.0,0.0,0.0,0.0,0.0,0.0,0.0,0.0,0.0,0.0,0.0,0.0,0.0,0.0,0.0,0.0,0.0,0.0,0.0,0.0,0.0,0.0,0.0,0.0,0.0,0.0,0.0,0.0,0.0,0.0,0.0,0.0,0.0,0.0,-5.9827,-6.0723,-6.0723,0.0,0.0,0.0,0.0,0.0,0.0,-6.2549,-6.2323,0.0,0.0,0.0,0.0,0.0,0.0,0.0,0.0,0.0,0.0,0.0,0.0,0.0,0.0,0.0,0.0,0.0,0.0,0.0,0.0,0.0,0.0,0.0,0.0,0.0,0.0,0.0,0.0,0.0,0.0,0.0,0.0,0.0,0.0,0.0,0.0,0.0,0.0,0.0,0.0,0.0,0.0,0.0,0.0,0.0,0.0,0.0,0.0,0.0,0.0,0.0,0.0,0.0,0.0,0.0,-5.3935,-5.4086,-5.4801,-5.6001,-5.6579,-5.7525,-5.8999,-5.9992,-6.0469,0.0,0.0,0.0,0.0,0.0,0.0,0.0,0.0,0.0,0.0,0.0,0.0,0.0,0.0,0.0,0.0,0.0,0.0,0.0,0.0,0.0,0.0,0.0,0.0,0.0,0.0,0.0,0.0,0.0,0.0,0.0,0.0,0.0,0.0,0.0,0.0,0.0,0.0,0.0,0.0,0.0,-6.1621,-6.1582,-6.2729,0.0,0.0,0.0,0.0,-6.4319,-6.4044,0.0,0.0,0.0,0.0,0.0,0.0,0.0,0.0,0.0,0.0,0.0,0.0,0.0,0.0,0.0,0.0,0.0,0.0,0.0,0.0,0.0,0.0,0.0,0.0,0.0,0.0,0.0,0.0,0.0,0.0,0.0,0.0,0.0,0.0,0.0,0.0,0.0,0.0,0.0,0.0,0.0,0.0,0.0,0.0,0.0,0.0,0.0,0.0,0.0,0.0,0.0,0.0,0.0,0.0,0.0,0.0,-5.4201,-5.477,-5.5531,-5.6506,-5.713,-5.7821,-5.8731,-5.9327,-5.9898,0.0,0.0,0.0,0.0,0.0,0.0,0.0,0.0,0.0,0.0,0.0,0.0,0.0,0.0,0.0,0.0,0.0,0.0,0.0,0.0,0.0,0.0,0.0,0.0,0.0,0.0,0.0,0.0,0.0,0.0,0.0,0.0,0.0,0.0,0.0,0.0,0.0,0.0,0.0,0.0,0.0,-6.2621,-6.2621,-6.3324,-6.3944,0.0,0.0,-6.436,-6.4319,-6.4078,0.0,0.0,0.0,0.0,0.0,0.0,0.0,0.0,0.0,0.0,0.0,0.0,0.0,0.0,0.0,0.0,0.0,0.0,0.0,0.0,0.0,0.0,0.0,0.0,0.0,0.0,0.0,0.0,0.0,0.0,0.0,0.0,0.0,0.0,0.0,0.0,0.0,0.0,0.0,0.0,0.0,0.0,0.0,0.0,0.0,0.0,0.0,0.0,0.0,0.0,0.0,0.0,0.0,0.0,0.0,-5.5029,-5.5329,-5.5957,-5.6817,-5.7941,-5.8429,-5.9152,-6.0197,-6.0743,-6.1027,0.0,0.0,0.0,0.0,0.0,0.0,0.0,0.0,0.0,0.0,0.0,0.0,0.0,0.0,0.0,0.0,0.0,0.0,0.0,0.0,0.0,0.0,0.0,0.0,0.0,0.0,0.0,0.0,0.0,0.0,0.0,0.0,0.0,0.0,0.0,0.0,0.0,0.0,0.0,0.0,0.0,0.0,-6.2399,-6.3857,0.0,0.0,0.0,-6.6426,-6.6024,0.0,0.0,0.0,0.0,0.0,0.0,0.0,0.0,0.0,0.0,0.0,0.0,0.0,0.0,0.0,0.0,0.0,0.0,0.0,0.0,0.0,0.0,0.0,0.0,0.0,0.0,0.0,0.0,0.0,0.0,0.0,0.0,0.0,0.0,0.0,0.0,0.0,0.0,0.0,0.0,0.0,0.0,0.0,0.0,0.0,0.0,0.0,0.0,0.0,0.0,0.0,0.0,0.0,0.0,0.0,0.0,0.0,-5.6675,-5.7274,-5.8171,-5.9308,-5.9735,-6.0361,-6.1385,-6.195,0.0,0.0,0.0,0.0,0.0,0.0,0.0,0.0,0.0,0.0,0.0,0.0,0.0,0.0,0.0,0.0,0.0,0.0,0.0,0.0,0.0,0.0,0.0,0.0,0.0,0.0,0.0,-4.5643,0.0,0.0,0.0,0.0,0.0,0.0,0.0,0.0,0.0,0.0,0.0,0.0,0.0,0.0,-6.2025,-6.2025,-6.409,-6.5669,0.0,0.0,-6.7892,-6.7334,-6.72,-6.6966,0.0,0.0,0.0,0.0,0.0,0.0,0.0,0.0,0.0,0.0,0.0,0.0,0.0,0.0,0.0,0.0,0.0,0.0,0.0,0.0,0.0,0.0,0.0,0.0,0.0,0.0,0.0,0.0,0.0,0.0,0.0,0.0,0.0,0.0,0.0,0.0,0.0,0.0,0.0,0.0,0.0,0.0,0.0,0.0,0.0,0.0,0.0,0.0,0.0,0.0,0.0,0.0,0.0,0.0,-5.7363,-5.7992,-5.865,-5.9308,-6.0027,-6.0655,-6.1151,-6.1484,-6.2086,-6.2181,0.0,0.0,0.0,0.0,0.0,0.0,0.0,0.0,0.0,0.0,0.0,0.0,0.0,0.0,0.0,0.0,0.0,0.0,0.0,0.0,0.0,0.0,0.0,0.0,0.0,0.0,0.0,0.0,0.0,0.0,0.0,0.0,0.0,0.0,0.0,0.0,0.0,0.0,0.0,0.0,0.0,-6.1815,-6.1815,-6.3896,-6.5592,0.0,-6.6944,-6.7563,-6.7246,-6.72,-6.6933,-6.6229,0.0,0.0,0.0,0.0,0.0,0.0,0.0,0.0,0.0,0.0,0.0,0.0,0.0,0.0,0.0,0.0,0.0,0.0,0.0,0.0,0.0,0.0,0.0,0.0,0.0,0.0,0.0,0.0,0.0,0.0,0.0,0.0,0.0,0.0,0.0,0.0,0.0,0.0,0.0,0.0,0.0,0.0,0.0,0.0,0.0,0.0,0.0,0.0,0.0,0.0,0.0,0.0,0.0,-5.8471,-5.874,-5.9787,-6.0655,-6.1313,-6.1583,-6.1815,-6.2096,-6.2375,-6.2372,0.0,0.0,0.0,0.0,0.0,0.0,0.0,0.0,0.0,0.0,0.0,0.0,0.0,0.0,0.0,0.0,0.0,0.0,0.0,0.0,0.0,0.0,0.0,0.0,0.0,0.0,0.0,0.0,-4.6367,-4.78,-5.0608,0.0,0.0,0.0,0.0,0.0,0.0,0.0,0.0,0.0,0.0,-6.0912,-6.1099,-6.3692,0.0,0.0,-6.7311,-6.8009,-6.787,-6.7502,-6.7054,-6.6617,-6.6558,0.0,0.0,0.0,0.0,0.0,0.0,0.0,0.0,0.0,0.0,0.0,0.0,0.0,0.0,0.0,0.0,0.0,0.0,0.0,0.0,0.0,0.0,0.0,0.0,0.0,0.0,0.0,0.0,0.0,0.0,0.0,0.0,0.0,0.0,0.0,0.0,0.0,0.0,0.0,0.0,0.0,0.0,0.0,0.0,0.0,0.0,0.0,0.0,0.0,0.0,0.0,0.0,-5.9697,-5.9727,-6.1014,-6.1912,-6.2391,-6.278,-6.2984,-6.2946,-6.306,-6.2863,0.0,0.0,0.0,0.0,0.0,0.0,0.0,0.0,0.0,0.0,0.0,0.0,0.0,0.0,0.0,0.0,0.0,0.0,0.0,0.0,0.0,0.0,0.0,0.0,0.0,0.0,0.0,0.0,-4.7692,-4.9828,-5.3053,0.0,0.0,0.0,0.0,0.0,0.0,0.0,0.0,0.0,0.0,-6.0248,-6.0613,-6.3258,-6.5383,-6.5981,-6.7079,-6.7922,-6.797,-6.7569,-6.7141,-6.6829,0.0,0.0,0.0,0.0,0.0,0.0,0.0,0.0,0.0,0.0,0.0,0.0,0.0,0.0,0.0,0.0,0.0,0.0,0.0,0.0,0.0,0.0,0.0,0.0,0.0,0.0,0.0,-6.4905,0.0,0.0,-6.4964,0.0,0.0,0.0,0.0,0.0,0.0,0.0,0.0,0.0,0.0,0.0,0.0,0.0,0.0,0.0,0.0,0.0,0.0,0.0,0.0,0.0,0.0,-6.1074,-6.1104,-6.2361,-6.3049,-6.3109,-6.4306,-6.4605,-6.3947,-6.4268,-6.384,-6.2544,0.0,0.0,0.0,0.0,0.0,0.0,0.0,0.0,0.0,0.0,0.0,0.0,0.0,0.0,0.0,0.0,0.0,0.0,0.0,0.0,0.0,0.0,0.0,0.0,0.0,0.0,-4.6829,-4.9951,-5.2859,0.0,0.0,0.0,0.0,0.0,0.0,0.0,0.0,0.0,-5.7262,-5.8681,-5.9835,-6.049,-6.2523,-6.4235,-6.4932,-6.6122,-6.701,-6.7191,-6.7234,-6.7097,0.0,0.0,0.0,0.0,0.0,0.0,0.0,0.0,0.0,0.0,0.0,0.0,0.0,0.0,0.0,0.0,0.0,0.0,0.0,0.0,0.0,0.0,0.0,0.0,0.0,0.0,0.0,-6.5024,-6.5024,0.0,0.0,0.0,0.0,0.0,0.0,0.0,0.0,0.0,0.0,0.0,-6.4395,-6.4575,0.0,0.0,0.0,0.0,0.0,0.0,0.0,0.0,0.0,0.0,0.0,0.0,-6.2002,-6.245,-6.3258,-6.3917,-6.4366,-6.4814,-6.4695,-6.4036,-6.4123,-6.3582,-6.2322,0.0,0.0,0.0,0.0,0.0,0.0,0.0,0.0,0.0,0.0,0.0,0.0,0.0,0.0,0.0,0.0,0.0,0.0,0.0,0.0,0.0,0.0,0.0,0.0,0.0,-4.8902,0.0,0.0,0.0,0.0,0.0,0.0,0.0,0.0,0.0,0.0,-5.6296,-5.6835,-5.7134,-5.8421,-5.9638,-6.049,-6.2473,-6.4122,0.0,0.0,0.0,0.0,0.0,0.0,0.0,0.0,0.0,0.0,0.0,0.0,0.0,-6.6143,-6.5188,-6.3259,-6.2519,-6.2165,-6.1937,0.0,0.0,0.0,0.0,0.0,0.0,0.0,0.0,0.0,0.0,0.0,0.0,0.0,0.0,-6.64,-6.643,-6.64,0.0,0.0,0.0,0.0,0.0,0.0,0.0,0.0,-6.5951,-6.5802,-6.5383,-6.5592,-6.5473,-6.5054,-6.5024,-6.4366,0.0,0.0,0.0,0.0,0.0,0.0,0.0,0.0,-6.2959,-6.3408,-6.4246,-6.4934,-6.5353,-6.5592,-6.5383,-6.4725,-6.4246,-6.3498,-6.248,-6.1792,-6.1134,0.0,0.0,0.0,0.0,0.0,0.0,0.0,0.0,0.0,0.0,0.0,0.0,0.0,0.0,0.0,0.0,0.0,0.0,0.0,0.0,0.0,0.0,0.0,-5.0823,0.0,0.0,0.0,0.0,0.0,0.0,0.0,0.0,0.0,-5.6467,-5.664,-5.7043,-5.7721,-5.8749,-5.9848,-6.0952,0.0,0.0,0.0,0.0,0.0,0.0,0.0,-6.6388,-6.6728,-6.6812,-6.6872,-6.7023,-6.7204,-6.7324,-6.7343,0.0,0.0,-6.4095,-6.3645,-6.3452,-6.3002,-6.3357,-6.3561,-6.3077,-6.3511,-6.3701,0.0,0.0,0.0,0.0,-6.6161,0.0,0.0,0.0,-6.8675,-6.8914,0.0,-6.8914,0.0,0.0,0.0,0.0,-6.8016,-6.7956,0.0,0.0,-6.7687,-6.7328,-6.6221,-6.6759,-6.64,-6.5203,-6.5173,-6.5144,-6.5024,-6.4395,0.0,0.0,0.0,0.0,0.0,0.0,-6.4036,-6.4126,-6.5323,-6.6011,-6.6041,-6.664,-6.664,-6.5951,-6.4695,-6.3707,-6.3079,-6.2421,-6.1792,-6.1164,-6.0475,0.0,0.0,0.0,0.0,0.0,0.0,0.0,0.0,0.0,0.0,0.0,0.0,0.0,0.0,0.0,0.0,0.0,0.0,0.0,0.0,-5.0639,0.0,0.0,0.0,0.0,0.0,0.0,0.0,0.0,0.0,-5.8194,-5.8264,-5.7488,-5.7418,-5.8949,0.0,0.0,0.0,0.0,-6.3738,-6.4286,-6.4976,-6.5603,-6.6086,-6.6302,-6.6592,-6.677,0.0,0.0,-6.7493,-6.7584,-6.7487,-6.7046,-6.7023,-6.6609,-6.5643,-6.5136,-6.4766,-6.4103,-6.4347,-6.4669,-6.4715,-6.4832,-6.4955,-6.8755,0.0,0.0,0.0,0.0,-6.8345,-6.8525,-6.8704,-6.8914,-6.9004,-6.9004,-6.9004,0.0,0.0,0.0,0.0,0.0,0.0,-6.8615,-6.8435,-6.8615,-6.8525,-6.8166,-6.8345,-6.8226,-6.7867,-6.7358,-6.6879,-6.643,-6.5742,-6.5114,-6.4485,0.0,0.0,0.0,0.0,-6.4485,-6.5383,-6.5832,-6.6251,-6.67,-6.6909,-6.646,-6.5353,-6.4455,-6.3707,-6.3079,-6.245,-6.2002,-6.1792,-6.0715,0.0,0.0,0.0,0.0,0.0,0.0,0.0,0.0,0.0,0.0,0.0,0.0,0.0,0.0,0.0,0.0,0.0,0.0,0.0,-5.2296,-5.2972,-5.3883,0.0,0.0,0.0,0.0,0.0,0.0,0.0,0.0,0.0,-5.8892,-5.8452,-5.8481,0.0,0.0,-6.1694,-6.2697,-6.369,-6.4485,-6.4761,-6.5303,0.0,-6.6302,-6.6464,-6.6592,-6.677,-6.6812,-6.7007,-6.7708,-6.7714,-6.7709,-6.8081,-6.8004,-6.7613,-6.6856,-6.5919,-6.5251,-6.5054,-6.5246,-6.547,-6.5514,-6.5559,-6.547,-7.0973,-7.0633,-6.9956,-6.9703,-6.9782,-7.0051,-7.029,-7.056,-7.056,-7.056,-7.056,-7.056,-7.056,-7.056,-7.056,0.0,0.0,0.0,-7.056,-7.056,-7.056,-7.026,-6.9782,-6.9752,-6.9482,-6.9004,-6.8585,-6.8166,-6.7777,-6.7388,-6.6849,-6.6161,0.0,-6.4605,-6.5024,-6.4874,-6.5203,-6.5981,-6.6281,-6.658,-6.6969,-6.6999,-6.637,-6.5084,-6.4635,-6.3977,-6.3109,-6.272,-6.2361,-6.2091,-6.1074,-6.0386,0.0,0.0,0.0,0.0,0.0,0.0,0.0,0.0,0.0,0.0,0.0,-5.2883,-5.2033,0.0,0.0,0.0,-5.298,-5.3773,-5.4521,-5.4995,0.0,0.0,0.0,0.0,0.0,0.0,0.0,-5.7611,-5.7969,-5.8505,-5.9266,-5.9485,-5.9864,-6.0724,-6.1663,-6.2634,-6.3641,0.0,-6.5033,-6.5303,-6.5736,-6.6172,-6.6464,-6.6592,-6.6643,-6.677,-6.6812,-6.7083,-6.776,-6.78,-6.7882,-6.8253,-6.8223,-6.79,-6.7161,-6.644,-6.5878,-6.5702,-6.5824,-6.5911,-6.5911,-6.558,-6.5083,-7.2817,-7.3178,-7.1138,-7.059,-7.1098,-7.1697,-7.2325,-7.2894,-7.2894,-7.2924,-7.2924,-7.2924,-7.2924,-7.2924,-7.2924,0.0,-7.2924,-7.2924,-7.2894,-7.2924,-7.2924,-7.2265,-7.1098,-7.1068,-7.041,-6.9243,-6.9183,-6.9123,-6.9064,-6.9004,-6.8675,-6.8016,-6.6251,-6.5293,-6.5203,-6.5742,-6.6041,-6.6101,-6.667,-6.6999,-6.6999,-6.6999,-6.637,-6.5084,-6.5024,-6.4395,-6.3169,-6.3137,-6.281,-6.2181,-6.1553,-6.0894,-6.0206,0.0,0.0,0.0,0.0,0.0,0.0,0.0,0.0,0.0,0.0,0.0,0.0,0.0,0.0,-5.3703,-5.5122,0.0,-5.6332,-5.6598,0.0,0.0,0.0,-5.7351,-5.7021,-5.7181,-5.7362,-5.7442,0.0,0.0,-5.9487,-6.0487,-6.1386,-6.2157,-6.2676,-6.3446,-6.4604,-6.5201,-6.5526,-6.5724,-6.6148,-6.6406,-6.6246,-6.6416,-6.6466,-6.6474,-6.6643,-6.6779,-6.7354,-6.7523,-6.759,-6.7523,-6.7624,-6.7421,-6.6703,-6.6458,-6.6441,-6.5947,-6.5971,-6.6038,-6.5784,-6.497,-6.4134,-7.3142,-7.3027,-7.302,-7.2744,-7.2445,-7.2595,-7.2774,-7.2924,-7.2924,-7.2924,-7.2924,-7.2924,-7.2924,-7.2924,-7.2924,-7.2924,-7.2924,-7.2924,-7.2924,-7.2924,-7.2924,-7.2744,-7.2445,-7.2445,-7.1996,-7.1188,-7.0679,-7.0231,-6.9722,-6.9243,-6.8914,-6.8734,-6.8286,-6.7537,-6.655,-6.6161,-6.6281,-6.6759,-6.6909,-6.6999,-6.6999,-6.6999,-6.637,-6.5084,-6.5024,-6.4425,-6.3196,-6.3137,-6.3019,-6.2839,-6.2211,-6.1553,-6.0894,-6.0236,0.0,0.0,0.0,0.0,0.0,0.0,0.0,0.0,0.0,-5.5371,-5.5035,0.0,-5.4902,0.0,-5.6084,-5.6545,-5.6568,-5.6832,0.0,0.0,-5.7437,-5.7532,-5.7688,-5.7709,-5.776,-5.776,-5.8522,-5.9276,-5.9985,-6.1226,-6.2424,-6.3338,-6.3901,-6.4505,-6.5168,-6.5824,-6.6048,-6.563,-6.575,-6.5681,-6.5208,-6.508,-6.5189,-6.5121,-6.5155,-6.5189,-6.5358,-6.5392,-6.5392,-6.5392,-6.5392,-6.529,-6.5147,-6.4998,-6.4907,-6.4782,-6.5144,-6.5295,-6.4385,-6.369,-6.3035,-7.3964,-7.3821,-7.418,-7.4121,-7.3791,-7.3791,-7.3791,-7.3791,-7.3791,-7.3791,-7.3791,-7.3791,-7.3791,-7.3791,-7.3791,-7.3791,-7.3791,-7.3791,-7.3791,-7.3791,-7.3791,-7.3642,-7.3343,-7.3343,-7.2984,-7.2325,-7.1966,-7.1457,-7.0829,-7.047,-6.9991,-6.9453,-6.9423,-6.8914,-6.7897,-6.7508,-6.7537,-6.7867,-6.7567,-6.7418,-6.7418,-6.7148,-6.637,-6.5084,-6.5024,-6.4425,-6.3196,-6.3137,-6.3137,-6.3107,-6.245,-6.1942,-6.1553,-6.0625,-5.9907,0.0,0.0,0.0,0.0,0.0,0.0,0.0,0.0,0.0,0.0,0.0,-5.6192,-5.705,-5.7778,-5.8345,-5.8644,-5.8513,-5.8494,-5.8654,-5.8384,-5.8166,-5.8022,-5.7992,-5.8044,-5.8231,-5.8689,-5.9417,-6.0362,-6.1414,-6.2432,-6.3452,-6.4254,-6.4976,-6.5537,-6.5818,-6.5749,-6.5556,-6.5343,-6.5087,-6.4647,-6.4613,-6.4613,-6.4613,-6.4613,-6.4613,-6.4613,-6.4532,-6.4457,-6.4491,-6.4375,-6.4327,-6.4327,-6.4244,-6.4019,-6.3476,-6.3317,-6.3357,-6.3302,-6.2508,-6.1552,-7.5138,-7.5108,-7.5138,-7.5138,-7.5108,-7.5048,-7.4958,-7.4869,-7.4869,-7.4869,-7.4869,-7.4869,-7.4869,-7.4869,-7.4869,-7.4869,-7.4869,-7.4869,-7.4869,-7.4869,-7.4869,-7.4569,-7.4031,-7.4031,-7.3672,-7.3043,-7.3043,-7.2684,-7.2026,-7.2026,-7.1457,-7.041,-7.026,-6.9931,-6.9393,-6.9273,-6.9153,-6.9004,-6.8315,-6.7986,-6.7956,-6.7328,-6.637,-6.5114,-6.5024,-6.4425,-6.3196,-6.3137,-6.3137,-6.3049,-6.254,-6.2181,-6.2061,-6.0984,-6.0296,0.0,-5.9668,0.0,0.0,0.0,0.0,0.0,0.0,0.0,0.0,-5.671,-5.7379,-5.8897,-5.9767,-6.0475,-6.1074,-6.0565,-6.0206,-6.0206,-5.9727,-5.9099,-5.8471,-5.8381,-5.8458,-5.8663,-5.8716,-5.9243,-6.0515,-6.1226,-6.1985,-6.3019,-6.3844,-6.4655,-6.5547,-6.5383,-6.5203,-6.5452,-6.4783,-6.414,-6.4038,-6.4072,-6.4005,-6.3971,-6.3761,-6.3964,-6.3795,-6.3667,-6.3612,-6.3538,-6.3314,-6.3291,-6.3425,-6.3316,-6.2908,-6.1916,-6.1051,-6.083,-6.1687,-6.0845,-5.9569,-7.6455,-7.6455,-7.6455,-7.6455,-7.6425,-7.5916,-7.5377,-7.4869,-7.4869,-7.4869,-7.4869,-7.4869,-7.4869,-7.4869,-7.4869,-7.4869,-7.4869,-7.4869,-7.4869,-7.4869,-7.4869,-7.4809,-7.4689,-7.4689,-7.433,-7.3732,-7.3702,-7.3373,-7.2714,-7.2714,-7.2595,-7.2355,-7.1787,-7.1457,-7.1308,0.0,0.0,0.0,-6.8315,-6.7986,-6.7956,-6.7328,-6.637,-6.5084,-6.5024,0.0,-6.3169,-6.3137,-6.3137,-6.3137,-6.2959,0.0,0.0,0.0,0.0,0.0,0.0,0.0,0.0,0.0,0.0,0.0,-6.0514,-5.9861,-5.8698,-5.9056,-5.9737,-6.0544,-6.0809,-6.0984,-6.1074,-6.1014,-6.0924,-6.0924,-6.0805,-6.0475,-5.9817,-5.9697,-5.9572,-5.9033,-5.9188,-5.9592,-6.0346,-6.1155,-6.1885,-6.2727,-6.3065,-6.3499,-6.4233,-6.4843,-6.4925,-6.4093,-6.3328,-6.2618,-6.2009,-6.1975,-6.1839,-6.1124,-6.0806,-6.0796,-6.0858,-6.0668,-6.0449,-6.0516,-6.0342,-6.0403,-6.0403,-6.0098,-5.9982,-5.9562,-5.8855,-5.8398,-5.9004,-5.8137,-5.6931,-7.6844,-7.6844,-7.6844,-7.6844,0.0,-7.6485,-7.6155,-7.5796,-7.5168,-7.4869,-7.4869,-7.4869,-7.4869,-7.4869,-7.4869,-7.4869,-7.4869,-7.4869,-7.4869,-7.4869,-7.4869,-7.4869,-7.4869,-7.4869,-7.4689,-7.439,-7.439,-7.4061,-7.3432,-7.3402,-7.3223,-7.2924,-7.2565,-7.2235,-7.1876,-7.1218,-7.059,-6.9931,-6.9303,-6.8794,-6.8465,-6.7837,-6.67,-6.5114,-6.5024,0.0,0.0,0.0,0.0,0.0,0.0,0.0,0.0,-6.2271,0.0,-6.1613,-6.1283,-6.1104,-6.1104,-6.1104,-6.1104,-6.1104,-6.1104,-6.0835,-6.0146,-6.0416,-6.0864,-6.1523,-6.1583,-6.1732,-6.2032,-6.1792,-6.1583,-6.1583,-6.1313,-6.0954,-6.0625,-6.0296,-5.9967,-5.9638,-5.9417,-5.9476,-5.9902,-6.0555,-6.1277,-6.2053,-6.2364,-6.2682,-6.3141,-6.3643,-6.3541,-6.2606,-6.2144,-6.1603,-6.0892,-6.0723,-6.055,-6.0068,-5.9852,-5.9698,-5.9505,-5.9343,-5.9185,-5.9066,-5.8986,-5.8906,-5.8866,-5.8738,-5.8535,-5.8224,-5.7423,-5.6616,-5.6491,-5.6138,-5.5642,-7.7532,-7.7502,-7.7412,-7.7352,-7.7352,-7.7113,-7.6933,-7.6754,-7.5557,0.0,0.0,-7.4869,-7.4869,-7.4869,-7.4869,-7.4869,-7.4869,-7.4869,-7.4869,-7.4869,-7.4869,-7.4869,-7.4869,-7.4869,-7.4869,-7.4869,-7.4869,-7.4599,-7.4091,-7.4061,-7.3791,-7.3283,-7.3133,-7.2684,-7.1906,-7.1338,-7.1038,-7.0889,-7.029,-6.9662,-6.9004,-6.8315,-6.7089,-6.5174,-6.5084,-6.4455,-6.3288,-6.3139,-6.3137,-6.3137,-6.3137,-6.3137,-6.3107,-6.257,-6.2271,-6.2241,-6.1762,-6.1463,-6.1463,-6.1463,-6.1463,-6.1463,-6.1463,-6.1403,-6.1283,-6.1283,-6.1553,-6.2211,-6.2271,-6.248,-6.3019,-6.26,-6.2271,-6.2271,-6.1792,-6.1433,-6.1283,-6.0805,-6.0416,-6.0116,-5.9608,-5.9327,-5.956,-6.0061,-6.0638,-6.1286,-6.1624,-6.1831,-6.2044,-6.2259,-6.2204,-6.143,-6.1244,-6.0878,-6.0034,-5.9798,-5.9654,-5.9228,-5.9151,-5.9098,-5.8746,-5.8469,-5.8302,-5.7976,-5.7937,-5.7863,-5.7863,-5.7626,-5.7486,-5.7122,-5.6037,-5.49,-5.411,-5.413,-5.4154,-8.0225,-8.0195,-7.9627,-7.9417,-7.9327,-7.816,-7.7352,-7.6784,-7.6066,-7.5437,-7.4869,-7.4869,-7.4869,-7.4869,-7.4869,-7.4869,-7.4869,-7.4869,-7.4869,-7.4869,-7.4869,-7.4869,-7.4869,-7.4869,-7.4869,-7.4869,-7.4869,-7.4839,-7.4749,-7.4749,-7.4689,-7.451,-7.4031,-7.3133,-7.1966,-7.1787,-7.1487,-7.0889,-7.029,-6.9662,-6.9004,-6.8315,-6.7298,-6.5951,-6.5323,-6.4665,-6.3917,-6.3348,-6.3137,-6.3137,-6.3137,-6.3137,-6.3137,-6.2989,-6.2929,-6.2929,-6.2839,-6.281,-6.278,-6.278,-6.281,-6.281,-6.278,-6.257,-6.2002,-6.1942,-6.2211,-6.2869,-6.2899,-6.2959,-6.3049,-6.2989,-6.2957,-6.2929,-6.2839,-6.257,-6.2032,-6.1822,-6.1343,-6.0326,-5.9997,-5.9807,-5.9627,-6.0039,-6.0543,-6.0764,-6.085,-6.0563,-6.0606,-6.121,-6.1428,-6.0918,-6.0684,-6.0114,-5.8974,-5.8638,-5.8327,-5.7539,-5.7348,-5.7183,-5.6711,-5.6472,-5.6311,-5.614,-5.6124,-5.6173,-5.6334,-5.5578,-5.5142,-5.4875,-5.3757,-5.2576,-5.1985,-5.1593,-5.1372,-8.1332,-8.1242,-8.0644,-8.0345,-8.0285,-7.9297,-7.831,-7.7382,-7.7053,-7.6365,-7.5467,-7.5437,-7.5228,-7.4899,-7.4869,-7.4869,-7.4869,-7.4869,-7.4869,-7.4869,-7.4869,-7.4869,-7.4869,-7.4869,-7.4869,-7.4869,-7.4869,-7.4869,-7.4869,-7.4869,-7.4869,-7.4839,-7.421,-7.3582,-7.2984,-7.2265,-7.1727,-7.1427,-7.0799,-6.9991,-6.9034,-6.8675,-6.7717,-6.6041,-6.5383,-6.4695,-6.4006,-6.3408,-6.3137,-6.3137,-6.3137,-6.3137,-6.3137,-6.3137,-6.3137,-6.3137,-6.3137,-6.3137,-6.3137,-6.3137,-6.3137,-6.3137,-6.3137,-6.2959,-6.266,-6.263,-6.275,-6.3049,-6.3137,-6.3137,-6.3137,-6.3137,-6.3137,-6.3137,-6.3137,-6.2959,-6.266,-6.2271,-6.1852,-6.1253,-6.0864,-6.0441,-5.9861,-6.018,-6.0479,-6.0586,-6.0496,-6.0183,-5.9568,-5.9728,-5.9952,-5.9698,-5.9352,-5.8685,-5.7648,-5.7448,-5.7166,-5.6564,-5.6375,-5.602,-5.5466,-5.5213,-5.5131,-5.4975,-5.475,-5.4575,-5.4778,-5.4083,-5.3496,-5.3044,-5.2403,-5.1487,-5.0863,-5.0245,-4.9958,-8.235,-8.217,-8.1512,-8.1063,-8.0734,-8.0105,-7.9208,-7.828,-7.81,-7.7382,-7.6425,-7.6185,-7.5736,-7.5138,-7.5108,-7.5018,-7.4899,-7.4869,-7.4869,-7.4869,-7.4869,-7.4869,-7.4869,-7.4869,-7.4869,-7.4869,-7.4869,-7.4869,-7.4869,-7.4869,-7.4869,-7.4839,-7.436,-7.4061,-7.3881,-7.2714,-7.2056,-7.1846,-7.1248,-7.029,-6.9064,-6.9004,-6.8106,-6.634,-6.5443,-6.4784,-6.4246,-6.3468,-6.3137,-6.3137,-6.3137,-6.3137,-6.3137,-6.3137,-6.3137,-6.3137,-6.3137,-6.3137,-6.3137,-6.3137,-6.3137,-6.3137,-6.3137,-6.3137,-6.3137,-6.3137,-6.3137,-6.3137,-6.3137,-6.3137,-6.3137,-6.3137,-6.3137,-6.3137,-6.3137,-6.3137,-6.3019,-6.263,-6.2211,-6.2061,-6.1613,-6.1044,-6.0411,-6.0361,-6.0341,-6.0043,-6.0147,-5.9807,-5.8956,-5.8402,-5.813,-5.8157,-5.7796,-5.7258,-5.654,-5.6408,-5.6211,-5.5781,-5.5701,-5.5304,-5.4726,-5.4507,-5.4337,-5.4073,-5.366,-5.3477,-5.3378,-5.2812,-5.2235,-5.1887,-5.1173,-5.0421,-4.9708,-4.9172,-4.9044,-8.4085,-8.3487,-8.2828,-8.1871,-8.0794,-8.0135,-7.9746,-7.9507,-7.8968,-7.831,-7.7562,-7.6993,-7.6425,-7.5856,-7.5796,-7.5467,-7.4929,-7.4869,-7.4869,-7.4869,-7.4869,-7.4869,-7.4869,-7.4869,-7.4869,-7.4869,-7.4869,-7.4869,-7.4869,-7.4869,-7.4869,-7.4869,-7.4809,-7.448,-7.3881,-7.3193,-7.2535,-7.1876,-7.1248,-7.026,-6.9093,-6.9004,-6.8315,-6.6939,-6.5682,-6.4934,-6.4874,-6.3737,-6.3137,-6.3137,-6.3137,-6.3137,-6.3137,-6.3137,-6.3137,-6.3137,-6.3137,-6.3137,-6.3137,-6.3137,-6.3137,-6.3137,-6.3137,-6.3137,-6.3137,-6.3137,-6.3137,-6.3137,-6.3137,-6.3137,-6.3137,-6.3137,-6.3137,-6.3137,-6.3137,-6.3137,-6.3137,-6.3019,-6.272,-6.1828,-6.1945,-6.1639,-6.0821,-6.0566,-6.0038,-5.9114,-5.9228,-5.9007,-5.8185,-5.7218,-5.6652,-5.6599,-5.6499,-5.6293,-5.5685,-5.5531,-5.5328,-5.4925,-5.4842,-5.4507,-5.3997,-5.3782,-5.3613,-5.311,-5.2934,-5.2786,-5.2349,-5.1819,-5.1182,-5.0803,-4.9926,-4.8714,-4.8049,-4.7752,-4.8041,-8.5132,-8.4803,-8.3786,-8.2589,-8.1422,-8.1093,-8.0524,-7.9806,-7.9537,-7.9028,-7.84,-7.81,-7.7412,-7.6455,-7.6066,-7.5736,-7.5467,-7.5078,-7.4869,-7.4869,-7.4869,-7.4869,-7.4869,-7.4869,-7.4869,-7.4869,-7.4869,-7.4869,-7.4869,-7.4869,-7.4869,-7.4869,-7.4869,-7.4749,-7.439,-7.3432,-7.2774,-7.2475,-7.1427,-7.029,-6.9153,-6.9004,-6.8375,-6.7029,-6.5712,-6.5024,-6.4904,-6.3767,-6.3137,-6.3137,-6.3137,-6.3137,-6.3137,-6.3137,-6.3137,-6.3137,-6.3137,-6.3137,-6.3137,-6.3137,-6.3137,-6.3137,-6.3137,-6.3137,-6.3137,-6.3137,-6.3137,-6.3137,-6.3137,-6.3137,-6.3137,-6.3137,-6.3137,-6.3137,-6.3137,-6.3137,-6.3137,-6.3137,-6.2929,-6.2543,-6.263,-6.2565,-6.1984,-6.1132,-5.9999,-5.8884,-5.8634,-5.83,-5.7621,-5.6605,-5.5969,-5.5797,-5.5382,-5.4849,-5.4645,-5.4623,-5.4454,-5.4168,-5.3997,-5.3726,-5.329,-5.31,-5.2852,-5.2213,-5.2024,-5.1737,-5.1224,-5.0596,-4.994,-4.9552,-4.8943,-4.788,-4.7495,-4.7352,-4.7608,-8.6,-8.5521,-8.4295,-8.3068,-8.205,-8.1841,-8.1123,-8.0135,-7.9896,-7.9447,-7.8819,-7.8789,-7.828,-7.7352,-7.6724,-7.6275,-7.5886,-7.5377,-7.5048,-7.4899,-7.4869,-7.4869,-7.4869,-7.4869,-7.4869,-7.4869,-7.4869,-7.4869,-7.4869,-7.4869,-7.4869,-7.4869,-7.4869,-7.4779,-7.451,-7.3462,-7.2804,-7.2535,-7.1487,-7.029,-6.9183,-6.9004,-6.8375,-6.7029,-6.5892,-6.5203,-6.5024,-6.3947,-6.3228,-6.3079,-6.3137,-6.3137,-6.3137,-6.3137,-6.3137,-6.3137,-6.3137,-6.3137,-6.3137,-6.3137,-6.3137,-6.3137,-6.3137,-6.3137,-6.3137,-6.3137,-6.3137,-6.3137,-6.3137,-6.3137,-6.3137,-6.3137,-6.3137,-6.3137,-6.3137,-6.3137,-6.3137,-6.3137,-6.3137,-6.3137,-6.3019,-6.2954,-6.2465,-6.1232,-5.9904,-5.8799,-5.8243,-5.7882,-5.717,-5.6268,-5.5446,-5.5446,-5.4465,-5.3944,-5.3947,-5.3777,-5.3659,-5.3377,-5.3201,-5.298,-5.2563,-5.2518,-5.2317,-5.1775,-5.1259,-5.0782,-5.0486,-4.9801,-4.8996,-4.8427,-4.7964,-4.7538,-4.7396,-4.7309,-4.7309,-8.6868,-8.5551,-8.4295,-8.3337,-8.2679,-8.205,-8.1392,-8.0644,-8.0075,-7.9447,-7.8849,-7.8789,-7.8759,-7.8579,-7.7921,-7.7053,-7.6066,-7.5856,-7.5497,-7.4958,-7.4899,-7.4869,-7.4869,-7.4869,-7.4869,-7.4869,-7.4869,-7.4869,-7.4869,-7.4869,-7.4869,-7.4869,-7.4869,-7.4569,-7.4001,-7.3283,-7.2595,-7.1996,-7.1218,-7.026,-6.9183,-6.8974,-6.8315,-6.7089,-6.6311,-6.5652,-6.5024,-6.4336,-6.3677,-6.3166,-6.3137,-6.3137,-6.3137,-6.3137,-6.3137,-6.3137,-6.3137,-6.3137,-6.3137,-6.3137,-6.3137,-6.3137,-6.3137,-6.3137,-6.3137,-6.3137,-6.3137,-6.3137,-6.3137,-6.3137,-6.3137,-6.3137,-6.3137,-6.3137,-6.3137,-6.3137,-6.3137,-6.3137,-6.3137,-6.3137,-6.3137,-6.2657,-6.1433,-6.0565,-5.9771,-5.879,-5.7992,-5.7462,-5.694,-5.5857,-5.5189,-5.4916,-5.4418,-5.3861,-5.3684,-5.3402,-5.2897,-5.2577,-5.2532,-5.2306,-5.2155,-5.1957,-5.1728,-5.1436,-5.1002,-5.0574,-5.0047,-4.9334,-4.8569,-4.8037,-4.7794,-4.7482,-4.7352,-4.7309,-4.7309,-8.627,-8.5013,-8.4115,-8.3367,-8.2709,-8.205,-8.1422,-8.0764,-8.0105,-7.9417,-7.8878,-7.8789,-7.8789,-7.8789,-7.8549,-7.7951,-7.7083,-7.6305,-7.5766,-7.5497,-7.5078,-7.4869,-7.4869,-7.4869,-7.4869,-7.4869,-7.4869,-7.4869,-7.4869,-7.4869,-7.4869,-7.4869,-7.4869,-7.4569,-7.3881,-7.3253,-7.2565,-7.1846,-7.0859,-6.9871,-6.9064,-6.8555,-6.7897,-6.7029,-6.634,-6.5682,-6.5054,-6.4366,-6.3737,-6.3166,-6.3137,-6.3137,-6.3137,-6.3137,-6.3137,-6.3137,-6.3137,-6.3137,-6.3137,-6.3137,-6.3137,-6.3137,-6.3137,-6.3137,-6.3137,-6.3137,-6.3137,-6.3137,-6.3137,-6.3137,-6.3137,-6.3137,-6.3137,-6.3137,-6.3137,-6.3137,-6.3137,-6.3137,-6.3137,-6.3137,-6.3107,-6.257,-6.1523,-6.0894,-6.0261,-5.9087,-5.8278,-5.7693,-5.7054,-5.6263,-5.5571,-5.512,-5.4548,-5.4116,-5.408,-5.3371,-5.278,-5.2292,-5.2017,-5.1926,-5.1787,-5.1741,-5.1561,-5.1228,-5.0831,-5.0506,-4.9996,-4.9316,-4.8516,-4.7994,-4.7718,-4.7559,-4.7309,-4.7339,-4.7339,-8.5731,-8.4684,-8.3995,-8.3217,-8.2439,-8.1961,-8.1272,-8.0494,-8.0016,-7.9447,-7.8878,-7.8789,-7.8789,-7.8789,-7.8789,-7.8579,-7.8041,-7.7023,-7.6305,-7.5886,-7.5437,-7.5078,-7.4899,-7.4869,-7.4869,-7.4869,-7.4869,-7.4869,-7.4869,-7.4869,-7.4869,-7.4869,-7.4869,-7.442,-7.3642,-7.3133,-7.2475,-7.1547,-7.05,-6.9662,-6.9004,-6.8315,-6.7657,-6.7029,-6.655,-6.5892,-6.5084,-6.4575,-6.3917,-6.3228,-6.3137,-6.3137,-6.3137,-6.3137,-6.3137,-6.3137,-6.3137,-6.3137,-6.3137,-6.3137,-6.3137,-6.3137,-6.3137,-6.3137,-6.3137,-6.3137,-6.3137,-6.3137,-6.3137,-6.3137,-6.3137,-6.3137,-6.3137,-6.3137,-6.3137,-6.3137,-6.3137,-6.3137,-6.3137,-6.3137,-6.3137,-6.254,-6.1672,-6.1283,-6.0595,-5.9548,-5.871,-5.7932,-5.7453,-5.6855,-5.6226,-5.5628,-5.5229,-5.469,-5.437,-5.3742,-5.298,-5.245,-5.2057,-5.1797,-5.1509,-5.1509,-5.1405,-5.103,-5.0729,-5.0456,-4.9972,-4.9295,-4.8755,-4.823,-4.7992,-4.7862,-4.7638,-4.7429,-4.7489,-8.5312,-8.4654,-8.3995,-8.2978,-8.1931,-8.1751,-8.1003,-7.9986,-7.9806,-7.9357,-7.8819,-7.8789,-7.8789,-7.8789,-7.8789,-7.8759,-7.8579,-7.7981,-7.7083,-7.6066,-7.5856,-7.5467,-7.4899,-7.4869,-7.4869,-7.4869,-7.4869,-7.4869,-7.4869,-7.4869,-7.4869,-7.4869,-7.4869,-7.424,-7.2954,-7.2894,-7.2265,-7.1128,-7.032,-6.9662,-6.9004,-6.8315,-6.7657,-6.7059,-6.6939,-6.634,-6.5144,-6.5024,-6.4395,-6.3288,-6.3109,-6.3137,-6.3137,-6.3137,-6.3137,-6.3137,-6.3137,-6.3137,-6.3137,-6.3137,-6.3137,-6.3137,-6.3137,-6.3137,-6.3137,-6.3137,-6.3137,-6.3137,-6.3137,-6.3137,-6.3137,-6.3137,-6.3137,-6.3137,-6.3137,-6.3137,-6.3137,-6.3137,-6.3137,-6.3137,-6.3137,-6.281,-6.2181,-6.1583,-6.0924,-6.0027,-5.9069,-5.8261,-5.7992,-5.7453,-5.6885,-5.6346,-5.5897,-5.5448,-5.482,-5.4132,-5.3354,-5.2684,-5.2312,-5.2012,-5.1503,-5.1323,-5.1386,-5.1102,-5.0938,-5.0622,-5.011,-4.9539,-4.9419,-4.8939,-4.861,-4.8297,-4.8207,-4.8057,-4.7788,-8.4893,-8.4564,-8.3517,-8.2589,-8.1751,-8.1302,-8.0584,-7.9806,-7.9327,-7.8998,-7.8819,-7.8789,-7.8789,-7.8789,-7.8789,-7.8789,-7.8759,-7.8519,-7.7771,-7.6634,-7.6125,-7.5557,-7.4988,-7.4869,-7.4869,-7.4869,-7.4869,-7.4869,-7.4869,-7.4869,-7.4869,-7.4869,-7.4869,-7.418,-7.2984,-7.2894,-7.2265,-7.1009,-7.029,-6.9662,-6.9004,-6.8315,-6.7657,-6.7089,-6.6999,-6.658,-6.5772,-6.5263,-6.4635,-6.3737,-6.3288,-6.3137,-6.3137,-6.3137,-6.3137,-6.3137,-6.3137,-6.3137,-6.3137,-6.3137,-6.3137,-6.3137,-6.3137,-6.3137,-6.3137,-6.3137,-6.3137,-6.3137,-6.3137,-6.3137,-6.3137,-6.3137,-6.3137,-6.3137,-6.3137,-6.3137,-6.3137,-6.3137,-6.3137,-6.3137,-6.3137,-6.278,-6.2271,-6.1822,-6.1343,-6.0386,-5.9697,-5.9189,-5.8351,-5.8022,-5.7543,-5.6944,-5.6555,-5.6158,-5.5508,-5.485,-5.4132,-5.3384,-5.2875,-5.2396,-5.1828,-5.1349,-5.1366,-5.1233,-5.1099,-5.0799,-5.0244,-4.9974,-4.9884,-4.9614,-4.9179,-4.903,-4.897,-4.876,-4.8386,-8.4714,-8.4564,-8.3307,-8.223,-8.1422,-8.0943,-8.0255,-7.9447,-7.8998,-7.8789,-7.8789,-7.8789,-7.8789,-7.8789,-7.8789,-7.8789,-7.8789,-7.8789,-7.822,-7.7203,-7.6544,-7.5886,-7.5258,-7.4958,-7.4869,-7.4869,-7.4869,-7.4869,-7.4869,-7.4869,-7.4869,-7.4869,-7.4869,-7.421,-7.3043,-7.2864,-7.2235,-7.1009,-7.029,-6.9782,-6.9273,-6.8435,-6.7777,-6.7388,-6.7119,-6.6789,-6.637,-6.5742,-6.4964,-6.4096,-6.3408,-6.3166,-6.3137,-6.3137,-6.3137,-6.3137,-6.3137,-6.3137,-6.3137,-6.3137,-6.3137,-6.3137,-6.3137,-6.3137,-6.3137,-6.3137,-6.3137,-6.3137,-6.3137,-6.3137,-6.3137,-6.3137,-6.3137,-6.3137,-6.3137,-6.3137,-6.3137,-6.3137,-6.3137,-6.3137,-6.3137,-6.2869,-6.26,-6.2151,-6.1822,-6.0954,-6.0386,-5.9937,-5.9009,-5.865,-5.8141,-5.7573,-5.7004,-5.6555,-5.6166,-5.5568,-5.491,-5.4192,-5.3533,-5.2995,-5.2456,-5.1947,-5.1708,-5.1396,-5.1126,-5.1066,-5.0647,-5.0601,-5.0511,-5.0092,-4.9823,-4.9643,-4.9553,-4.9299,-4.903,-8.4714,-8.4534,-8.3307,-8.202,-8.0943,-8.0823,-8.0075,-7.8938,-7.8789,-7.8789,-7.8789,-7.8789,-7.8789,-7.8789,-7.8789,-7.8789,-7.8789,-7.8789,-7.8519,-7.7801,-7.7083,-7.6365,-7.5617,-7.5108,-7.4869,-7.4869,-7.4869,-7.4869,-7.4869,-7.4869,-7.4869,-7.4869,-7.4839,-7.421,-7.3163,-7.2924,-7.2265,-7.1009,-7.035,-7.0051,-6.9871,-6.8824,-6.8106,-6.8016,-6.7448,-6.7089,-6.6969,-6.6311,-6.5323,-6.4156,-6.3408,-6.3137,-6.3137,-6.3137,-6.3137,-6.3137,-6.3137,-6.3137,-6.3137,-6.3137,-6.3137,-6.3137,-6.3137,-6.3137,-6.3137,-6.3137,-6.3137,-6.3137,-6.3137,-6.3137,-6.3137,-6.3137,-6.3137,-6.3137,-6.3137,-6.3137,-6.3137,-6.3137,-6.3137,-6.3137,-6.3137,-6.3107,-6.2959,-6.251,-6.2211,-6.1762,-6.0924,-6.0266,-5.9787,-5.9279,-5.883,-5.8231,-5.7603,-5.7214,-5.6855,-5.6017,-5.5418,-5.5059,-5.4311,-5.3653,-5.3054,-5.2516,-5.2037,-5.1648,-5.1409,-5.1319,-5.1199,-5.1139,-5.1199,-5.1079,-5.078,-5.0405,-5.0272,-5.0152,-4.9912,-8.4714,-8.4564,-8.3307,-8.202,-8.0883,-8.0823,-8.0045,-7.8878,-7.8819,-7.8819,-7.8789,-7.8789,-7.8789,-7.8789,-7.8789,-7.8789,-7.8789,-7.8789,-7.8729,-7.837,-7.7322,-7.6185,-7.5347,-7.4988,-7.4869,-7.4869,-7.4869,-7.4869,-7.4869,-7.4869,-7.4869,-7.4869,-7.4839,-7.421,-7.3103,-7.2924,-7.2206,-7.1098,-7.0769,-7.041,-6.9991,-6.9662,-6.9213,-6.8704,-6.8076,-6.7747,-6.7597,-6.661,-6.5383,-6.4096,-6.3408,-6.3137,-6.3137,-6.3137,-6.3137,-6.3137,-6.3137,-6.3137,-6.3137,-6.3137,-6.3137,-6.3137,-6.3137,-6.3137,-6.3137,-6.3137,-6.3137,-6.3137,-6.3137,-6.3137,-6.3137,-6.3137,-6.3137,-6.3137,-6.3137,-6.3137,-6.3137,-6.3137,-6.3137,-6.3137,-6.3137,-6.3137,-6.3077,-6.2957,-6.26,-6.2121,-6.1373,-6.0625,-6.0236,-5.9548,-5.8919,-5.88,-5.8321,-5.7962,-5.7453,-5.6555,-5.5957,-5.5807,-5.5149,-5.4311,-5.3683,-5.3025,-5.2576,-5.2157,-5.2037,-5.1947,-5.1708,-5.1528,-5.1678,-5.1947,-5.2037,-5.1858,-5.1708,-5.1558,-5.1199,-8.4714,-8.4594,-8.3307,-8.217,-8.1272,-8.1212,-8.0464,-7.9387,-7.9208,-7.9058,-7.8849,-7.8789,-7.8789,-7.8789,-7.8789,-7.8789,-7.8789,-7.8789,-7.8609,-7.813,-7.7023,-7.5886,-7.5078,-7.4869,-7.4869,-7.4869,-7.4869,-7.4869,-7.4869,-7.4869,-7.4869,-7.4869,-7.4869,-7.418,-7.3013,-7.2864,-7.2235,-7.1158,-7.0889,-7.0709,-7.038,-7.0111,-6.9812,-6.9333,-6.8764,-6.8315,-6.7867,-6.67,-6.5503,-6.4545,-6.3827,-6.3348,-6.3166,-6.3137,-6.3137,-6.3137,-6.3137,-6.3137,-6.3137,-6.3137,-6.3137,-6.3137,-6.3137,-6.3137,-6.3137,-6.3137,-6.3137,-6.3137,-6.3137,-6.3137,-6.3137,-6.3137,-6.3137,-6.3137,-6.3137,-6.3137,-6.3137,-6.3137,-6.3137,-6.3137,-6.3137,-6.3137,-6.3137,-6.3137,-6.2899,-6.245,-6.1672,-6.1074,-6.0565,-5.9727,-5.9099,-5.8949,-5.868,-5.8231,-5.7842,-5.7094,-5.6555,-5.6376,-5.5957,-5.5119,-5.4341,-5.3653,-5.3234,-5.2875,-5.2725,-5.2516,-5.2306,-5.2187,-5.2426,-5.2725,-5.3084,-5.3084,-5.2755,-5.2606,-5.2276,-8.4773,-8.4624,-8.3367,-8.2439,-8.1811,-8.1751,-8.1033,-8.0075,-7.9806,-7.9447,-7.9028,-7.8849,-7.8789,-7.8789,-7.8789,-7.8789,-7.8789,-7.8789,-7.828,-7.7592,-7.6544,-7.5557,-7.4958,-7.4869,-7.4869,-7.4869,-7.4869,-7.4869,-7.4869,-7.4869,-7.4869,-7.4869,-7.4869,-7.421,-7.3313,-7.2984,-7.2235,-7.1308,-7.0949,-7.0889,-7.0739,-7.041,-7.0171,-7.0021,-6.9453,-6.8704,-6.7926,-6.6909,-6.5922,-6.5173,-6.4425,-6.3767,-6.3258,-6.3226,-6.3137,-6.3137,-6.3137,-6.3137,-6.3137,-6.3137,-6.3137,-6.3137,-6.3137,-6.3137,-6.3137,-6.3137,-6.3137,-6.3137,-6.3137,-6.3137,-6.3137,-6.3137,-6.3137,-6.3137,-6.3137,-6.3137,-6.3137,-6.3137,-6.3137,-6.3137,-6.3137,-6.3137,-6.3137,-6.3137,-6.3019,-6.245,-6.1702,-6.1074,-6.0475,-5.9697,-5.9249,-5.9069,-5.874,-5.8351,-5.8022,-5.7663,-5.7274,-5.6944,-5.6555,-5.5897,-5.5059,-5.4401,-5.3952,-5.3623,-5.3384,-5.3174,-5.2965,-5.3025,-5.3234,-5.3414,-5.3683,-5.3563,-5.3324,-5.3294,-5.3114,-8.5162,-8.4654,-8.3876,-8.2858,-8.1871,-8.1751,-8.1332,-8.0584,-8.0045,-7.9776,-7.9477,-7.9028,-7.8789,-7.8789,-7.8789,-7.8789,-7.8729,-7.8609,-7.819,-7.7023,-7.6305,-7.5527,-7.4988,-7.4869,-7.4869,-7.4869,-7.4869,-7.4869,-7.4869,-7.4869,-7.4869,-7.4869,-7.4839,-7.448,-7.3732,-7.3163,-7.2535,-7.1727,-7.1218,-7.1009,-7.0979,-7.0829,-7.0679,-7.062,-7.0051,-6.9153,-6.8196,-6.7717,-6.6999,-6.5862,-6.4755,-6.4066,-6.3707,-6.3348,-6.3139,-6.3137,-6.3137,-6.3137,-6.3137,-6.3137,-6.3137,-6.3137,-6.3137,-6.3137,-6.3137,-6.3137,-6.3137,-6.3137,-6.3137,-6.3137,-6.3137,-6.3137,-6.3137,-6.3137,-6.3137,-6.3137,-6.3137,-6.3137,-6.3137,-6.3137,-6.3137,-6.3137,-6.3107,-6.2989,-6.278,-6.2331,-6.1672,-6.0924,-6.0296,-5.9638,-5.9338,-5.9099,-5.8979,-5.865,-5.8501,-5.8201,-5.7812,-5.7483,-5.7124,-5.6675,-5.5837,-5.5269,-5.485,-5.4431,-5.4042,-5.3832,-5.3683,-5.3773,-5.3982,-5.4162,-5.4281,-5.4192,-5.4102,-5.4042,-5.3803,-8.5492,-8.5073,-8.4145,-8.3337,-8.2709,-8.238,-8.1871,-8.1212,-8.0554,-8.0105,-7.9716,-7.9088,-7.8789,-7.8789,-7.8759,-7.8639,-7.819,-7.7652,-7.7083,-7.6305,-7.5736,-7.5228,-7.4988,-7.4869,-7.4869,-7.4869,-7.4869,-7.4869,-7.4869,-7.4869,-7.4869,-7.4869,-7.4869,-7.451,-7.3971,-7.3522,-7.3043,-7.2475,-7.2056,-7.1727,-7.1427,-7.1368,-7.1128,-7.0859,-7.032,-6.9572,-6.9034,-6.8256,-6.7657,-6.6789,-6.5682,-6.4605,-6.4066,-6.3677,-6.3408,-6.3166,-6.3137,-6.3137,-6.3137,-6.3137,-6.3137,-6.3137,-6.3137,-6.3137,-6.3137,-6.3137,-6.3137,-6.3137,-6.3137,-6.3137,-6.3137,-6.3137,-6.3137,-6.3137,-6.3137,-6.3137,-6.3137,-6.3137,-6.3137,-6.3137,-6.3137,-6.2869,-6.278,-6.269,-6.2271,-6.1702,-6.1074,-6.0386,-6.0206,-5.9638,-5.9308,-5.9099,-5.9099,-5.9009,-5.8979,-5.871,-5.8321,-5.7992,-5.7693,-5.7244,-5.6615,-5.6166,-5.5777,-5.5239,-5.467,-5.461,-5.4491,-5.461,-5.461,-5.473,-5.479,-5.485,-5.482,-5.464,-5.4311,-8.5731,-8.5462,-8.4354,-8.3786,-8.3517,-8.2978,-8.2439,-8.1871,-8.1123,-8.0464,-7.9896,-7.9148,-7.8789,-7.8759,-7.8609,-7.825,-7.7532,-7.6634,-7.6066,-7.5946,-7.5318,-7.4988,-7.4869,-7.4869,-7.4869,-7.4869,-7.4869,-7.4869,-7.4869,-7.4869,-7.4869,-7.4869,-7.4869,-7.4629,-7.418,-7.3881,-7.3582,-7.3103,-7.2804,-7.2535,-7.2056,-7.1906,-7.1487,-7.0919,-7.05,-7.0081,-6.9602,-6.8854,-6.8076,-6.7926,-6.6819,-6.5592,-6.4635,-6.4006,-6.3827,-6.3258,-6.3169,-6.3137,-6.3137,-6.3137,-6.3137,-6.3137,-6.3137,-6.3137,-6.3137,-6.3137,-6.3137,-6.3137,-6.3137,-6.3137,-6.3137,-6.3137,-6.3137,-6.3137,-6.3137,-6.3137,-6.3137,-6.3137,-6.3137,-6.3049,-6.2869,-6.257,-6.2271,-6.2091,-6.1583,-6.1074,-6.0446,-5.9967,-5.9817,-5.9608,-5.9279,-5.9099,-5.9099,-5.9099,-5.9069,-5.9039,-5.868,-5.8501,-5.8201,-5.7842,-5.7423,-5.7124,-5.6645,-5.5777,-5.5329,-5.5209,-5.5059,-5.497,-5.5029,-5.5179,-5.5149,-5.5059,-5.5089,-5.5179,-5.485,-8.5881,-8.4863,-8.4654,-8.3936,-8.3008,-8.2798,-8.2754,-8.2409,-8.1272,-8.0734,-8.0434,-7.9357,-7.8789,-7.8639,-7.816,-7.7622,-7.6933,-7.6155,-7.5826,-7.5707,-7.5198,-7.4869,-7.4869,-7.4869,-7.4869,-7.4869,-7.4869,-7.4869,-7.4869,-7.4869,-7.4869,-7.4869,-7.4869,-7.4749,-7.454,-7.424,-7.3941,-7.3702,-7.3343,-7.3013,-7.2714,-7.2146,-7.1637,-7.1038,-7.0769,-7.047,-6.9961,-6.9273,-6.8585,-6.7986,-6.7238,-6.646,-6.5622,-6.4665,-6.4096,-6.3737,-6.3318,-6.3137,-6.3137,-6.3137,-6.3137,-6.3137,-6.3137,-6.3137,-6.3137,-6.3137,-6.3137,-6.3137,-6.3137,-6.3137,-6.3137,-6.3137,-6.3137,-6.3137,-6.3137,-6.3137,-6.3137,-6.3137,-6.3107,-6.3077,-6.2687,-6.2151,-6.1762,-6.1373,-6.0924,-6.0535,-6.0086,-5.9668,-5.9428,-5.9338,-5.9189,-5.9099,-5.9099,-5.9099,-5.9099,-5.9099,-5.8949,-5.8919,-5.871,-5.8501,-5.8171,-5.8022,-5.7483,-5.6645,-5.5987,-5.5688,-5.5508,-5.5329,-5.5299,-5.5388,-5.5299,-5.5239,-5.5508,-5.5718,-5.5508,-8.5791,-8.5162,-8.4504,-8.3846,-8.3277,-8.2888,-8.2559,-8.214,-8.1242,-8.0614,-8.0075,-7.9238,-7.8579,-7.828,-7.7981,-7.7293,-7.6395,-7.5677,-7.5407,-7.5258,-7.5048,-7.4869,-7.4869,-7.4869,-7.4869,-7.4869,-7.4869,-7.4869,-7.4869,-7.4869,-7.4869,-7.4869,-7.4869,-7.4869,-7.4839,-7.4599,-7.442,-7.427,-7.4061,-7.3732,-7.3343,-7.2475,-7.1727,-7.1457,-7.1068,-7.0739,-7.038,-6.9453,-6.8884,-6.8405,-6.7537,-6.6939,-6.6311,-6.5622,-6.4695,-6.4096,-6.3468,-6.3137,-6.3137,-6.3137,-6.3137,-6.3137,-6.3137,-6.3137,-6.3137,-6.3137,-6.3137,-6.3137,-6.3137,-6.3137,-6.3137,-6.3137,-6.3137,-6.3137,-6.3137,-6.3137,-6.3137,-6.3137,-6.3134,-6.3072,-6.2508,-6.1909,-6.11,-6.071,-6.0236,-5.9937,-5.9668,-5.9398,-5.9129,-5.9099,-5.9099,-5.9099,-5.9099,-5.9099,-5.9099,-5.9099,-5.9099,-5.9099,-5.9069,-5.886,-5.877,-5.856,-5.8141,-5.7513,-5.6915,-5.6286,-5.5837,-5.5598,-5.5598,-5.5628,-5.5718,-5.5867,-5.6107,-5.6196,-5.6047,-8.5551,-8.5222,-8.4175,-8.3666,-8.3457,-8.2828,-8.229,-8.1691,-8.0943,-8.0315,-7.9746,-7.8968,-7.828,-7.7861,-7.7412,-7.6754,-7.5677,-7.5078,-7.4958,-7.4929,-7.4899,-7.4869,-7.4869,-7.4869,-7.4869,-7.4869,-7.4869,-7.4869,-7.4869,-7.4869,-7.4869,-7.4869,-7.4869,-7.4869,-7.4839,-7.4809,-7.4869,-7.4869,-7.4869,-7.454,-7.3762,-7.2774,-7.1996,-7.1816,-7.1248,-7.0889,-7.0739,-6.9662,-6.9064,-6.8585,-6.7807,-6.6969,-6.6879,-6.637,-6.5533,-6.4515,-6.3677,-6.3288,-6.3079,-6.3137,-6.3137,-6.3137,-6.3137,-6.3137,-6.3137,-6.3137,-6.3137,-6.3137,-6.3137,-6.3137,-6.3137,-6.3137,-6.3137,-6.3137,-6.3137,-6.3137,-6.3137,-6.3107,-6.3102,-6.2862,-6.2325,-6.1609,-6.0886,-6.0111,-5.9697,-5.9608,-5.9368,-5.9338,-5.9099,-5.9099,-5.9099,-5.9099,-5.9099,-5.9099,-5.9099,-5.9099,-5.9099,-5.9099,-5.9099,-5.9009,-5.9009,-5.9009,-5.859,-5.8231,-5.7513,-5.6885,-5.6376,-5.6077,-5.6166,-5.6286,-5.6346,-5.6436,-5.6585,-5.6705,-5.6675,-8.5013,-8.3965,-8.3786,-8.3397,-8.2798,-8.217,-8.1871,-8.1572,-8.0464,-7.9896,-7.9567,-7.8549,-7.7921,-7.7502,-7.6574,-7.5736,-7.5168,-7.4958,-7.4869,-7.4869,-7.4869,-7.4869,-7.4869,-7.4869,-7.4869,-7.4869,-7.4869,-7.4869,-7.4869,-7.4869,-7.4869,-7.4869,-7.4869,-7.4869,-7.4869,-7.4869,-7.4869,-7.4869,-7.4869,-7.4569,-7.3941,-7.3163,-7.2505,-7.1936,-7.1308,-7.0919,-7.0739,-6.9722,-6.9034,-6.8854,-6.7717,-6.7059,-6.6879,-6.637,-6.6041,-6.5443,-6.4665,-6.3647,-6.3258,-6.3166,-6.3137,-6.3137,-6.3137,-6.3137,-6.3137,-6.3137,-6.3137,-6.3137,-6.3137,-6.3137,-6.3137,-6.3137,-6.3137,-6.3137,-6.3137,-6.3137,-6.3137,-6.3137,-6.3132,-6.2799,-6.2322,-6.1455,-6.0646,-5.9872,-5.9189,-5.9129,-5.9129,-5.9219,-5.9249,-5.9338,-5.9129,-5.9129,-5.9099,-5.9099,-5.9099,-5.9099,-5.9129,-5.9129,-5.9129,-5.9159,-5.9308,-5.9368,-5.9308,-5.886,-5.8231,-5.7902,-5.7693,-5.7423,-5.7094,-5.6944,-5.7004,-5.7004,-5.7004,-5.7124,-5.7363,-8.3936,-8.359,-8.2918,-8.2469,-8.214,-8.1512,-8.1003,-8.0584,-8.0075,-7.9387,-7.8699,-7.813,-7.7442,-7.6594,-7.5707,-7.5198,-7.4899,-7.4869,-7.4869,-7.4869,-7.4869,-7.4869,-7.4869,-7.4869,-7.4869,-7.4869,-7.4869,-7.4869,-7.4869,-7.4869,-7.4869,-7.4869,-7.4869,-7.4869,-7.4869,-7.4869,-7.4869,-7.4869,-7.4869,-7.4749,-7.427,-7.3492,-7.2774,-7.2415,-7.1457,-7.1009,-7.062,-6.9692,-6.9034,-6.8764,-6.7717,-6.7029,-6.6969,-6.67,-6.643,-6.5892,-6.5144,-6.4306,-6.3707,-6.3288,-6.3109,-6.3137,-6.3137,-6.3137,-6.3137,-6.3137,-6.3137,-6.3137,-6.3137,-6.3137,-6.3137,-6.3137,-6.3137,-6.3137,-6.3137,-6.3137,-6.3137,-6.3137,-6.3074,-6.2682,-6.2348,-6.1631,-6.0946,-6.0381,-5.9877,-5.9787,-5.9967,-6.0206,-6.0086,-5.9967,-5.9608,-5.9129,-5.9129,-5.9099,-5.9099,-5.9099,-5.9159,-5.9159,-5.9159,-5.9279,-5.9638,-5.9727,-5.9757,-6.0027,-5.9967,-5.9608,-5.9159,-5.8291,-5.7513,-5.7543,-5.7693,-5.7752,-5.7842,-5.8171,-5.8351,-8.2709,-8.2888,-8.1931,-8.1542,-8.1482,-8.0823,-8.0195,-7.9597,-7.9357,-7.8567,-7.7629,-7.7039,-7.6353,-7.5518,-7.4922,-7.4585,-7.4594,-7.4731,-7.4731,-7.4731,-7.4869,-7.4869,-7.4869,-7.4869,-7.4869,-7.4869,-7.4869,-7.4869,-7.4869,-7.4869,-7.4869,-7.4869,-7.4869,-7.4869,-7.4869,-7.4869,-7.4869,-7.4869,-7.4869,-7.4839,-7.4629,-7.3762,-7.3193,-7.2595,-7.1876,-7.1068,-7.0739,-6.9692,-6.9034,-6.8764,-6.7717,-6.6999,-6.6969,-6.6909,-6.658,-6.6041,-6.5293,-6.4635,-6.3977,-6.3468,-6.3226,-6.3137,-6.3137,-6.3137,-6.3137,-6.3137,-6.3137,-6.3137,-6.3137,-6.3137,-6.3137,-6.3137,-6.3137,-6.3137,-6.3137,-6.3137,-6.3137,-6.3137,-6.3077,-6.2864,-6.2505,-6.2232,-6.1605,-6.104,-6.0655,-6.0475,-6.0715,-6.1074,-6.0894,-6.0565,-6.0057,-5.9458,-5.9189,-5.9159,-5.9099,-5.9129,-5.9159,-5.9308,-5.9308,-5.9608,-6.0146,-6.0386,-6.0446,-6.0805,-6.1194,-6.0835,-6.0116,-5.8979,-5.7962,-5.8381,-5.871,-5.865,-5.877,-5.9039,-5.9069,-8.1512,-8.0973,-8.0883,-8.0823,-8.0764,-8.0165,-7.9477,-7.8657,-7.8148,-7.7307,-7.6308,-7.5401,-7.4598,-7.4137,-7.4019,-7.3901,-7.3901,-7.4179,-7.4387,-7.4525,-7.4663,-7.4869,-7.4869,-7.4869,-7.4869,-7.4869,-7.4869,-7.4869,-7.4869,-7.4869,-7.4869,-7.4869,-7.4869,-7.4869,-7.4869,-7.4869,-7.4869,-7.4869,-7.4869,-7.4869,-7.4689,-7.4121,-7.3492,-7.2864,-7.2206,-7.1517,-7.0889,-6.9692,-6.9004,-6.8944,-6.7717,-6.7029,-6.6999,-6.6999,-6.667,-6.6041,-6.5383,-6.4725,-6.4066,-6.3468,-6.3196,-6.3137,-6.3137,-6.3137,-6.3137,-6.3137,-6.3137,-6.3137,-6.3137,-6.3137,-6.3137,-6.3137,-6.3137,-6.3137,-6.3137,-6.3137,-6.3137,-6.3137,-6.3077,-6.2987,-6.2747,-6.2505,-6.2415,-6.1909,-6.1373,-6.1164,-6.1313,-6.1702,-6.1253,-6.0894,-6.0416,-5.9877,-5.9428,-5.9219,-5.9129,-5.9189,-5.9428,-5.9757,-5.9907,-6.0356,-6.0894,-6.1044,-6.1134,-6.1373,-6.1642,-6.1373,-6.1104,-6.0266,-5.9697,-5.9697,-5.9668,-5.9308,-5.9069,-5.9069,-5.9099,-7.9664,-7.9367,-7.8346,-7.8404,-7.9172,-7.8298,-7.747,-7.6907,-7.658,-7.5922,-7.4916,-7.3913,-7.3261,-7.3157,-7.334,-7.348,-7.3551,-7.404,-7.4248,-7.4456,-7.4663,-7.4869,-7.4869,-7.4869,-7.4869,-7.4869,-7.4869,-7.4869,-7.4869,-7.4869,-7.4869,-7.4869,-7.4869,-7.4869,-7.4869,-7.4869,-7.4869,-7.4869,-7.4869,-7.4869,-7.4749,-7.424,-7.3582,-7.2924,-7.2235,-7.1577,-7.0829,-6.9662,-6.9183,-6.8675,-6.7657,-6.7208,-6.6999,-6.6999,-6.661,-6.6011,-6.5353,-6.4695,-6.4006,-6.3438,-6.3166,-6.3137,-6.3137,-6.3137,-6.3137,-6.3137,-6.3137,-6.3137,-6.3137,-6.3137,-6.3137,-6.3137,-6.3137,-6.3137,-6.3137,-6.3137,-6.3137,-6.3137,-6.3137,-6.3047,-6.3017,-6.2867,-6.2837,-6.2807,-6.2328,-6.1882,-6.2091,-6.2151,-6.1762,-6.1343,-6.0924,-6.0446,-5.9997,-5.9578,-5.9458,-5.9608,-5.9787,-6.0176,-6.0535,-6.1044,-6.1553,-6.1672,-6.1792,-6.2002,-6.2211,-6.2181,-6.2002,-6.1672,-6.1253,-6.0775,-6.0176,-5.9608,-5.9398,-5.9189,-5.9099,-7.7768,-7.7254,-7.5859,-7.6227,-7.7386,-7.6504,-7.5712,-7.5112,-7.5125,-7.4385,-7.3341,-7.2374,-7.1956,-7.2172,-7.2316,-7.2673,-7.2957,-7.3551,-7.397,-7.4248,-7.4594,-7.4869,-7.4869,-7.4869,-7.4869,-7.4869,-7.4869,-7.4869,-7.4869,-7.4869,-7.4869,-7.4869,-7.4869,-7.4869,-7.4869,-7.4869,-7.4869,-7.4869,-7.4869,-7.4869,-7.4779,-7.445,-7.3702,-7.3073,-7.2445,-7.1757,-7.0859,-6.9752,-6.9093,-6.8585,-6.7867,-6.7119,-6.6999,-6.6879,-6.652,-6.5892,-6.5263,-6.4635,-6.3857,-6.3408,-6.3137,-6.3137,-6.3137,-6.3137,-6.3137,-6.3137,-6.3137,-6.3137,-6.3137,-6.3137,-6.3137,-6.3137,-6.3137,-6.3137,-6.3137,-6.3137,-6.3137,-6.3137,-6.3137,-6.3107,-6.3077,-6.3077,-6.3047,-6.3017,-6.2837,-6.2421,-6.254,-6.26,-6.2421,-6.2002,-6.1583,-6.1134,-6.0655,-6.0236,-5.9877,-6.0176,-6.0535,-6.1014,-6.1373,-6.1732,-6.2091,-6.2241,-6.2391,-6.257,-6.278,-6.3077,-6.2867,-6.2361,-6.1942,-6.1523,-6.0775,-5.9967,-5.9638,-5.9428,-5.9159,-7.5782,-7.4605,-7.381,-7.4452,-7.5699,-7.5028,-7.4169,-7.3545,-7.3415,-7.2735,-7.152,-7.0645,-7.0526,-7.082,-7.104,-7.1478,-7.2244,-7.2957,-7.3521,-7.397,-7.4594,-7.48,-7.4869,-7.4869,-7.4869,-7.4869,-7.4869,-7.4869,-7.4869,-7.4869,-7.4869,-7.4869,-7.4869,-7.4869,-7.4869,-7.4869,-7.4869,-7.4869,-7.4869,-7.4869,-7.4839,-7.4749,-7.4061,-7.3163,-7.2804,-7.2146,-7.0919,-6.9692,-6.9064,-6.8794,-6.7717,-6.7059,-6.6999,-6.6999,-6.64,-6.5263,-6.5114,-6.4425,-6.3288,-6.3139,-6.3079,-6.3137,-6.3137,-6.3137,-6.3137,-6.3137,-6.3137,-6.3137,-6.3137,-6.3137,-6.3137,-6.3137,-6.3137,-6.3137,-6.3137,-6.3137,-6.3137,-6.3137,-6.3137,-6.3137,-6.3137,-6.3137,-6.3137,-6.3137,-6.3107,-6.3047,-6.3107,-6.2989,-6.2839,-6.26,-6.2151,-6.1702,-6.1224,-6.0894,-6.0625,-6.0894,-6.1253,-6.1762,-6.2121,-6.2391,-6.26,-6.272,-6.2899,-6.3137,-6.3137,-6.3137,-6.3137,-6.3047,-6.257,-6.2032,-6.1074,-6.0326,-5.9997,-5.9787,-5.9697,-7.3406,-7.2904,-7.1653,-7.1521,-7.2039,-7.2318,-7.1966,-7.141,-7.0854,-7.0296,-6.9784,-6.9033,-6.8958,-6.9334,-7.0007,-7.0526,-7.1405,-7.2744,-7.3381,-7.3831,-7.4525,-7.48,-7.4869,-7.4869,-7.4869,-7.4869,-7.4869,-7.4869,-7.4869,-7.4869,-7.4869,-7.4869,-7.4869,-7.4869,-7.4869,-7.4869,-7.4869,-7.4869,-7.4869,-7.4869,-7.4869,-7.4809,-7.427,-7.3013,-7.2924,-7.2235,-7.0949,-6.9692,-6.9123,-6.8884,-6.7747,-6.7089,-6.6999,-6.6999,-6.637,-6.5353,-6.4994,-6.4425,-6.3468,-6.3137,-6.3137,-6.3137,-6.3137,-6.3137,-6.3137,-6.3137,-6.3137,-6.3137,-6.3137,-6.3137,-6.3137,-6.3137,-6.3137,-6.3137,-6.3137,-6.3137,-6.3137,-6.3137,-6.3137,-6.3137,-6.3137,-6.3137,-6.3137,-6.3137,-6.3137,-6.3137,-6.3137,-6.3137,-6.2959,-6.2899,-6.263,-6.2181,-6.1762,-6.1493,-6.1373,-6.1613,-6.1732,-6.2061,-6.245,-6.281,-6.3077,-6.3137,-6.3137,-6.3137,-6.3137,-6.3137,-6.3137,-6.3137,-6.3047,-6.251,-6.1702,-6.1044,-6.0745,-6.0655,-6.0655,-7.0922,-7.0547,-6.9341,-6.887,-6.8946,-6.9709,-6.9818,-6.9362,-6.8627,-6.8247,-6.8094,-6.7557,-6.7557,-6.8171,-6.893,-7.0007,-7.0967,-7.2316,-7.3381,-7.3831,-7.4525,-7.48,-7.4869,-7.4869,-7.4869,-7.4869,-7.4869,-7.4869,-7.4869,-7.4869,-7.4869,-7.4869,-7.4869,-7.4869,-7.4869,-7.4869,-7.4869,-7.4869,-7.4869,-7.4869,-7.4869,-7.4719,-7.424,-7.3313,-7.2744,-7.2295,-7.1009,-7.0021,-6.9213,-6.8764,-6.8046,-6.7208,-6.7089,-6.6849,-6.6311,-6.5443,-6.4425,-6.3947,-6.3288,-6.3137,-6.3137,-6.3137,-6.3137,-6.3137,-6.3137,-6.3137,-6.3137,-6.3137,-6.3137,-6.3137,-6.3137,-6.3137,-6.3137,-6.3137,-6.3137,-6.3137,-6.3137,-6.3137,-6.3137,-6.3137,-6.3137,-6.3137,-6.3137,-6.3137,-6.3137,-6.3137,-6.3137,-6.3137,-6.3137,-6.3019,-6.2989,-6.263,-6.2391,-6.2211,-6.2151,-6.2271,-6.2391,-6.2421,-6.272,-6.3107,-6.3137,-6.3137,-6.3137,-6.3137,-6.3137,-6.3137,-6.3137,-6.3107,-6.3077,-6.2959,-6.263,-6.2032,-6.1553,-6.1373,-6.1313,-6.833,-6.7765,-6.6912,-6.6628,-6.6706,-6.7457,-6.7765,-6.7738,-6.6912,-6.6601,-6.6523,-6.6211,-6.6445,-6.7222,-6.8094,-6.9382,-7.0894,-7.2129,-7.3057,-7.3831,-7.4525,-7.4731,-7.4869,-7.4869,-7.4869,-7.4869,-7.4869,-7.4869,-7.4869,-7.4869,-7.4869,-7.4869,-7.4869,-7.4869,-7.4869,-7.4869,-7.4869,-7.4869,-7.4869,-7.4869,-7.4869,-7.4839,-7.4121,-7.3313,-7.2804,-7.2146,-7.1128,-7.0201,-6.9572,-6.8974,-6.8286,-6.7627,-6.7238,-6.6999,-6.6161,-6.5144,-6.3917,-6.3348,-6.3166,-6.3137,-6.3137,-6.3137,-6.3137,-6.3137,-6.3137,-6.3137,-6.3137,-6.3137,-6.3137,-6.3137,-6.3137,-6.3137,-6.3137,-6.3137,-6.3137,-6.3137,-6.3137,-6.3137,-6.3137,-6.3137,-6.3137,-6.3137,-6.3137,-6.3137,-6.3137,-6.3137,-6.3137,-6.3137,-6.3137,-6.3137,-6.3107,-6.3077,-6.2869,-6.3017,-6.2929,-6.278,-6.278,-6.272,-6.2839,-6.3137,-6.3137,-6.3137,-6.3137,-6.3137,-6.3137,-6.3137,-6.3137,-6.3137,-6.3137,-6.2989,-6.2899,-6.272,-6.2151,-6.1822,-6.1672,-6.6239,-6.608,-6.545,-6.5292,-6.5212,-6.5238,-6.5555,-6.6002,-6.5529,-6.5265,-6.5292,-6.5133,-6.5608,-6.6445,-6.7584,-6.9005,-7.0498,-7.1913,-7.2986,-7.3831,-7.4525,-7.48,-7.4869,-7.4869,-7.4869,-7.4869,-7.4869,-7.4869,-7.4869,-7.4869,-7.4869,-7.4869,-7.4869,-7.4869,-7.4869,-7.4869,-7.4869,-7.4869,-7.4869,-7.4869,-7.4839,-7.4839,-7.4001,-7.3283,-7.2834,-7.2086,-7.1098,-7.038,-6.9722,-6.9034,-6.8345,-6.7687,-6.7059,-6.6939,-6.64,-6.5114,-6.3947,-6.3137,-6.3137,-6.3137,-6.3137,-6.3137,-6.3137,-6.3137,-6.3137,-6.3137,-6.3137,-6.3137,-6.3137,-6.3137,-6.3137,-6.3137,-6.3137,-6.3137,-6.3137,-6.3137,-6.3137,-6.3137,-6.3137,-6.3137,-6.3137,-6.3137,-6.3137,-6.3137,-6.3137,-6.3137,-6.3137,-6.3137,-6.3137,-6.3137,-6.3137,-6.3137,-6.3137,-6.3137,-6.3137,-6.2959,-6.3077,-6.3107,-6.3137,-6.3137,-6.3137,-6.3137,-6.3137,-6.3137,-6.3137,-6.3137,-6.3137,-6.3137,-6.3137,-6.3137,-6.3019,-6.2929,-6.278,-6.2421,-6.2241,-6.492,-6.484,-6.4415,-6.4094,-6.3933,-6.3716,-6.3958,-6.428,-6.4254,-6.4177,-6.4185,-6.4293,-6.4822,-6.5703,-6.7246,-6.8919,-7.0469,-7.2128,-7.3269,-7.404,-7.4594,-7.48,-7.4869,-7.4869,-7.4869,-7.4869,-7.4869,-7.4869,-7.4869,-7.4869,-7.4869,-7.4869,-7.4869,-7.4869,-7.4869,-7.4869,-7.4869,-7.4869,-7.4869,-7.4869,-7.4809,-7.4629,-7.3821,-7.3133,-7.2774,-7.1906,-7.1068,-7.044,-6.9901,-6.9183,-6.8495,-6.7897,-6.7178,-6.6729,-6.6221,-6.5024,-6.4156,-6.3408,-6.3169,-6.3137,-6.3137,-6.3137,-6.3137,-6.3137,-6.3137,-6.3137,-6.3137,-6.3137,-6.3137,-6.3137,-6.3137,-6.3137,-6.3137,-6.3137,-6.3137,-6.3137,-6.3137,-6.3137,-6.3137,-6.3137,-6.3137,-6.3137,-6.3137,-6.3137,-6.3137,-6.3137,-6.3137,-6.3137,-6.3137,-6.3137,-6.3137,-6.3137,-6.3137,-6.3137,-6.3137,-6.3137,-6.3137,-6.3137,-6.3137,-6.3137,-6.3137,-6.3137,-6.3137,-6.3137,-6.3137,-6.3137,-6.3137,-6.3137,-6.3137,-6.3137,-6.3137,-6.3077,-6.2989,-6.2899,-6.281,-6.3958,-6.3958,-6.3635,-6.323,-6.2822,-6.2772,-6.2803,-6.2747,-6.3109,-6.3334,-6.3351,-6.3592,-6.4168,-6.5269,-6.7108,-6.8993,-7.0605,-7.224,-7.3451,-7.4318,-7.4663,-7.4869,-7.4869,-7.4869,-7.4869,-7.4869,-7.4869,-7.4869,-7.4869,-7.4869,-7.4869,-7.4869,-7.4869,-7.4869,-7.4869,-7.4869,-7.4869,-7.4869,-7.4869,-7.4869,-7.4689,-7.427,-7.3582,-7.2924,-7.2325,-7.1607,-7.1098,-7.0679,-7.032,-6.9453,-6.8824,-6.8256,-6.7268,-6.6251,-6.5592,-6.4994,-6.4156,-6.3558,-6.3169,-6.3137,-6.3137,-6.3137,-6.3137,-6.3137,-6.3137,-6.3137,-6.3137,-6.3137,-6.3137,-6.3137,-6.3137,-6.3137,-6.3137,-6.3137,-6.3137,-6.3137,-6.3137,-6.3137,-6.3137,-6.3137,-6.3137,-6.3137,-6.3137,-6.3137,-6.3137,-6.3137,-6.3137,-6.3137,-6.3137,-6.3137,-6.3137,-6.3137,-6.3137,-6.3137,-6.3137,-6.3137,-6.3137,-6.3137,-6.3137,-6.3137,-6.3137,-6.3137,-6.3137,-6.3137,-6.3137,-6.3137,-6.3137,-6.3137,-6.3137,-6.3137,-6.3137,-6.3137,-6.3137,-6.3137,-6.3137,-6.3067,-6.3067,-6.2985,-6.2904,-6.2772,-6.237,-6.2195,-6.2144,-6.1823,-6.2143,-6.2774,-6.3127,-6.3801,-6.4968,-6.7161,-6.909,-7.0636,-7.2366,-7.3533,-7.4248,-7.4731,-7.4869,-7.4869,-7.4869,-7.4869,-7.4869,-7.4869,-7.4869,-7.4869,-7.4869,-7.4869,-7.4869,-7.4869,-7.4869,-7.4869,-7.4869,-7.4869,-7.4869,-7.4869,-7.4839,-7.4591,-7.421,-7.3582,-7.2894,-7.2235,-7.1482,-7.1033,-7.0859,-7.0141,-6.9273,-6.9064,-6.8256,-6.7089,-6.5951,-6.5293,-6.4874,-6.4036,-6.3468,-6.3169,-6.3137,-6.3137,-6.3137,-6.3137,-6.3137,-6.3137,-6.3137,-6.3137,-6.3137,-6.3137,-6.3137,-6.3137,-6.3137,-6.3137,-6.3137,-6.3137,-6.3137,-6.3137,-6.3137,-6.3137,-6.3137,-6.3137,-6.3137,-6.3137,-6.3137,-6.3137,-6.3137,-6.3137,-6.3137,-6.3137,-6.3137,-6.3137,-6.3137,-6.3137,-6.3137,-6.3137,-6.3137,-6.3137,-6.3137,-6.3137,-6.3137,-6.3137,-6.3137,-6.3137,-6.3137,-6.3137,-6.3137,-6.3137,-6.3137,-6.3137,-6.3137,-6.3137,-6.3137,-6.3137,-6.3137,-6.3137,-6.2094,-6.2094,-6.2094,-6.2094,-6.2044,-6.1768,-6.1642,-6.1542,-6.1303,-6.1621,-6.2401,-6.2819,-6.3531,-6.491,-6.7166,-6.9145,-7.0777,-7.2578,-7.3782,-7.4525,-7.4731,-7.4869,-7.4869,-7.4869,-7.4869,-7.4869,-7.4869,-7.4869,-7.48,-7.4869,-7.4869,-7.4869,-7.4869,-7.4869,-7.4869,-7.4869,-7.4869,-7.4869,-7.4869,-7.4681,-7.4373,-7.3648,-7.3171,-7.2477,-7.1695,-7.104,-7.0867,-7.0634,-7.0012,-6.903,-6.8435,-6.7867,-6.6909,-6.6101,-6.5413,-6.4874,-6.4186,-6.3378,-6.3169,-6.3137,-6.3137,-6.3137,-6.3137,-6.3137,-6.3137,-6.3137,-6.3137,-6.3137,-6.3137,-6.3137,-6.3137,-6.3137,-6.3137,-6.3137,-6.3137,-6.3137,-6.3137,-6.3137,-6.3137,-6.3137,-6.3137,-6.3137,-6.3137,-6.3137,-6.3137,-6.3137,-6.3137,-6.3137,-6.3137,-6.3137,-6.3137,-6.3137,-6.3137,-6.3137,-6.3137,-6.3137,-6.3137,-6.3137,-6.3137,-6.3137,-6.3137,-6.3137,-6.3137,-6.3137,-6.3137,-6.3137,-6.3137,-6.3137,-6.3137,-6.3137,-6.3137,-6.3137,-6.3137,-6.3137,-6.3137,-6.1215,-6.119,-6.1215,-6.119,-6.1165,-6.109,-6.1065,-6.1043,-6.0958,-6.1325,-6.2172,-6.2759,-6.3495,-6.5072,-6.7301,-6.9166,-7.1022,-7.2981,-7.413,-7.4663,-7.4869,-7.4869,-7.4869,-7.4869,-7.48,-7.48,-7.4731,-7.4663,-7.4594,-7.4594,-7.4594,-7.4731,-7.4731,-7.4731,-7.4731,-7.48,-7.4731,-7.4663,-7.4534,-7.4296,-7.3593,-7.2773,-7.2446,-7.1718,-7.0874,-7.0127,-7.0265,-7.0254,-6.9849,-6.8874,-6.7864,-6.7328,-6.6759,-6.6101,-6.5533,-6.4904,-6.4126,-6.3498,-6.3199,-6.3137,-6.3137,-6.3137,-6.3137,-6.3137,-6.3137,-6.3137,-6.3137,-6.3137,-6.3137,-6.3137,-6.3137,-6.3137,-6.3137,-6.3137,-6.3137,-6.3137,-6.3137,-6.3137,-6.3137,-6.3137,-6.3137,-6.3137,-6.3137,-6.3137,-6.3137,-6.3137,-6.3137,-6.3137,-6.3137,-6.3137,-6.3137,-6.3137,-6.3137,-6.3137,-6.3137,-6.3137,-6.3137,-6.3137,-6.3137,-6.3137,-6.3137,-6.3137,-6.3137,-6.3137,-6.3137,-6.3137,-6.3137,-6.3137,-6.3137,-6.3137,-6.3137,-6.3137,-6.3137,-6.3137,-6.3137,-6.119,-6.119,-6.119,-6.1165,-6.109,-6.0688,-6.0487,-6.0465,-6.0376,-6.0737,-6.1832,-6.3152,-6.4311,-6.5347,-6.8145,-7.0086,-7.1411,-7.33,-7.4268,-7.48,-7.4869,-7.4869,-7.4869,-7.48,-7.4663,-7.4525,-7.4387,-7.4248,-7.411,-7.404,-7.397,-7.397,-7.397,-7.404,-7.407,-7.411,-7.4248,-7.4179,-7.4219,-7.3971,-7.3448,-7.2669,-7.1947,-7.1162,-7.0378,-7.0054,-7.0068,-7.0265,-6.9595,-6.8623,-6.762,-6.7055,-6.6609,-6.6011,-6.5353,-6.4904,-6.4096,-6.3468,-6.3169,-6.3137,-6.3137,-6.3137,-6.3137,-6.3137,-6.3137,-6.3137,-6.3137,-6.3137,-6.3137,-6.3137,-6.3137,-6.3137,-6.3137,-6.3137,-6.3137,-6.3137,-6.3137,-6.3137,-6.3137,-6.3137,-6.3137,-6.3137,-6.3137,-6.3137,-6.3137,-6.3137,-6.3137,-6.3137,-6.3137,-6.3137,-6.3137,-6.3137,-6.3137,-6.3137,-6.3137,-6.3137,-6.3137,-6.3137,-6.3137,-6.3137,-6.3137,-6.3137,-6.3137,-6.3137,-6.3137,-6.3137,-6.3137,-6.3137,-6.3137,-6.3137,-6.3137,-6.3137,-6.3137,-6.3137,-6.3137]},{"header":{"parameterUnit":"m.s-1","parameterCategory":1,"la1":31.0,"la2":29.5877,"lo1":-88.7671,"lo2":-86.6584,"dy":0.0162,"dx":0.0185,"nx":115,"ny":88,"refTime":"2023-03-12T06:00:00:Z","depth":0,"parameterNumber":3,"parameterNumberName":"V-component_of_WINDS"},"data":[0.0,0.0,0.0,0.0,0.0,0.0,0.0,0.0,0.0,0.0,0.0,0.0,0.0,0.0,0.0,0.0,0.0,0.0,0.0,0.0,0.0,0.0,0.0,0.0,0.0,0.0,0.0,0.0,0.0,0.0,0.0,0.0,0.0,0.0,0.0,0.0,0.0,0.0,0.0,0.0,0.0,0.0,0.0,0.0,0.0,0.0,0.0,0.0,0.0,0.0,0.0,0.0,0.0,0.0,0.0,0.0,0.0,0.0,0.0,0.0,0.0,0.0,0.0,0.0,0.0,0.0,0.0,0.0,0.0,0.0,0.0,0.0,0.0,0.0,0.0,0.0,0.0,0.0,0.0,0.0,0.0,0.0,0.0,0.0,0.0,0.0,0.0,0.0,0.0,0.0,0.0,0.0,0.0,0.0,0.0,0.0,0.0,0.0,0.0,0.0,0.0,0.0,0.0,0.0,0.0,0.0,0.0,0.0,0.0,0.0,0.0,0.0,0.0,0.0,0.0,0.0,0.0,0.0,0.0,0.0,0.0,0.0,0.0,0.0,0.0,0.0,0.0,0.0,0.0,0.0,0.0,0.0,0.0,0.0,0.0,0.0,0.0,0.0,0.0,0.0,0.0,0.0,0.0,0.0,0.0,0.0,0.0,0.0,0.0,0.0,0.0,0.0,0.0,0.0,0.0,0.0,0.0,0.0,0.0,0.0,0.0,0.0,0.0,0.0,0.0,0.0,0.0,0.0,0.0,0.0,0.0,0.0,0.0,0.0,0.0,0.0,0.0,0.0,0.0,0.0,0.0,0.0,0.0,0.0,0.0,0.0,0.0,0.0,0.0,0.0,0.0,0.0,0.0,0.0,0.0,0.0,0.0,0.0,0.0,0.0,0.0,0.0,0.0,0.0,0.0,0.0,0.0,0.0,0.0,0.0,0.0,0.0,0.0,0.0,0.0,0.0,0.0,0.0,0.0,0.0,0.0,0.0,0.0,0.0,0.0,0.0,0.0,0.0,0.0,0.0,0.0,0.0,0.0,0.0,0.0,0.0,0.0,0.0,0.0,0.0,0.0,0.0,0.0,0.0,0.0,0.0,0.0,0.0,0.0,0.0,0.0,0.0,0.0,0.0,0.0,0.0,0.0,0.0,0.0,0.0,0.0,0.0,0.0,0.0,0.0,0.0,0.0,0.0,0.0,0.0,0.0,0.0,0.0,0.0,0.0,0.0,0.0,0.0,0.0,0.0,0.0,0.0,0.0,0.0,0.0,0.0,0.0,0.0,0.0,0.0,0.0,0.0,0.0,0.0,0.0,0.0,0.0,0.0,0.0,0.0,0.0,0.0,0.0,0.0,0.0,0.0,0.0,0.0,0.0,0.0,0.0,0.0,0.0,0.0,0.0,0.0,0.0,0.0,0.0,0.0,0.0,0.0,0.0,0.0,0.0,0.0,0.0,0.0,0.0,0.0,0.0,0.0,0.0,0.0,0.0,0.0,0.0,0.0,0.0,0.0,0.0,0.0,0.0,0.0,0.0,0.0,0.0,0.0,0.0,0.0,0.0,0.0,0.0,0.0,0.0,0.0,0.0,0.0,0.0,0.0,0.0,0.0,0.0,0.0,0.0,0.0,0.0,0.0,0.0,0.0,0.0,0.0,0.0,0.0,0.0,0.0,0.0,0.0,0.0,0.0,0.0,0.0,0.0,0.0,0.0,0.0,0.0,0.0,0.0,0.0,0.0,0.0,0.0,0.0,0.0,0.0,0.0,0.0,0.0,0.0,0.0,0.0,0.0,0.0,0.0,0.0,0.0,0.0,0.0,0.0,0.0,0.0,0.0,0.0,0.0,0.0,0.0,0.0,0.0,0.0,0.0,0.0,0.0,0.0,0.0,0.0,0.0,0.0,0.0,0.0,0.0,0.0,0.0,0.0,0.0,0.0,0.0,0.0,0.0,0.0,0.0,0.0,0.0,0.0,0.0,0.0,0.0,0.0,0.0,0.0,0.0,0.0,0.0,0.0,0.0,0.0,0.0,0.0,0.0,0.0,0.0,0.0,0.0,0.0,0.0,0.0,0.0,0.0,0.0,0.0,0.0,0.0,0.0,0.0,0.0,0.0,0.0,0.0,0.0,0.0,0.0,0.0,0.0,0.0,0.0,0.0,0.0,0.0,0.0,0.0,0.0,0.0,0.0,0.0,0.0,0.0,0.0,0.0,0.0,0.0,0.0,0.0,0.0,0.0,0.0,0.0,0.0,0.0,0.0,0.0,0.0,0.0,0.0,0.0,0.0,0.0,0.0,0.0,0.0,0.0,0.0,0.0,0.0,0.0,0.0,0.0,0.0,0.0,0.0,0.0,0.0,0.0,0.0,0.0,0.0,0.0,0.0,0.0,0.0,0.0,0.0,0.0,0.0,0.0,0.0,0.0,0.0,0.0,0.0,0.0,0.0,0.0,0.0,0.0,0.0,0.0,0.0,0.0,0.0,0.0,0.0,0.0,0.0,0.0,0.0,0.0,0.0,0.0,0.0,0.0,0.0,0.0,0.0,0.0,0.0,0.0,0.0,0.0,0.0,0.0,0.0,0.0,0.0,0.0,0.0,0.0,0.0,0.0,0.0,0.0,0.0,0.0,0.0,0.0,0.0,0.0,0.0,0.0,0.0,0.0,0.0,0.0,0.0,0.0,0.0,0.0,0.0,0.0,0.0,0.0,0.0,0.0,0.0,0.0,0.0,0.0,0.0,0.0,0.0,0.0,0.0,0.0,0.0,0.0,0.0,0.0,0.0,0.0,0.0,0.0,0.0,0.0,0.0,0.0,0.0,0.0,0.0,0.0,0.0,0.0,0.0,0.0,0.0,0.0,0.0,0.0,0.0,0.0,0.0,0.0,0.0,0.0,0.0,0.0,0.0,0.0,0.0,0.0,0.0,0.0,0.0,0.0,0.0,0.0,0.0,0.0,0.0,0.0,0.0,0.0,0.0,0.0,0.0,0.0,0.0,0.0,0.0,0.0,0.0,0.0,0.0,0.0,0.0,0.0,0.0,0.0,0.0,0.0,0.0,0.0,0.0,0.0,0.0,0.0,0.0,0.0,0.0,0.0,0.0,0.0,0.0,0.0,0.0,0.0,0.0,0.0,0.0,0.0,0.0,0.0,0.0,0.0,0.0,0.0,0.0,0.0,0.0,0.0,0.0,0.0,0.0,0.0,0.0,0.0,0.0,0.0,0.0,0.0,0.0,0.0,0.0,0.0,0.0,0.0,0.0,0.0,0.0,0.0,0.0,0.0,0.0,0.0,0.0,0.0,0.0,0.0,0.0,0.0,0.0,0.0,0.0,0.0,0.0,0.0,0.0,0.0,0.0,0.0,0.0,0.0,0.0,0.0,0.0,0.0,0.0,0.0,0.0,0.0,0.0,0.0,0.0,0.0,0.0,0.0,0.0,0.0,0.0,0.0,0.0,0.0,0.0,0.0,0.0,0.0,0.0,0.0,0.0,0.0,0.0,0.0,0.0,0.0,0.0,0.0,0.0,0.0,0.0,0.0,0.0,0.0,0.0,0.0,0.0,0.0,0.0,0.0,0.0,0.0,0.0,0.0,0.0,0.0,0.0,0.0,0.0,0.0,0.0,0.0,0.0,0.0,0.0,0.0,0.0,0.0,0.0,0.0,0.0,0.0,0.0,0.0,0.0,0.0,0.0,0.0,0.0,0.0,0.0,0.0,0.0,0.0,0.0,0.0,0.0,0.0,0.0,0.0,0.0,0.0,0.0,0.0,0.0,0.0,0.0,0.0,0.0,0.0,0.0,0.0,0.0,0.0,0.0,0.0,0.0,0.0,0.0,0.0,0.0,0.0,0.0,0.0,0.0,0.0,0.0,0.0,0.0,0.0,0.0,0.0,0.0,0.0,0.0,0.0,0.0,0.0,0.0,0.0,0.0,0.0,0.0,0.0,0.0,0.0,0.0,0.0,0.0,0.0,0.0,0.0,0.0,0.0,0.0,0.0,0.0,0.0,0.0,0.0,0.0,0.0,0.0,0.0,0.0,0.0,0.0,0.0,0.0,0.0,0.0,0.0,0.0,0.0,0.0,0.0,0.0,0.0,0.0,0.0,0.0,0.0,0.0,0.0,0.0,0.0,0.0,0.0,0.0,0.0,0.0,0.0,0.0,0.0,0.0,0.0,0.0,0.0,0.0,0.0,0.0,0.0,0.0,0.0,0.0,0.0,0.0,0.0,0.0,0.0,0.0,0.0,0.0,0.0,0.0,0.0,-1.9039,0.0,0.0,0.0,-1.7159,0.0,0.0,0.0,0.0,0.0,0.0,0.0,0.0,0.0,0.0,0.0,0.0,0.0,0.0,0.0,0.0,0.0,0.0,0.0,0.0,0.0,0.0,0.0,0.0,0.0,0.0,0.0,0.0,0.0,0.0,0.0,0.0,0.0,0.0,0.0,0.0,0.0,0.0,0.0,0.0,0.0,0.0,0.0,0.0,0.0,0.0,0.0,0.0,0.0,0.0,0.0,0.0,0.0,0.0,0.0,0.0,0.0,0.0,0.0,0.0,0.0,0.0,0.0,0.0,0.0,0.0,0.0,0.0,0.0,0.0,0.0,0.0,0.0,0.0,0.0,0.0,0.0,0.0,0.0,0.0,0.0,0.0,0.0,0.0,0.0,0.0,0.0,0.0,0.0,0.0,0.0,0.0,0.0,0.0,0.0,0.0,0.0,0.0,0.0,0.0,0.0,0.0,0.0,0.0,0.0,0.0,0.0,0.0,0.0,0.0,-1.8328,-1.7369,-1.6728,-1.6401,-1.6414,0.0,0.0,0.0,0.0,0.0,0.0,0.0,0.0,0.0,0.0,0.0,0.0,0.0,0.0,0.0,0.0,0.0,0.0,0.0,0.0,0.0,0.0,0.0,0.0,0.0,0.0,0.0,0.0,0.0,0.0,0.0,0.0,0.0,0.0,0.0,0.0,0.0,0.0,0.0,0.0,0.0,0.0,0.0,0.0,0.0,0.0,0.0,0.0,0.0,0.0,0.0,0.0,0.0,0.0,0.0,0.0,0.0,0.0,0.0,0.0,0.0,0.0,0.0,0.0,0.0,0.0,0.0,0.0,0.0,0.0,0.0,0.0,0.0,0.0,0.0,0.0,0.0,0.0,0.0,0.0,0.0,0.0,0.0,0.0,0.0,0.0,0.0,0.0,0.0,0.0,0.0,0.0,0.0,0.0,0.0,0.0,0.0,0.0,0.0,0.0,0.0,0.0,0.0,0.0,0.0,0.0,0.0,0.0,0.0,0.0,0.0,0.0,-1.6062,-1.5833,-1.5998,0.0,0.0,0.0,0.0,0.0,0.0,0.0,0.0,0.0,0.0,0.0,0.0,0.0,0.0,0.0,0.0,0.0,0.0,0.0,0.0,0.0,0.0,0.0,0.0,0.0,0.0,0.0,0.0,0.0,0.0,0.0,0.0,0.0,0.0,0.0,0.0,0.0,0.0,0.0,0.0,0.0,0.0,0.0,0.0,0.0,0.0,0.0,0.0,0.0,0.0,0.0,0.0,0.0,0.0,0.0,0.0,0.0,0.0,0.0,0.0,0.0,0.0,0.0,0.0,0.0,0.0,0.0,0.0,0.0,0.0,0.0,0.0,0.0,0.0,0.0,0.0,0.0,0.0,0.0,0.0,0.0,0.0,0.0,0.0,0.0,0.0,0.0,0.0,0.0,0.0,0.0,0.0,0.0,0.0,0.0,0.0,0.0,0.0,0.0,0.0,0.0,0.0,0.0,0.0,0.0,0.0,0.0,0.0,0.0,0.0,-1.671,-1.5695,-1.533,0.0,-1.6172,0.0,0.0,0.0,0.0,0.0,0.0,0.0,0.0,0.0,0.0,0.0,0.0,0.0,0.0,0.0,0.0,0.0,0.0,0.0,0.0,0.0,0.0,0.0,0.0,0.0,0.0,0.0,0.0,0.0,0.0,0.0,0.0,0.0,0.0,0.0,0.0,0.0,0.0,0.0,0.0,0.0,0.0,0.0,0.0,0.0,0.0,0.0,0.0,0.0,0.0,0.0,0.0,0.0,0.0,0.0,0.0,0.0,0.0,0.0,0.0,0.0,0.0,0.0,0.0,0.0,0.0,0.0,0.0,0.0,0.0,0.0,0.0,0.0,0.0,0.0,0.0,0.0,0.0,0.0,0.0,0.0,0.0,0.0,0.0,0.0,0.0,0.0,0.0,0.0,0.0,0.0,0.0,0.0,0.0,0.0,0.0,0.0,0.0,0.0,0.0,0.0,0.0,0.0,0.0,0.0,0.0,0.0,0.0,0.0,0.0,-1.6996,-1.6224,-1.5628,-1.5541,0.0,0.0,0.0,0.0,0.0,0.0,0.0,0.0,0.0,0.0,0.0,0.0,0.0,0.0,0.0,0.0,0.0,0.0,0.0,0.0,0.0,0.0,0.0,0.0,0.0,0.0,0.0,0.0,0.0,0.0,0.0,0.0,0.0,0.0,0.0,0.0,0.0,0.0,0.0,0.0,0.0,0.0,0.0,0.0,0.0,0.0,0.0,0.0,0.0,0.0,0.0,0.0,0.0,0.0,0.0,0.0,0.0,0.0,0.0,0.0,0.0,0.0,0.0,0.0,0.0,0.0,0.0,0.0,0.0,0.0,0.0,0.0,0.0,0.0,0.0,0.0,0.0,0.0,0.0,0.0,0.0,0.0,0.0,0.0,0.0,0.0,0.0,0.0,0.0,0.0,0.0,0.0,0.0,0.0,0.0,0.0,0.0,0.0,0.0,0.0,0.0,0.0,0.0,0.0,0.0,0.0,0.0,0.0,0.0,0.0,-1.8542,-1.7318,-1.663,-1.6006,-1.5666,-1.5675,0.0,0.0,0.0,0.0,0.0,0.0,0.0,0.0,0.0,0.0,0.0,0.0,0.0,0.0,0.0,0.0,0.0,0.0,0.0,0.0,0.0,0.0,0.0,0.0,0.0,0.0,0.0,0.0,0.0,0.0,0.0,0.0,0.0,0.0,0.0,0.0,0.0,0.0,0.0,0.0,0.0,0.0,0.0,0.0,0.0,0.0,0.0,0.0,0.0,0.0,0.0,0.0,0.0,0.0,0.0,0.0,0.0,0.0,0.0,0.0,0.0,0.0,0.0,0.0,0.0,0.0,0.0,0.0,0.0,0.0,0.0,0.0,0.0,0.0,0.0,0.0,0.0,0.0,0.0,0.0,0.0,0.0,0.0,0.0,0.0,0.0,0.0,0.0,0.0,0.0,0.0,0.0,0.0,0.0,0.0,0.0,0.0,0.0,0.0,0.0,0.0,0.0,0.0,0.0,0.0,0.0,0.0,0.0,-1.9694,-1.8554,-1.7463,-1.6354,-1.6198,-1.5929,0.0,0.0,0.0,0.0,0.0,0.0,0.0,0.0,0.0,0.0,0.0,0.0,0.0,0.0,0.0,0.0,0.0,0.0,0.0,0.0,0.0,0.0,0.0,0.0,0.0,0.0,0.0,0.0,0.0,0.0,0.0,0.0,0.0,0.0,0.0,0.0,0.0,0.0,0.0,0.0,0.0,0.0,0.0,0.0,0.0,0.0,0.0,0.0,0.0,0.0,0.0,0.0,0.0,0.0,0.0,0.0,0.0,0.0,0.0,0.0,0.0,0.0,0.0,0.0,0.0,0.0,0.0,0.0,0.0,0.0,0.0,0.0,0.0,0.0,0.0,0.0,0.0,0.0,0.0,0.0,0.0,0.0,0.0,0.0,0.0,0.0,0.0,0.0,0.0,0.0,0.0,0.0,0.0,0.0,0.0,0.0,0.0,0.0,0.0,0.0,0.0,0.0,0.0,0.0,0.0,0.0,0.0,0.0,0.0,-1.9931,-1.8649,-1.7557,-1.6614,-1.6346,-1.592,0.0,0.0,0.0,0.0,0.0,0.0,0.0,0.0,0.0,0.0,0.0,0.0,0.0,0.0,0.0,0.0,0.0,0.0,0.0,0.0,0.0,0.0,0.0,0.0,0.0,0.0,0.0,0.0,0.0,0.0,0.0,0.0,0.0,0.0,0.0,0.0,0.0,0.0,0.0,0.0,0.0,0.0,0.0,0.0,0.0,0.0,0.0,0.0,0.0,0.0,0.0,0.0,0.0,0.0,0.0,0.0,0.0,0.0,0.0,0.0,0.0,0.0,0.0,0.0,0.0,0.0,0.0,0.0,0.0,0.0,0.0,0.0,0.0,0.0,0.0,0.0,0.0,0.0,0.0,0.0,0.0,0.0,0.0,0.0,0.0,0.0,0.0,0.0,0.0,0.0,0.0,0.0,0.0,0.0,0.0,0.0,0.0,0.0,0.0,0.0,0.0,0.0,0.0,0.0,0.0,0.0,0.0,0.0,0.0,-2.0136,0.0,-1.8118,-1.7422,-1.7049,-1.6448,0.0,0.0,0.0,0.0,0.0,0.0,0.0,0.0,0.0,0.0,0.0,0.0,0.0,0.0,0.0,0.0,0.0,0.0,0.0,0.0,0.0,0.0,0.0,0.0,0.0,0.0,0.0,0.0,0.0,0.0,0.0,0.0,0.0,0.0,0.0,0.0,0.0,0.0,0.0,0.0,0.0,0.0,0.0,0.0,0.0,0.0,0.0,0.0,0.0,0.0,0.0,0.0,0.0,0.0,0.0,0.0,0.0,0.0,0.0,0.0,0.0,0.0,0.0,0.0,0.0,0.0,0.0,0.0,0.0,0.0,0.0,0.0,0.0,0.0,0.0,0.0,0.0,0.0,0.0,0.0,0.0,0.0,0.0,0.0,0.0,0.0,0.0,0.0,0.0,0.0,0.0,0.0,0.0,0.0,0.0,0.0,0.0,0.0,0.0,0.0,0.0,0.0,0.0,0.0,0.0,0.0,0.0,0.0,-2.1992,-2.0327,-1.9724,-1.9239,-1.8913,-1.826,-1.7455,0.0,0.0,0.0,0.0,0.0,0.0,0.0,0.0,0.0,0.0,0.0,0.0,0.0,0.0,0.0,0.0,0.0,0.0,0.0,0.0,0.0,0.0,0.0,0.0,0.0,0.0,0.0,0.0,0.0,0.0,0.0,0.0,0.0,0.0,0.0,0.0,0.0,0.0,0.0,0.0,0.0,0.0,0.0,0.0,0.0,0.0,0.0,0.0,0.0,0.0,0.0,0.0,0.0,0.0,0.0,0.0,0.0,0.0,0.0,0.0,0.0,0.0,0.0,0.0,0.0,0.0,0.0,0.0,0.0,0.0,0.0,0.0,0.0,0.0,0.0,0.0,0.0,0.0,0.0,0.0,0.0,0.0,0.0,0.0,0.0,0.0,0.0,0.0,0.0,0.0,0.0,0.0,0.0,0.0,0.0,0.0,0.0,0.0,0.0,0.0,0.0,0.0,0.0,0.0,0.0,0.0,0.0,0.0,0.0,-2.0944,-2.072,-2.0472,-2.0127,-1.955,-1.8739,0.0,0.0,0.0,0.0,0.0,0.0,0.0,0.0,0.0,0.0,0.0,0.0,0.0,0.0,0.0,0.0,0.0,0.0,0.0,0.0,0.0,0.0,0.0,0.0,0.0,0.0,0.0,0.0,0.0,0.0,0.0,0.0,0.0,0.0,0.0,0.0,0.0,0.0,0.0,0.0,0.0,0.0,0.0,0.0,0.0,0.0,0.0,0.0,0.0,0.0,0.0,0.0,0.0,0.0,0.0,0.0,0.0,0.0,0.0,0.0,0.0,0.0,0.0,0.0,0.0,0.0,0.0,0.0,0.0,0.0,0.0,0.0,0.0,0.0,0.0,0.0,0.0,0.0,0.0,0.0,0.0,0.0,0.0,0.0,0.0,0.0,0.0,0.0,0.0,0.0,0.0,0.0,0.0,0.0,0.0,0.0,0.0,0.0,0.0,0.0,0.0,0.0,0.0,0.0,0.0,0.0,0.0,0.0,0.0,-2.2991,-2.2486,-2.2013,-2.1637,-2.122,-2.0637,-1.9698,0.0,0.0,0.0,0.0,0.0,0.0,0.0,0.0,0.0,0.0,0.0,0.0,0.0,0.0,0.0,0.0,0.0,0.0,0.0,0.0,0.0,0.0,0.0,0.0,0.0,0.0,0.0,0.0,0.0,0.0,0.0,0.0,0.0,0.0,0.0,0.0,0.0,0.0,0.0,0.0,0.0,0.0,0.0,0.0,0.0,0.0,0.0,0.0,0.0,0.0,0.0,0.0,0.0,0.0,0.0,0.0,0.0,0.0,0.0,0.0,0.0,0.0,0.0,0.0,0.0,0.0,0.0,0.0,0.0,0.0,0.0,0.0,0.0,0.0,0.0,0.0,0.0,0.0,0.0,0.0,0.0,0.0,0.0,0.0,0.0,0.0,0.0,0.0,0.0,0.0,0.0,0.0,0.0,0.0,0.0,0.0,0.0,0.0,0.0,0.0,0.0,0.0,0.0,0.0,0.0,0.0,0.0,0.0,-2.6056,-2.4939,-2.4023,-2.3373,-2.3364,-2.2959,0.0,0.0,0.0,0.0,0.0,0.0,0.0,0.0,0.0,0.0,0.0,0.0,0.0,0.0,0.0,0.0,0.0,0.0,0.0,0.0,0.0,0.0,0.0,0.0,0.0,0.0,0.0,0.0,0.0,0.0,0.0,0.0,0.0,0.0,0.0,0.0,0.0,0.0,0.0,0.0,0.0,0.0,0.0,0.0,0.0,0.0,0.0,0.0,0.0,0.0,0.0,0.0,0.0,0.0,0.0,0.0,0.0,0.0,0.0,0.0,0.0,0.0,0.0,0.0,0.0,0.0,0.0,0.0,0.0,0.0,0.0,0.0,0.0,0.0,0.0,0.0,0.0,0.0,0.0,0.0,0.0,0.0,0.0,0.0,0.0,0.0,0.0,0.0,0.0,0.0,0.0,0.0,0.0,0.0,0.0,0.0,0.0,0.0,0.0,0.0,0.0,0.0,0.0,0.0,0.0,0.0,0.0,0.0,0.0,-2.8033,-2.8199,-2.7531,-2.6002,-2.5476,-2.5061,0.0,0.0,0.0,0.0,0.0,0.0,0.0,0.0,0.0,0.0,0.0,0.0,0.0,0.0,0.0,0.0,0.0,0.0,0.0,0.0,0.0,0.0,0.0,0.0,0.0,0.0,0.0,0.0,0.0,0.0,0.0,0.0,0.0,0.0,0.0,0.0,0.0,0.0,0.0,0.0,0.0,0.0,0.0,0.0,0.0,0.0,0.0,0.0,0.0,0.0,0.0,0.0,0.0,0.0,0.0,0.0,0.0,0.0,0.0,0.0,0.0,0.0,0.0,0.0,0.0,0.0,0.0,0.0,0.0,0.0,0.0,0.0,0.0,0.0,0.0,0.0,0.0,0.0,0.0,0.0,0.0,0.0,0.0,0.0,0.0,0.0,0.0,0.0,0.0,0.0,0.0,0.0,0.0,0.0,0.0,0.0,0.0,0.0,0.0,0.0,0.0,0.0,0.0,0.0,0.0,0.0,0.0,0.0,-3.0241,-3.0305,-3.0833,-3.0741,-2.9986,-2.8465,-2.7409,0.0,0.0,0.0,0.0,0.0,0.0,0.0,0.0,0.0,0.0,0.0,0.0,0.0,0.0,0.0,0.0,0.0,0.0,0.0,0.0,0.0,0.0,0.0,0.0,0.0,0.0,0.0,0.0,0.0,0.0,0.0,0.0,0.0,0.0,0.0,0.0,0.0,0.0,0.0,0.0,0.0,0.0,0.0,0.0,0.0,0.0,0.0,0.0,0.0,0.0,0.0,0.0,0.0,0.0,0.0,0.0,0.0,0.0,0.0,0.0,0.0,0.0,0.0,0.0,0.0,0.0,0.0,0.0,0.0,0.0,0.0,0.0,0.0,0.0,0.0,0.0,0.0,0.0,0.0,0.0,0.0,0.0,0.0,0.0,0.0,0.0,0.0,0.0,0.0,0.0,0.0,0.0,0.0,0.0,0.0,0.0,0.0,0.0,0.0,0.0,0.0,0.0,0.0,0.0,0.0,0.0,0.0,0.0,-3.2205,-3.2695,-3.3029,-3.3499,-3.4149,-3.1663,-2.9938,0.0,0.0,0.0,0.0,0.0,0.0,0.0,0.0,0.0,0.0,0.0,0.0,0.0,0.0,0.0,0.0,0.0,0.0,0.0,0.0,0.0,0.0,0.0,0.0,0.0,0.0,0.0,0.0,0.0,0.0,0.0,0.0,0.0,0.0,0.0,0.0,0.0,0.0,0.0,0.0,0.0,0.0,0.0,0.0,0.0,0.0,0.0,0.0,0.0,0.0,0.0,0.0,0.0,0.0,0.0,0.0,0.0,0.0,0.0,0.0,0.0,0.0,0.0,0.0,0.0,0.0,0.0,0.0,0.0,0.0,0.0,0.0,0.0,0.0,0.0,0.0,0.0,0.0,0.0,0.0,0.0,0.0,0.0,0.0,0.0,0.0,0.0,0.0,0.0,0.0,0.0,0.0,0.0,0.0,0.0,0.0,0.0,0.0,0.0,0.0,0.0,0.0,0.0,0.0,0.0,0.0,0.0,0.0,-3.4747,-3.5179,-3.5018,-3.5008,-3.5195,-3.343,-3.2435,0.0,0.0,0.0,0.0,0.0,0.0,0.0,0.0,0.0,0.0,0.0,0.0,0.0,0.0,0.0,0.0,0.0,0.0,0.0,0.0,0.0,0.0,0.0,0.0,0.0,0.0,0.0,0.0,0.0,0.0,0.0,0.0,0.0,0.0,0.0,0.0,0.0,0.0,0.0,0.0,0.0,0.0,0.0,0.0,0.0,0.0,0.0,0.0,-3.3672,0.0,0.0,0.0,0.0,0.0,0.0,0.0,0.0,0.0,0.0,0.0,0.0,0.0,0.0,0.0,0.0,0.0,0.0,0.0,0.0,0.0,0.0,0.0,0.0,0.0,0.0,0.0,0.0,0.0,0.0,0.0,0.0,0.0,0.0,0.0,0.0,0.0,0.0,0.0,0.0,0.0,0.0,0.0,0.0,0.0,0.0,0.0,0.0,0.0,0.0,0.0,0.0,0.0,0.0,0.0,0.0,0.0,0.0,0.0,-3.6812,-3.7565,-3.7258,-3.7325,-3.7746,-3.656,-3.5164,0.0,0.0,0.0,0.0,0.0,0.0,0.0,0.0,0.0,0.0,0.0,0.0,0.0,0.0,0.0,0.0,0.0,0.0,0.0,0.0,0.0,0.0,0.0,0.0,0.0,0.0,0.0,0.0,0.0,0.0,0.0,0.0,0.0,0.0,0.0,0.0,0.0,0.0,0.0,0.0,0.0,0.0,0.0,0.0,0.0,0.0,0.0,0.0,0.0,0.0,0.0,0.0,0.0,0.0,0.0,0.0,0.0,0.0,0.0,0.0,0.0,0.0,0.0,0.0,0.0,0.0,0.0,0.0,0.0,0.0,0.0,0.0,0.0,0.0,0.0,0.0,0.0,0.0,0.0,0.0,0.0,0.0,0.0,0.0,0.0,0.0,0.0,0.0,0.0,0.0,0.0,0.0,0.0,0.0,0.0,0.0,0.0,0.0,0.0,0.0,0.0,0.0,0.0,0.0,0.0,0.0,0.0,-3.8464,-3.8781,-3.9649,-3.9492,-3.9711,-4.0409,-3.9566,-3.7681,-3.4849,0.0,0.0,0.0,0.0,0.0,0.0,0.0,0.0,0.0,0.0,0.0,0.0,0.0,0.0,0.0,0.0,0.0,0.0,0.0,0.0,0.0,0.0,0.0,0.0,0.0,0.0,0.0,0.0,0.0,0.0,0.0,0.0,0.0,0.0,0.0,0.0,0.0,0.0,-3.43,-3.3853,0.0,0.0,0.0,0.0,0.0,0.0,0.0,0.0,-3.5514,0.0,0.0,0.0,0.0,0.0,0.0,0.0,0.0,0.0,0.0,0.0,0.0,0.0,0.0,0.0,0.0,0.0,0.0,0.0,0.0,0.0,0.0,0.0,0.0,0.0,0.0,0.0,0.0,0.0,0.0,0.0,0.0,0.0,0.0,0.0,0.0,0.0,0.0,0.0,0.0,0.0,0.0,0.0,0.0,0.0,0.0,0.0,0.0,0.0,0.0,0.0,0.0,0.0,0.0,0.0,0.0,-4.0403,-4.0586,-4.0826,-4.1129,-4.1281,-4.1164,-4.0716,-4.0124,-3.9099,-3.7672,0.0,0.0,0.0,0.0,0.0,0.0,0.0,0.0,0.0,0.0,0.0,0.0,0.0,0.0,0.0,0.0,0.0,0.0,0.0,0.0,0.0,0.0,0.0,0.0,0.0,0.0,0.0,0.0,0.0,0.0,0.0,0.0,0.0,0.0,0.0,0.0,0.0,0.0,0.0,-3.4502,-3.4492,0.0,0.0,0.0,0.0,0.0,0.0,0.0,0.0,-3.6535,0.0,0.0,0.0,0.0,0.0,0.0,0.0,0.0,0.0,0.0,0.0,0.0,0.0,0.0,0.0,0.0,0.0,0.0,0.0,0.0,0.0,0.0,0.0,0.0,0.0,0.0,0.0,0.0,0.0,0.0,0.0,0.0,0.0,0.0,0.0,0.0,0.0,0.0,0.0,0.0,0.0,0.0,0.0,0.0,0.0,0.0,0.0,0.0,0.0,0.0,0.0,0.0,0.0,0.0,0.0,-4.2356,-4.2403,-4.2822,-4.3505,-4.3227,-4.3118,-4.3137,-4.2234,-4.1161,0.0,0.0,0.0,0.0,0.0,0.0,0.0,0.0,0.0,0.0,0.0,0.0,0.0,0.0,0.0,0.0,0.0,0.0,0.0,0.0,0.0,0.0,0.0,0.0,0.0,0.0,0.0,0.0,0.0,0.0,0.0,0.0,0.0,0.0,0.0,0.0,0.0,0.0,0.0,0.0,-3.489,-3.5059,-3.5059,0.0,0.0,0.0,0.0,0.0,0.0,-3.712,-3.7725,0.0,0.0,0.0,0.0,0.0,0.0,0.0,0.0,0.0,0.0,0.0,0.0,0.0,0.0,0.0,0.0,0.0,0.0,0.0,0.0,0.0,0.0,0.0,0.0,0.0,0.0,0.0,0.0,0.0,0.0,0.0,0.0,0.0,0.0,0.0,0.0,0.0,0.0,0.0,0.0,0.0,0.0,0.0,0.0,0.0,0.0,0.0,0.0,0.0,0.0,0.0,0.0,0.0,0.0,0.0,-4.4067,-4.419,-4.4674,-4.5551,-4.5207,-4.5146,-4.5477,-4.4291,-4.3033,0.0,0.0,0.0,0.0,0.0,0.0,0.0,0.0,0.0,0.0,0.0,0.0,0.0,0.0,0.0,0.0,0.0,0.0,0.0,0.0,0.0,0.0,0.0,0.0,0.0,0.0,0.0,0.0,0.0,0.0,0.0,0.0,0.0,0.0,0.0,0.0,0.0,0.0,0.0,0.0,0.0,-3.5846,-3.5913,-3.6583,0.0,0.0,0.0,0.0,-3.7887,-3.8197,0.0,0.0,0.0,0.0,0.0,0.0,0.0,0.0,0.0,0.0,0.0,0.0,0.0,0.0,0.0,0.0,0.0,0.0,0.0,0.0,0.0,0.0,0.0,0.0,0.0,0.0,0.0,0.0,0.0,0.0,0.0,0.0,0.0,0.0,0.0,0.0,0.0,0.0,0.0,0.0,0.0,0.0,0.0,0.0,0.0,0.0,0.0,0.0,0.0,0.0,0.0,0.0,0.0,0.0,0.0,0.0,-4.5279,-4.5754,-4.6184,-4.6476,-4.6886,-4.6718,-4.5886,-4.5113,-4.4221,0.0,0.0,0.0,0.0,0.0,0.0,0.0,0.0,0.0,0.0,0.0,0.0,0.0,0.0,0.0,0.0,0.0,0.0,0.0,0.0,0.0,0.0,0.0,0.0,0.0,0.0,0.0,0.0,0.0,0.0,0.0,0.0,0.0,0.0,0.0,0.0,0.0,0.0,0.0,0.0,0.0,-3.7533,-3.7533,-3.7955,-3.8137,0.0,0.0,-3.7817,-3.7887,-3.8217,0.0,0.0,0.0,0.0,0.0,0.0,0.0,0.0,0.0,0.0,0.0,0.0,0.0,0.0,0.0,0.0,0.0,0.0,0.0,0.0,0.0,0.0,0.0,0.0,0.0,0.0,0.0,0.0,0.0,0.0,0.0,0.0,0.0,0.0,0.0,0.0,0.0,0.0,0.0,0.0,0.0,0.0,0.0,0.0,0.0,0.0,0.0,0.0,0.0,0.0,0.0,0.0,0.0,0.0,0.0,-4.6175,-4.6426,-4.6954,-4.757,-4.8296,-4.838,-4.8115,-4.7562,-4.6926,-4.5779,0.0,0.0,0.0,0.0,0.0,0.0,0.0,0.0,0.0,0.0,0.0,0.0,0.0,0.0,0.0,0.0,0.0,0.0,0.0,0.0,0.0,0.0,0.0,0.0,0.0,0.0,0.0,0.0,0.0,0.0,0.0,0.0,0.0,0.0,0.0,0.0,0.0,0.0,0.0,0.0,0.0,0.0,-3.8425,-3.9036,0.0,0.0,0.0,-3.9618,-3.9378,0.0,0.0,0.0,0.0,0.0,0.0,0.0,0.0,0.0,0.0,0.0,0.0,0.0,0.0,0.0,0.0,0.0,0.0,0.0,0.0,0.0,0.0,0.0,0.0,0.0,0.0,0.0,0.0,0.0,0.0,0.0,0.0,0.0,0.0,0.0,0.0,0.0,0.0,0.0,0.0,0.0,0.0,0.0,0.0,0.0,0.0,0.0,0.0,0.0,0.0,0.0,0.0,0.0,0.0,0.0,0.0,0.0,-4.7556,-4.8058,-4.8812,-4.9766,-4.9681,-4.9537,-4.9267,-4.8618,0.0,0.0,0.0,0.0,0.0,0.0,0.0,0.0,0.0,0.0,0.0,0.0,0.0,0.0,0.0,0.0,0.0,0.0,0.0,0.0,0.0,0.0,0.0,0.0,0.0,0.0,0.0,-4.2007,0.0,0.0,0.0,0.0,0.0,0.0,0.0,0.0,0.0,0.0,0.0,0.0,0.0,0.0,-3.9609,-3.9609,-4.0438,-4.0935,0.0,0.0,-4.1198,-4.0459,-4.0378,-4.0237,0.0,0.0,0.0,0.0,0.0,0.0,0.0,0.0,0.0,0.0,0.0,0.0,0.0,0.0,0.0,0.0,0.0,0.0,0.0,0.0,0.0,0.0,0.0,0.0,0.0,0.0,0.0,0.0,0.0,0.0,0.0,0.0,0.0,0.0,0.0,0.0,0.0,0.0,0.0,0.0,0.0,0.0,0.0,0.0,0.0,0.0,0.0,0.0,0.0,0.0,0.0,0.0,0.0,0.0,-4.8134,-4.8661,-4.9213,-4.9766,-5.0368,-5.0896,-5.0972,-5.0571,-4.9829,-4.902,0.0,0.0,0.0,0.0,0.0,0.0,0.0,0.0,0.0,0.0,0.0,0.0,0.0,0.0,0.0,0.0,0.0,0.0,0.0,0.0,0.0,0.0,0.0,0.0,0.0,0.0,0.0,0.0,0.0,0.0,0.0,0.0,0.0,0.0,0.0,0.0,0.0,0.0,0.0,0.0,0.0,-4.1499,-4.1499,-4.2392,-4.2799,0.0,-4.2137,-4.1809,-4.0605,-4.0378,-4.0217,-3.9795,0.0,0.0,0.0,0.0,0.0,0.0,0.0,0.0,0.0,0.0,0.0,0.0,0.0,0.0,0.0,0.0,0.0,0.0,0.0,0.0,0.0,0.0,0.0,0.0,0.0,0.0,0.0,0.0,0.0,0.0,0.0,0.0,0.0,0.0,0.0,0.0,0.0,0.0,0.0,0.0,0.0,0.0,0.0,0.0,0.0,0.0,0.0,0.0,0.0,0.0,0.0,0.0,0.0,-4.9063,-4.9289,-5.0167,-5.0896,-5.1448,-5.1674,-5.164,-5.1302,-5.0962,-5.0283,0.0,0.0,0.0,0.0,0.0,0.0,0.0,0.0,0.0,0.0,0.0,0.0,0.0,0.0,0.0,0.0,0.0,0.0,0.0,0.0,0.0,0.0,0.0,0.0,0.0,0.0,0.0,0.0,-4.3808,-4.2945,-4.1718,0.0,0.0,0.0,0.0,0.0,0.0,0.0,0.0,0.0,0.0,-4.2949,-4.2683,-4.3672,0.0,0.0,-4.3089,-4.2497,-4.1083,-4.0559,-4.0091,-3.9143,-3.9011,0.0,0.0,0.0,0.0,0.0,0.0,0.0,0.0,0.0,0.0,0.0,0.0,0.0,0.0,0.0,0.0,0.0,0.0,0.0,0.0,0.0,0.0,0.0,0.0,0.0,0.0,0.0,0.0,0.0,0.0,0.0,0.0,0.0,0.0,0.0,0.0,0.0,0.0,0.0,0.0,0.0,0.0,0.0,0.0,0.0,0.0,0.0,0.0,0.0,0.0,0.0,0.0,-5.0092,-5.0117,-5.1197,-5.195,-5.2352,-5.2678,-5.2616,-5.2235,-5.2098,-5.1476,0.0,0.0,0.0,0.0,0.0,0.0,0.0,0.0,0.0,0.0,0.0,0.0,0.0,0.0,0.0,0.0,0.0,0.0,0.0,0.0,0.0,0.0,0.0,0.0,0.0,0.0,0.0,0.0,-4.4279,-4.3125,-4.1543,0.0,0.0,0.0,0.0,0.0,0.0,0.0,0.0,0.0,0.0,-4.4075,-4.4038,-4.4706,-4.4936,-4.3983,-4.3665,-4.2856,-4.1144,-4.0599,-3.9945,-3.8779,0.0,0.0,0.0,0.0,0.0,0.0,0.0,0.0,0.0,0.0,0.0,0.0,0.0,0.0,0.0,0.0,0.0,0.0,0.0,0.0,0.0,0.0,0.0,0.0,0.0,0.0,0.0,-5.4582,0.0,0.0,-5.4511,0.0,0.0,0.0,0.0,0.0,0.0,0.0,0.0,0.0,0.0,0.0,0.0,0.0,0.0,0.0,0.0,0.0,0.0,0.0,0.0,0.0,0.0,-5.1247,-5.1272,-5.2327,-5.2904,-5.2955,-5.3959,-5.421,-5.3658,-5.3333,-5.2625,-5.1557,0.0,0.0,0.0,0.0,0.0,0.0,0.0,0.0,0.0,0.0,0.0,0.0,0.0,0.0,0.0,0.0,0.0,0.0,0.0,0.0,0.0,0.0,0.0,0.0,0.0,0.0,-4.5919,-4.4583,-4.3284,0.0,0.0,0.0,0.0,0.0,0.0,0.0,0.0,0.0,-4.3052,-4.4219,-4.5089,-4.5583,-4.553,-4.5082,-4.4003,-4.3558,-4.269,-4.0772,-4.0398,-4.0018,0.0,0.0,0.0,0.0,0.0,0.0,0.0,0.0,0.0,0.0,0.0,0.0,0.0,0.0,0.0,0.0,0.0,0.0,0.0,0.0,0.0,0.0,0.0,0.0,0.0,0.0,0.0,-5.4561,-5.4561,0.0,0.0,0.0,0.0,0.0,0.0,0.0,0.0,0.0,0.0,0.0,-5.4034,-5.4185,0.0,0.0,0.0,0.0,0.0,0.0,0.0,0.0,0.0,0.0,0.0,0.0,-5.2026,-5.2402,-5.308,-5.3632,-5.4009,-5.4386,-5.4285,-5.3733,-5.3568,-5.2998,-5.1947,0.0,0.0,0.0,0.0,0.0,0.0,0.0,0.0,0.0,0.0,0.0,0.0,0.0,0.0,0.0,0.0,0.0,0.0,0.0,0.0,0.0,0.0,0.0,0.0,0.0,-4.743,0.0,0.0,0.0,0.0,0.0,0.0,0.0,0.0,0.0,0.0,-4.0808,-4.2056,-4.3544,-4.4626,-4.535,-4.5583,-4.5598,-4.5107,0.0,0.0,0.0,0.0,0.0,0.0,0.0,0.0,0.0,0.0,0.0,0.0,0.0,-4.2954,-4.3763,-4.4501,-4.4801,-4.4959,-4.5206,0.0,0.0,0.0,0.0,0.0,0.0,0.0,0.0,0.0,0.0,0.0,0.0,0.0,0.0,-5.5717,-5.5742,-5.5717,0.0,0.0,0.0,0.0,0.0,0.0,0.0,0.0,-5.534,-5.5214,-5.4863,-5.5039,-5.4938,-5.4587,-5.4561,-5.4009,0.0,0.0,0.0,0.0,0.0,0.0,0.0,0.0,-5.2829,-5.3206,-5.3909,-5.4486,-5.4838,-5.5039,-5.4863,-5.431,-5.3909,-5.3281,-5.2427,-5.185,-5.1297,0.0,0.0,0.0,0.0,0.0,0.0,0.0,0.0,0.0,0.0,0.0,0.0,0.0,0.0,0.0,0.0,0.0,0.0,0.0,0.0,0.0,0.0,0.0,-4.7393,0.0,0.0,0.0,0.0,0.0,0.0,0.0,0.0,0.0,-4.0838,-4.153,-4.2693,-4.4191,-4.4775,-4.5201,-4.5619,0.0,0.0,0.0,0.0,0.0,0.0,0.0,-3.9301,-3.872,-3.8574,-3.8706,-3.8989,-3.9685,-4.0552,-4.1571,0.0,0.0,-4.4051,-4.4358,-4.443,-4.4526,-4.3952,-4.3379,-4.3049,-4.2336,-4.1764,0.0,0.0,0.0,0.0,-5.5516,0.0,0.0,0.0,-5.7625,-5.7826,0.0,-5.7826,0.0,0.0,0.0,0.0,-5.7072,-5.7022,0.0,0.0,-5.6796,-5.6495,-5.5566,-5.6018,-5.5717,-5.4712,-5.4687,-5.4662,-5.4561,-5.4034,0.0,0.0,0.0,0.0,0.0,0.0,-5.3733,-5.3808,-5.4813,-5.539,-5.5415,-5.5917,-5.5917,-5.534,-5.4285,-5.3457,-5.2929,-5.2377,-5.185,-5.1322,-5.0745,0.0,0.0,0.0,0.0,0.0,0.0,0.0,0.0,0.0,0.0,0.0,0.0,0.0,0.0,0.0,0.0,0.0,0.0,0.0,0.0,-4.7533,0.0,0.0,0.0,0.0,0.0,0.0,0.0,0.0,0.0,-4.2184,-4.1752,-4.1959,-4.2974,-4.5029,0.0,0.0,0.0,0.0,-4.3397,-4.2651,-4.1594,-4.0596,-3.9806,-3.9445,-3.903,-3.8647,0.0,0.0,-3.9657,-3.981,-4.0051,-4.0785,-4.0972,-4.142,-4.2935,-4.342,-4.348,-4.3136,-4.2489,-4.1997,-4.1926,-4.1601,-4.1481,-5.4812,0.0,0.0,0.0,0.0,-5.7349,-5.7499,-5.765,-5.7826,-5.7901,-5.7901,-5.7901,0.0,0.0,0.0,0.0,0.0,0.0,-5.7575,-5.7424,-5.7575,-5.7499,-5.7198,-5.7349,-5.7248,-5.6947,-5.652,-5.6118,-5.5742,-5.5164,-5.4637,-5.411,0.0,0.0,0.0,0.0,-5.411,-5.4863,-5.5239,-5.5591,-5.5968,-5.6143,-5.5767,-5.4838,-5.4084,-5.3457,-5.2929,-5.2402,-5.2026,-5.185,-5.0946,0.0,0.0,0.0,0.0,0.0,0.0,0.0,0.0,0.0,0.0,0.0,0.0,0.0,0.0,0.0,0.0,0.0,0.0,0.0,-4.8448,-4.7592,-4.6737,0.0,0.0,0.0,0.0,0.0,0.0,0.0,0.0,0.0,-4.3083,-4.3351,-4.3769,0.0,0.0,-4.4209,-4.4618,-4.3467,-4.2278,-4.1855,-4.1004,0.0,-3.9445,-3.9248,-3.903,-3.8647,-3.8574,-3.8784,-3.9288,-3.9589,-3.9983,-4.0504,-4.0861,-4.113,-4.117,-4.1492,-4.167,-4.1544,-4.1167,-4.0811,-4.074,-4.0668,-4.0811,-5.7601,-5.771,-5.7795,-5.81,-5.8554,-5.878,-5.8981,-5.9207,-5.9207,-5.9207,-5.9207,-5.9207,-5.9207,-5.9207,-5.9207,0.0,0.0,0.0,-5.9207,-5.9207,-5.9207,-5.8956,-5.8554,-5.8529,-5.8303,-5.7901,-5.7549,-5.7198,-5.6872,-5.6545,-5.6093,-5.5516,0.0,-5.421,-5.4561,-5.4436,-5.4712,-5.5365,-5.5616,-5.5867,-5.6194,-5.6219,-5.5691,-5.4612,-5.4235,-5.3683,-5.2955,-5.2628,-5.2327,-5.2101,-5.1247,-5.067,0.0,0.0,0.0,0.0,0.0,0.0,0.0,0.0,0.0,0.0,0.0,-4.9423,-4.981,0.0,0.0,0.0,-4.9948,-4.9382,-4.8555,-4.8017,0.0,0.0,0.0,0.0,0.0,0.0,0.0,-4.4206,-4.4381,-4.4387,-4.4155,-4.4319,-4.4398,-4.4018,-4.3579,-4.3349,-4.3331,0.0,-4.1431,-4.1004,-4.0382,-3.9662,-3.9248,-3.903,-3.8865,-3.8647,-3.8574,-3.873,-3.9121,-3.9441,-3.9687,-3.9904,-4.0187,-4.0196,-3.9758,-3.9823,-4.0074,-4.0361,-4.0238,-4.0094,-4.0094,-4.0187,-4.0471,-6.0159,-6.0457,-5.9428,-5.9232,-5.9659,-6.0161,-6.0688,-6.1165,-6.1165,-6.119,-6.119,-6.119,-6.119,-6.119,-6.119,0.0,-6.119,-6.119,-6.1165,-6.119,-6.119,-6.0638,-5.9659,-5.9633,-5.9081,-5.8102,-5.8052,-5.8001,-5.7951,-5.7901,-5.7625,-5.7072,-5.5591,-5.4787,-5.4712,-5.5164,-5.5415,-5.5465,-5.5942,-5.6219,-5.6219,-5.6219,-5.5691,-5.4612,-5.4561,-5.4034,-5.3005,-5.2861,-5.2703,-5.2176,-5.1649,-5.1096,-5.0519,0.0,0.0,0.0,0.0,0.0,0.0,0.0,0.0,0.0,0.0,0.0,0.0,0.0,0.0,-4.9861,-4.9523,0.0,-4.8861,-4.8553,0.0,0.0,0.0,-4.7171,-4.6278,-4.5893,-4.573,-4.5691,0.0,0.0,-4.5031,-4.5065,-4.4702,-4.3624,-4.2875,-4.2293,-4.1954,-4.1239,-4.0647,-4.0177,-3.955,-3.9116,-3.8925,-3.8635,-3.8471,-3.8379,-3.8476,-3.8555,-3.8887,-3.8984,-3.9023,-3.8984,-3.9043,-3.8926,-3.8608,-3.8563,-3.8747,-3.943,-3.9542,-3.9582,-3.9625,-3.9911,-4.0368,-6.0562,-6.1006,-6.1136,-6.104,-6.0788,-6.0914,-6.1065,-6.119,-6.119,-6.119,-6.119,-6.119,-6.119,-6.119,-6.119,-6.119,-6.119,-6.119,-6.119,-6.119,-6.119,-6.104,-6.0788,-6.0788,-6.0412,-5.9734,-5.9307,-5.893,-5.8504,-5.8102,-5.7826,-5.7675,-5.7298,-5.6671,-5.5842,-5.5516,-5.5616,-5.6018,-5.6143,-5.6219,-5.6219,-5.6219,-5.5691,-5.4612,-5.4561,-5.4059,-5.2911,-5.2861,-5.2879,-5.2729,-5.2201,-5.1649,-5.1096,-5.0544,0.0,0.0,0.0,0.0,0.0,0.0,0.0,0.0,0.0,-4.9421,-4.9445,0.0,-4.9651,0.0,-4.8968,-4.8615,-4.8528,-4.8218,0.0,0.0,-4.7558,-4.732,-4.6819,-4.6732,-4.6669,-4.6669,-4.6655,-4.652,-4.5925,-4.5512,-4.4732,-4.3429,-4.2596,-4.189,-4.1218,-4.0238,-3.949,-3.9046,-3.8537,-3.8112,-3.7838,-3.7669,-3.7637,-3.7598,-3.7617,-3.7637,-3.7734,-3.7754,-3.7754,-3.7754,-3.7754,-3.7695,-3.7708,-3.781,-3.8043,-3.8255,-3.8564,-3.8846,-3.907,-3.9605,-4.0351,-6.1652,-6.1943,-6.2245,-6.2195,-6.1918,-6.1918,-6.1918,-6.1918,-6.1918,-6.1918,-6.1918,-6.1918,-6.1918,-6.1918,-6.1918,-6.1918,-6.1918,-6.1918,-6.1918,-6.1918,-6.1918,-6.1793,-6.1542,-6.1542,-6.124,-6.0688,-6.0387,-5.996,-5.9433,-5.9131,-5.873,-5.8278,-5.8252,-5.7826,-5.6972,-5.6646,-5.6671,-5.6947,-5.6696,-5.657,-5.657,-5.6344,-5.5691,-5.4612,-5.4561,-5.4059,-5.2911,-5.2861,-5.2861,-5.2836,-5.2402,-5.1975,-5.1649,-5.087,-5.0268,0.0,0.0,0.0,0.0,0.0,0.0,0.0,0.0,0.0,0.0,0.0,-4.9496,-4.9702,-4.9457,-4.9393,-4.9645,-4.9316,-4.8974,-4.8782,-4.8557,-4.8269,-4.783,-4.7805,-4.7742,-4.7576,-4.7632,-4.7475,-4.6843,-4.6174,-4.5256,-4.3814,-4.263,-4.1594,-4.0555,-3.9645,-3.8923,-3.8327,-3.7916,-3.7578,-3.7324,-3.7305,-3.7305,-3.7305,-3.7305,-3.7305,-3.7305,-3.7445,-3.7496,-3.7516,-3.7637,-3.7797,-3.7797,-3.7937,-3.8087,-3.8234,-3.8422,-3.873,-3.9268,-4.0014,-4.0837,-6.3048,-6.3023,-6.3048,-6.3048,-6.3023,-6.2973,-6.2898,-6.2822,-6.2822,-6.2822,-6.2822,-6.2822,-6.2822,-6.2822,-6.2822,-6.2822,-6.2822,-6.2822,-6.2822,-6.2822,-6.2822,-6.2571,-6.2119,-6.2119,-6.1818,-6.1291,-6.1291,-6.0989,-6.0437,-6.0437,-5.996,-5.9081,-5.8956,-5.8679,-5.8227,-5.8127,-5.8027,-5.7901,-5.7323,-5.7047,-5.7022,-5.6495,-5.5691,-5.4637,-5.4561,-5.4059,-5.2911,-5.2861,-5.2861,-5.2904,-5.2477,-5.2176,-5.2076,-5.1172,-5.0594,0.0,-5.0067,0.0,0.0,0.0,0.0,0.0,0.0,0.0,0.0,-4.9081,-4.9441,-5.0192,-5.0373,-5.0745,-5.1247,-5.082,-5.0519,-5.0519,-5.0117,-4.959,-4.9063,-4.8987,-4.8835,-4.8465,-4.8401,-4.8189,-4.7599,-4.6874,-4.5866,-4.4434,-4.2962,-4.1587,-4.0167,-3.9383,-3.8695,-3.7884,-3.7402,-3.7031,-3.6973,-3.6992,-3.6953,-3.6934,-3.6905,-3.7023,-3.6925,-3.7223,-3.7471,-3.752,-3.7668,-3.7935,-3.8015,-3.8044,-3.8267,-3.8315,-3.852,-3.894,-3.9774,-4.056,-4.1325,-6.4153,-6.4153,-6.4153,-6.4153,-6.4128,-6.3701,-6.3249,-6.2822,-6.2822,-6.2822,-6.2822,-6.2822,-6.2822,-6.2822,-6.2822,-6.2822,-6.2822,-6.2822,-6.2822,-6.2822,-6.2822,-6.2772,-6.2672,-6.2672,-6.237,-6.1868,-6.1843,-6.1567,-6.1014,-6.1014,-6.0914,-6.0713,-6.0236,-5.996,-5.9834,0.0,0.0,0.0,-5.7323,-5.7047,-5.7022,-5.6495,-5.5691,-5.4612,-5.4561,0.0,-5.3005,-5.2861,-5.2861,-5.2861,-5.2829,0.0,0.0,0.0,0.0,0.0,0.0,0.0,0.0,0.0,0.0,0.0,-5.1003,-5.0564,-4.9581,-4.9884,-5.0348,-5.1028,-5.1138,-5.1172,-5.1247,-5.1197,-5.1122,-5.1122,-5.1021,-5.0745,-5.0193,-5.0092,-4.9877,-4.9425,-4.9117,-4.8689,-4.8002,-4.7032,-4.6001,-4.4846,-4.3343,-4.193,-4.0724,-3.9445,-3.8244,-3.7191,-3.6562,-3.6152,-3.5801,-3.5781,-3.5703,-3.5379,-3.5461,-3.5633,-3.5759,-3.6004,-3.6142,-3.6182,-3.6168,-3.6294,-3.6294,-3.6648,-3.7209,-3.7218,-3.8039,-3.902,-3.9799,-4.0237,-4.0796,-6.4479,-6.4479,-6.4479,-6.4479,0.0,-6.4178,-6.3902,-6.3601,-6.3073,-6.2822,-6.2822,-6.2822,-6.2822,-6.2822,-6.2822,-6.2822,-6.2822,-6.2822,-6.2822,-6.2822,-6.2822,-6.2822,-6.2822,-6.2822,-6.2672,-6.2421,-6.2421,-6.2144,-6.1617,-6.1592,-6.1441,-6.119,-6.0889,-6.0613,-6.0311,-5.9759,-5.9232,-5.8679,-5.8152,-5.7725,-5.7449,-5.6922,-5.5968,-5.4637,-5.4561,0.0,0.0,0.0,0.0,0.0,0.0,0.0,0.0,-5.2251,0.0,-5.1699,-5.1423,-5.1272,-5.1272,-5.1272,-5.1272,-5.1272,-5.1272,-5.1046,-5.0469,-5.0695,-5.1071,-5.1624,-5.1674,-5.18,-5.2051,-5.185,-5.1674,-5.1674,-5.1448,-5.1147,-5.087,-5.0594,-5.0318,-5.0042,-4.9636,-4.9137,-4.8616,-4.7738,-4.6808,-4.5708,-4.4075,-4.2379,-4.0907,-3.9384,-3.7897,-3.6328,-3.5879,-3.5566,-3.5156,-3.5059,-3.5046,-3.4943,-3.508,-3.5341,-3.5666,-3.601,-3.6269,-3.6462,-3.6591,-3.672,-3.6784,-3.7061,-3.7381,-3.7721,-3.8369,-3.9276,-4.0202,-4.0693,-4.1173,-6.5057,-6.5032,-6.4957,-6.4906,-6.4906,-6.4705,-6.4555,-6.4404,-6.34,0.0,0.0,-6.2822,-6.2822,-6.2822,-6.2822,-6.2822,-6.2822,-6.2822,-6.2822,-6.2822,-6.2822,-6.2822,-6.2822,-6.2822,-6.2822,-6.2822,-6.2822,-6.2596,-6.2169,-6.2144,-6.1918,-6.1492,-6.1366,-6.0989,-6.0337,-5.9859,-5.9608,-5.9483,-5.8981,-5.8453,-5.7901,-5.7323,-5.6294,-5.4808,-5.4612,-5.4084,-5.3105,-5.298,-5.2861,-5.2861,-5.2861,-5.2861,-5.2836,-5.2503,-5.2251,-5.2226,-5.1825,-5.1574,-5.1574,-5.1574,-5.1574,-5.1574,-5.1574,-5.1523,-5.1423,-5.1423,-5.1649,-5.2201,-5.2251,-5.2427,-5.2879,-5.2528,-5.2251,-5.2251,-5.185,-5.1548,-5.1423,-5.1021,-5.0695,-5.0444,-5.0017,-4.9561,-4.9097,-4.842,-4.7696,-4.6603,-4.4773,-4.2794,-4.0872,-3.9093,-3.7468,-3.6095,-3.5717,-3.5414,-3.4923,-3.4786,-3.4877,-3.5062,-3.5191,-3.5509,-3.6088,-3.6535,-3.6875,-3.7024,-3.7445,-3.7487,-3.7487,-3.7423,-3.7779,-3.8258,-3.8603,-3.9069,-4.0222,-4.0976,-4.146,-6.7317,-6.7292,-6.6815,-6.6639,-6.6564,-6.5584,-6.4906,-6.4429,-6.3827,-6.3299,-6.2822,-6.2822,-6.2822,-6.2822,-6.2822,-6.2822,-6.2822,-6.2822,-6.2822,-6.2822,-6.2822,-6.2822,-6.2822,-6.2822,-6.2822,-6.2822,-6.2822,-6.2797,-6.2722,-6.2722,-6.2672,-6.2521,-6.2119,-6.1366,-6.0387,-6.0236,-5.9985,-5.9483,-5.8981,-5.8453,-5.7901,-5.7323,-5.647,-5.534,-5.4813,-5.426,-5.3632,-5.3155,-5.2861,-5.2861,-5.2861,-5.2861,-5.2861,-5.2854,-5.2804,-5.2804,-5.2729,-5.2703,-5.2678,-5.2678,-5.2703,-5.2703,-5.2678,-5.2503,-5.2026,-5.1975,-5.2201,-5.2754,-5.2779,-5.2829,-5.2904,-5.2854,-5.271,-5.2804,-5.2729,-5.2503,-5.2051,-5.1875,-5.1473,-5.0619,-5.0343,-4.9962,-4.9262,-4.851,-4.7943,-4.7154,-4.5232,-4.2901,-4.0496,-3.8341,-3.7092,-3.6423,-3.6282,-3.5942,-3.526,-3.506,-3.5047,-3.4916,-3.5229,-3.5645,-3.639,-3.6761,-3.7007,-3.6982,-3.7148,-3.7004,-3.6758,-3.6699,-3.6932,-3.7188,-3.7641,-3.8286,-3.9085,-3.9857,-4.0772,-6.8246,-6.817,-6.7668,-6.7417,-6.7367,-6.6538,-6.571,-6.4931,-6.4655,-6.4078,-6.3324,-6.3299,-6.3124,-6.2847,-6.2822,-6.2822,-6.2822,-6.2822,-6.2822,-6.2822,-6.2822,-6.2822,-6.2822,-6.2822,-6.2822,-6.2822,-6.2822,-6.2822,-6.2822,-6.2822,-6.2822,-6.2797,-6.227,-6.1743,-6.124,-6.0638,-6.0186,-5.9935,-5.9408,-5.873,-5.7926,-5.7625,-5.6821,-5.5415,-5.4863,-5.4285,-5.3708,-5.3206,-5.2861,-5.2861,-5.2861,-5.2861,-5.2861,-5.2861,-5.2861,-5.2861,-5.2861,-5.2861,-5.2861,-5.2861,-5.2861,-5.2861,-5.2861,-5.2829,-5.2578,-5.2553,-5.2653,-5.2904,-5.2861,-5.2861,-5.2861,-5.2861,-5.2861,-5.2861,-5.2861,-5.2829,-5.2578,-5.2251,-5.19,-5.1398,-5.1071,-5.0604,-4.9896,-4.9388,-4.8648,-4.7762,-4.538,-4.2829,-4.0845,-3.9346,-3.7919,-3.6852,-3.6371,-3.5963,-3.5413,-3.529,-3.5375,-3.5603,-3.5828,-3.638,-3.7149,-3.7594,-3.7714,-3.7872,-3.7717,-3.7421,-3.7122,-3.6824,-3.6853,-3.7228,-3.7725,-3.8447,-3.9205,-4.0056,-4.0908,-6.91,-6.8949,-6.8396,-6.802,-6.7744,-6.7216,-6.6463,-6.5685,-6.5534,-6.4931,-6.4128,-6.3927,-6.355,-6.3048,-6.3023,-6.2948,-6.2847,-6.2822,-6.2822,-6.2822,-6.2822,-6.2822,-6.2822,-6.2822,-6.2822,-6.2822,-6.2822,-6.2822,-6.2822,-6.2822,-6.2822,-6.2797,-6.2395,-6.2144,-6.1994,-6.1014,-6.0462,-6.0286,-5.9784,-5.8981,-5.7951,-5.7901,-5.7148,-5.5666,-5.4913,-5.4361,-5.3909,-5.3256,-5.2861,-5.2861,-5.2861,-5.2861,-5.2861,-5.2861,-5.2861,-5.2861,-5.2861,-5.2861,-5.2861,-5.2861,-5.2861,-5.2861,-5.2861,-5.2861,-5.2861,-5.2861,-5.2861,-5.2861,-5.2861,-5.2861,-5.2861,-5.2861,-5.2861,-5.2861,-5.2861,-5.2861,-5.2879,-5.2553,-5.2201,-5.2076,-5.1699,-5.1222,-5.0579,-5.009,-4.9191,-4.7441,-4.5324,-4.3353,-4.1859,-4.0609,-3.9209,-3.8039,-3.7087,-3.6478,-3.5933,-3.5849,-3.6156,-3.6746,-3.6868,-3.7391,-3.8231,-3.8611,-3.858,-3.8748,-3.8453,-3.7969,-3.7637,-3.7151,-3.7087,-3.7439,-3.7952,-3.869,-3.9539,-4.0265,-4.0971,-7.0556,-7.0054,-6.9501,-6.8698,-6.7794,-6.7241,-6.6915,-6.6714,-6.6262,-6.571,-6.5082,-6.4605,-6.4128,-6.3651,-6.3601,-6.3324,-6.2873,-6.2822,-6.2822,-6.2822,-6.2822,-6.2822,-6.2822,-6.2822,-6.2822,-6.2822,-6.2822,-6.2822,-6.2822,-6.2822,-6.2822,-6.2822,-6.2772,-6.2496,-6.1994,-6.1416,-6.0864,-6.0311,-5.9784,-5.8956,-5.7976,-5.7901,-5.7323,-5.6168,-5.5114,-5.4607,-5.4436,-5.3482,-5.2861,-5.2861,-5.2861,-5.2861,-5.2861,-5.2861,-5.2861,-5.2861,-5.2861,-5.2861,-5.2861,-5.2861,-5.2861,-5.2861,-5.2861,-5.2861,-5.2861,-5.2861,-5.2861,-5.2861,-5.2861,-5.2861,-5.2861,-5.2861,-5.2861,-5.2861,-5.2861,-5.2861,-5.2861,-5.2879,-5.2628,-5.211,-5.2093,-5.1607,-5.0697,-5.0149,-4.8944,-4.6916,-4.5756,-4.4566,-4.3055,-4.1667,-4.0783,-4.0185,-3.9103,-3.7881,-3.7384,-3.7193,-3.7495,-3.8014,-3.8134,-3.8611,-3.9321,-3.9615,-3.9581,-3.921,-3.8724,-3.8263,-3.76,-3.7133,-3.7015,-3.7336,-3.7793,-3.8403,-3.917,-3.9715,-4.0222,-7.1435,-7.1158,-7.0305,-6.93,-6.8321,-6.8045,-6.7568,-6.6965,-6.6739,-6.6312,-6.5785,-6.5534,-6.4957,-6.4153,-6.3827,-6.355,-6.3324,-6.2998,-6.2822,-6.2822,-6.2822,-6.2822,-6.2822,-6.2822,-6.2822,-6.2822,-6.2822,-6.2822,-6.2822,-6.2822,-6.2822,-6.2822,-6.2822,-6.2722,-6.2421,-6.1617,-6.1065,-6.0814,-5.9935,-5.8981,-5.8027,-5.7901,-5.7374,-5.6244,-5.5139,-5.4561,-5.4461,-5.3507,-5.2861,-5.2861,-5.2861,-5.2861,-5.2861,-5.2861,-5.2861,-5.2861,-5.2861,-5.2861,-5.2861,-5.2861,-5.2861,-5.2861,-5.2861,-5.2861,-5.2861,-5.2861,-5.2861,-5.2861,-5.2861,-5.2861,-5.2861,-5.2861,-5.2861,-5.2861,-5.2861,-5.2861,-5.2861,-5.2861,-5.2804,-5.2596,-5.2553,-5.2266,-5.1437,-5.0506,-4.924,-4.7577,-4.664,-4.5549,-4.4514,-4.3336,-4.256,-4.2333,-4.1261,-3.9942,-3.8888,-3.8514,-3.8752,-3.9085,-3.9321,-3.9755,-4.0339,-4.0653,-4.0463,-3.9884,-3.9292,-3.8634,-3.7818,-3.7354,-3.7123,-3.751,-3.8238,-3.8945,-3.9413,-3.9645,-3.9948,-7.2163,-7.1761,-7.0732,-6.9702,-6.8848,-6.8673,-6.807,-6.7241,-6.7041,-6.6664,-6.6137,-6.6112,-6.5685,-6.4906,-6.4379,-6.4002,-6.3676,-6.3249,-6.2973,-6.2847,-6.2822,-6.2822,-6.2822,-6.2822,-6.2822,-6.2822,-6.2822,-6.2822,-6.2822,-6.2822,-6.2822,-6.2822,-6.2822,-6.2747,-6.2521,-6.1642,-6.109,-6.0864,-5.9985,-5.8981,-5.8052,-5.7901,-5.7374,-5.6244,-5.529,-5.4712,-5.4561,-5.3658,-5.3055,-5.2929,-5.2861,-5.2861,-5.2861,-5.2861,-5.2861,-5.2861,-5.2861,-5.2861,-5.2861,-5.2861,-5.2861,-5.2861,-5.2861,-5.2861,-5.2861,-5.2861,-5.2861,-5.2861,-5.2861,-5.2861,-5.2861,-5.2861,-5.2861,-5.2861,-5.2861,-5.2861,-5.2861,-5.2861,-5.2861,-5.2861,-5.2879,-5.2591,-5.1836,-5.0813,-4.9601,-4.8362,-4.7375,-4.6455,-4.5782,-4.4657,-4.3808,-4.3808,-4.3033,-4.1862,-4.0376,-3.9884,-3.9978,-4.0223,-4.0455,-4.0745,-4.1344,-4.1402,-4.1151,-4.0451,-3.9778,-3.9054,-3.8217,-3.7699,-3.7596,-3.8262,-3.8841,-3.9362,-3.9594,-3.9697,-3.9697,-7.2891,-7.1786,-7.0732,-6.9928,-6.9376,-6.8848,-6.8296,-6.7668,-6.7191,-6.6664,-6.6162,-6.6112,-6.6086,-6.5936,-6.5383,-6.4655,-6.3827,-6.3651,-6.335,-6.2898,-6.2847,-6.2822,-6.2822,-6.2822,-6.2822,-6.2822,-6.2822,-6.2822,-6.2822,-6.2822,-6.2822,-6.2822,-6.2822,-6.2571,-6.2094,-6.1492,-6.0914,-6.0412,-5.9759,-5.8956,-5.8052,-5.7876,-5.7323,-5.6294,-5.5641,-5.5089,-5.4561,-5.3984,-5.3432,-5.2886,-5.2861,-5.2861,-5.2861,-5.2861,-5.2861,-5.2861,-5.2861,-5.2861,-5.2861,-5.2861,-5.2861,-5.2861,-5.2861,-5.2861,-5.2861,-5.2861,-5.2861,-5.2861,-5.2861,-5.2861,-5.2861,-5.2861,-5.2861,-5.2861,-5.2861,-5.2861,-5.2861,-5.2861,-5.2861,-5.2861,-5.2861,-5.2459,-5.1548,-5.082,-4.9821,-4.8679,-4.7805,-4.7158,-4.6315,-4.5232,-4.4691,-4.447,-4.3968,-4.3228,-4.2131,-4.1348,-4.1235,-4.1263,-4.132,-4.1606,-4.1859,-4.198,-4.1516,-4.1006,-4.0297,-3.9513,-3.8663,-3.8371,-3.8461,-3.8813,-3.905,-3.949,-3.9645,-3.9697,-3.9697,-7.2389,-7.1334,-7.0581,-6.9953,-6.9401,-6.8848,-6.8321,-6.7769,-6.7216,-6.6639,-6.6187,-6.6112,-6.6112,-6.6112,-6.5911,-6.5409,-6.468,-6.4028,-6.3576,-6.335,-6.2998,-6.2822,-6.2822,-6.2822,-6.2822,-6.2822,-6.2822,-6.2822,-6.2822,-6.2822,-6.2822,-6.2822,-6.2822,-6.2571,-6.1994,-6.1466,-6.0889,-6.0286,-5.9458,-5.8629,-5.7951,-5.7524,-5.6972,-5.6244,-5.5666,-5.5114,-5.4587,-5.4009,-5.3482,-5.2886,-5.2861,-5.2861,-5.2861,-5.2861,-5.2861,-5.2861,-5.2861,-5.2861,-5.2861,-5.2861,-5.2861,-5.2861,-5.2861,-5.2861,-5.2861,-5.2861,-5.2861,-5.2861,-5.2861,-5.2861,-5.2861,-5.2861,-5.2861,-5.2861,-5.2861,-5.2861,-5.2861,-5.2861,-5.2861,-5.2861,-5.2836,-5.2503,-5.1624,-5.1096,-5.0453,-4.9361,-4.8685,-4.7983,-4.7346,-4.6586,-4.6013,-4.564,-4.5166,-4.4709,-4.4383,-4.3026,-4.2266,-4.2062,-4.2029,-4.2142,-4.2312,-4.2369,-4.2033,-4.1576,-4.0887,-4.0355,-3.9679,-3.9404,-3.9463,-3.93,-3.9511,-3.9642,-3.9697,-3.9722,-3.9722,-7.1937,-7.1058,-7.048,-6.9828,-6.9175,-6.8773,-6.8196,-6.7543,-6.7141,-6.6664,-6.6187,-6.6112,-6.6112,-6.6112,-6.6112,-6.5936,-6.5484,-6.463,-6.4028,-6.3676,-6.3299,-6.2998,-6.2847,-6.2822,-6.2822,-6.2822,-6.2822,-6.2822,-6.2822,-6.2822,-6.2822,-6.2822,-6.2822,-6.2446,-6.1793,-6.1366,-6.0814,-6.0035,-5.9156,-5.8453,-5.7901,-5.7323,-5.6771,-5.6244,-5.5842,-5.529,-5.4612,-5.4185,-5.3632,-5.3055,-5.2861,-5.2861,-5.2861,-5.2861,-5.2861,-5.2861,-5.2861,-5.2861,-5.2861,-5.2861,-5.2861,-5.2861,-5.2861,-5.2861,-5.2861,-5.2861,-5.2861,-5.2861,-5.2861,-5.2861,-5.2861,-5.2861,-5.2861,-5.2861,-5.2861,-5.2861,-5.2861,-5.2861,-5.2861,-5.2861,-5.2861,-5.2477,-5.1749,-5.1423,-5.0845,-4.9967,-4.9264,-4.8611,-4.8209,-4.7707,-4.7179,-4.6677,-4.624,-4.5789,-4.532,-4.4302,-4.3383,-4.3044,-4.2722,-4.2793,-4.265,-4.265,-4.2469,-4.2066,-4.1632,-4.1225,-4.0829,-4.0546,-4.028,-3.9935,-3.9915,-4.0072,-3.9973,-3.9798,-3.9848,-7.1585,-7.1033,-7.048,-6.9627,-6.8748,-6.8597,-6.797,-6.7116,-6.6965,-6.6589,-6.6137,-6.6112,-6.6112,-6.6112,-6.6112,-6.6086,-6.5936,-6.5434,-6.468,-6.3827,-6.3651,-6.3324,-6.2847,-6.2822,-6.2822,-6.2822,-6.2822,-6.2822,-6.2822,-6.2822,-6.2822,-6.2822,-6.2822,-6.2295,-6.1215,-6.1165,-6.0638,-5.9684,-5.9006,-5.8453,-5.7901,-5.7323,-5.6771,-5.6269,-5.6168,-5.5666,-5.4662,-5.4561,-5.4034,-5.3105,-5.2955,-5.2861,-5.2861,-5.2861,-5.2861,-5.2861,-5.2861,-5.2861,-5.2861,-5.2861,-5.2861,-5.2861,-5.2861,-5.2861,-5.2861,-5.2861,-5.2861,-5.2861,-5.2861,-5.2861,-5.2861,-5.2861,-5.2861,-5.2861,-5.2861,-5.2861,-5.2861,-5.2861,-5.2861,-5.2861,-5.2861,-5.2703,-5.2176,-5.1674,-5.1122,-5.0368,-4.9565,-4.8887,-4.8661,-4.8209,-4.7732,-4.728,-4.6903,-4.6527,-4.5999,-4.5422,-4.4769,-4.4109,-4.3701,-4.345,-4.3025,-4.2874,-4.2737,-4.2407,-4.2177,-4.1823,-4.14,-4.111,-4.101,-4.0793,-4.0699,-4.0526,-4.045,-4.0325,-4.0099,-7.1234,-7.0958,-7.0079,-6.93,-6.8597,-6.8221,-6.7618,-6.6965,-6.6564,-6.6287,-6.6137,-6.6112,-6.6112,-6.6112,-6.6112,-6.6112,-6.6086,-6.5886,-6.5258,-6.4304,-6.3877,-6.34,-6.2923,-6.2822,-6.2822,-6.2822,-6.2822,-6.2822,-6.2822,-6.2822,-6.2822,-6.2822,-6.2822,-6.2245,-6.124,-6.1165,-6.0638,-5.9583,-5.8981,-5.8453,-5.7901,-5.7323,-5.6771,-5.6294,-5.6219,-5.5867,-5.5189,-5.4762,-5.4235,-5.3482,-5.3105,-5.2861,-5.2861,-5.2861,-5.2861,-5.2861,-5.2861,-5.2861,-5.2861,-5.2861,-5.2861,-5.2861,-5.2861,-5.2861,-5.2861,-5.2861,-5.2861,-5.2861,-5.2861,-5.2861,-5.2861,-5.2861,-5.2861,-5.2861,-5.2861,-5.2861,-5.2861,-5.2861,-5.2861,-5.2861,-5.2861,-5.2678,-5.2251,-5.1875,-5.1473,-5.067,-5.0092,-4.9665,-4.8962,-4.8686,-4.8284,-4.7782,-4.7456,-4.7018,-4.6577,-4.6024,-4.5422,-4.4794,-4.4367,-4.3966,-4.3489,-4.3087,-4.3006,-4.2799,-4.2593,-4.2343,-4.1973,-4.1747,-4.1672,-4.1447,-4.1175,-4.105,-4.1,-4.0824,-4.0601,-7.1083,-7.0958,-6.9903,-6.8999,-6.8321,-6.7919,-6.7342,-6.6664,-6.6287,-6.6112,-6.6112,-6.6112,-6.6112,-6.6112,-6.6112,-6.6112,-6.6112,-6.6112,-6.5634,-6.4781,-6.4228,-6.3676,-6.3149,-6.2898,-6.2822,-6.2822,-6.2822,-6.2822,-6.2822,-6.2822,-6.2822,-6.2822,-6.2822,-6.227,-6.1291,-6.114,-6.0613,-5.9583,-5.8981,-5.8554,-5.8127,-5.7424,-5.6872,-5.6545,-5.6319,-5.6043,-5.5691,-5.5164,-5.4511,-5.3783,-5.3206,-5.2886,-5.2861,-5.2861,-5.2861,-5.2861,-5.2861,-5.2861,-5.2861,-5.2861,-5.2861,-5.2861,-5.2861,-5.2861,-5.2861,-5.2861,-5.2861,-5.2861,-5.2861,-5.2861,-5.2861,-5.2861,-5.2861,-5.2861,-5.2861,-5.2861,-5.2861,-5.2861,-5.2861,-5.2861,-5.2861,-5.2754,-5.2528,-5.2151,-5.1875,-5.1147,-5.067,-5.0293,-4.9515,-4.9213,-4.8786,-4.8309,-4.7832,-4.7456,-4.7129,-4.6627,-4.6075,-4.5472,-4.492,-4.4468,-4.4016,-4.3589,-4.3388,-4.3031,-4.2805,-4.2755,-4.2404,-4.2459,-4.2384,-4.2032,-4.1806,-4.1656,-4.158,-4.1275,-4.105,-7.1083,-7.0932,-6.9903,-6.8823,-6.7919,-6.7819,-6.7191,-6.6237,-6.6112,-6.6112,-6.6112,-6.6112,-6.6112,-6.6112,-6.6112,-6.6112,-6.6112,-6.6112,-6.5886,-6.5283,-6.468,-6.4078,-6.345,-6.3023,-6.2822,-6.2822,-6.2822,-6.2822,-6.2822,-6.2822,-6.2822,-6.2822,-6.2797,-6.227,-6.1391,-6.119,-6.0638,-5.9583,-5.9031,-5.878,-5.8629,-5.775,-5.7148,-5.7072,-5.6595,-5.6294,-5.6194,-5.5641,-5.4813,-5.3833,-5.3206,-5.2861,-5.2861,-5.2861,-5.2861,-5.2861,-5.2861,-5.2861,-5.2861,-5.2861,-5.2861,-5.2861,-5.2861,-5.2861,-5.2861,-5.2861,-5.2861,-5.2861,-5.2861,-5.2861,-5.2861,-5.2861,-5.2861,-5.2861,-5.2861,-5.2861,-5.2861,-5.2861,-5.2861,-5.2861,-5.2861,-5.2836,-5.2829,-5.2452,-5.2201,-5.1825,-5.1122,-5.0569,-5.0167,-4.9741,-4.9364,-4.8862,-4.8335,-4.8008,-4.7707,-4.7004,-4.6502,-4.62,-4.5573,-4.502,-4.4518,-4.4066,-4.3664,-4.3338,-4.3137,-4.3062,-4.2961,-4.2911,-4.2961,-4.2861,-4.261,-4.2389,-4.2183,-4.2082,-4.1882,-7.1083,-7.0958,-6.9903,-6.8823,-6.7869,-6.7819,-6.7166,-6.6187,-6.6137,-6.6137,-6.6112,-6.6112,-6.6112,-6.6112,-6.6112,-6.6112,-6.6112,-6.6112,-6.6061,-6.576,-6.4881,-6.3927,-6.3224,-6.2923,-6.2822,-6.2822,-6.2822,-6.2822,-6.2822,-6.2822,-6.2822,-6.2822,-6.2797,-6.227,-6.1341,-6.119,-6.0588,-5.9659,-5.9382,-5.9081,-5.873,-5.8453,-5.8077,-5.765,-5.7123,-5.6846,-5.6721,-5.5892,-5.4863,-5.3783,-5.3206,-5.2861,-5.2861,-5.2861,-5.2861,-5.2861,-5.2861,-5.2861,-5.2861,-5.2861,-5.2861,-5.2861,-5.2861,-5.2861,-5.2861,-5.2861,-5.2861,-5.2861,-5.2861,-5.2861,-5.2861,-5.2861,-5.2861,-5.2861,-5.2861,-5.2861,-5.2861,-5.2861,-5.2861,-5.2861,-5.2861,-5.2861,-5.281,-5.271,-5.2528,-5.2126,-5.1498,-5.087,-5.0544,-4.9967,-4.9439,-4.9339,-4.8937,-4.8636,-4.8209,-4.7456,-4.6954,-4.6828,-4.6276,-4.5573,-4.5045,-4.4493,-4.4116,-4.3765,-4.3664,-4.3589,-4.3388,-4.3237,-4.3363,-4.3589,-4.3664,-4.3514,-4.3388,-4.3263,-4.2961,-7.1083,-7.0983,-6.9903,-6.8949,-6.8196,-6.8145,-6.7518,-6.6614,-6.6463,-6.6338,-6.6162,-6.6112,-6.6112,-6.6112,-6.6112,-6.6112,-6.6112,-6.6112,-6.5961,-6.5559,-6.463,-6.3676,-6.2998,-6.2822,-6.2822,-6.2822,-6.2822,-6.2822,-6.2822,-6.2822,-6.2822,-6.2822,-6.2822,-6.2245,-6.1266,-6.114,-6.0613,-5.9709,-5.9483,-5.9332,-5.9056,-5.883,-5.8579,-5.8177,-5.77,-5.7323,-5.6947,-5.5968,-5.4963,-5.416,-5.3557,-5.3155,-5.2886,-5.2861,-5.2861,-5.2861,-5.2861,-5.2861,-5.2861,-5.2861,-5.2861,-5.2861,-5.2861,-5.2861,-5.2861,-5.2861,-5.2861,-5.2861,-5.2861,-5.2861,-5.2861,-5.2861,-5.2861,-5.2861,-5.2861,-5.2861,-5.2861,-5.2861,-5.2861,-5.2861,-5.2861,-5.2861,-5.2861,-5.2861,-5.2779,-5.2402,-5.1749,-5.1247,-5.082,-5.0117,-4.959,-4.9464,-4.9238,-4.8862,-4.8535,-4.7908,-4.7456,-4.7305,-4.6954,-4.625,-4.5598,-4.502,-4.4669,-4.4367,-4.4242,-4.4066,-4.389,-4.379,-4.3991,-4.4242,-4.4543,-4.4543,-4.4267,-4.4141,-4.3865,-7.1133,-7.1008,-6.9953,-6.9175,-6.8648,-6.8597,-6.7995,-6.7191,-6.6965,-6.6664,-6.6312,-6.6162,-6.6112,-6.6112,-6.6112,-6.6112,-6.6112,-6.6112,-6.5685,-6.5107,-6.4228,-6.34,-6.2898,-6.2822,-6.2822,-6.2822,-6.2822,-6.2822,-6.2822,-6.2822,-6.2822,-6.2822,-6.2822,-6.227,-6.1517,-6.124,-6.0613,-5.9834,-5.9533,-5.9483,-5.9357,-5.9081,-5.888,-5.8755,-5.8278,-5.765,-5.6997,-5.6143,-5.5315,-5.4687,-5.4059,-5.3507,-5.308,-5.2936,-5.2861,-5.2861,-5.2861,-5.2861,-5.2861,-5.2861,-5.2861,-5.2861,-5.2861,-5.2861,-5.2861,-5.2861,-5.2861,-5.2861,-5.2861,-5.2861,-5.2861,-5.2861,-5.2861,-5.2861,-5.2861,-5.2861,-5.2861,-5.2861,-5.2861,-5.2861,-5.2861,-5.2861,-5.2861,-5.2861,-5.2879,-5.2402,-5.1774,-5.1247,-5.0745,-5.0092,-4.9715,-4.9565,-4.9289,-4.8962,-4.8686,-4.8385,-4.8058,-4.7782,-4.7456,-4.6903,-4.62,-4.5648,-4.5271,-4.4995,-4.4794,-4.4618,-4.4443,-4.4493,-4.4669,-4.4819,-4.5045,-4.4945,-4.4744,-4.4719,-4.4568,-7.146,-7.1033,-7.038,-6.9526,-6.8698,-6.8597,-6.8246,-6.7618,-6.7166,-6.694,-6.6689,-6.6312,-6.6112,-6.6112,-6.6112,-6.6112,-6.6061,-6.5961,-6.5609,-6.463,-6.4028,-6.3375,-6.2923,-6.2822,-6.2822,-6.2822,-6.2822,-6.2822,-6.2822,-6.2822,-6.2822,-6.2822,-6.2797,-6.2496,-6.1868,-6.1391,-6.0864,-6.0186,-5.9759,-5.9583,-5.9558,-5.9433,-5.9307,-5.9257,-5.878,-5.8027,-5.7223,-5.6821,-5.6219,-5.5265,-5.4336,-5.3758,-5.3457,-5.3155,-5.298,-5.2861,-5.2861,-5.2861,-5.2861,-5.2861,-5.2861,-5.2861,-5.2861,-5.2861,-5.2861,-5.2861,-5.2861,-5.2861,-5.2861,-5.2861,-5.2861,-5.2861,-5.2861,-5.2861,-5.2861,-5.2861,-5.2861,-5.2861,-5.2861,-5.2861,-5.2861,-5.2861,-5.2836,-5.2854,-5.2678,-5.2302,-5.1749,-5.1122,-5.0594,-5.0042,-4.9791,-4.959,-4.949,-4.9213,-4.9088,-4.8837,-4.851,-4.8234,-4.7933,-4.7556,-4.6853,-4.6376,-4.6024,-4.5673,-4.5347,-4.5171,-4.5045,-4.5121,-4.5296,-4.5447,-4.5547,-4.5472,-4.5397,-4.5347,-4.5146,-7.1736,-7.1384,-7.0606,-6.9928,-6.9401,-6.9125,-6.8698,-6.8145,-6.7593,-6.7216,-6.689,-6.6363,-6.6112,-6.6112,-6.6086,-6.5986,-6.5609,-6.5157,-6.468,-6.4028,-6.355,-6.3124,-6.2923,-6.2822,-6.2822,-6.2822,-6.2822,-6.2822,-6.2822,-6.2822,-6.2822,-6.2822,-6.2822,-6.2521,-6.2069,-6.1692,-6.1291,-6.0814,-6.0462,-6.0186,-5.9935,-5.9885,-5.9684,-5.9458,-5.9006,-5.8378,-5.7926,-5.7273,-5.6771,-5.6043,-5.5114,-5.421,-5.3758,-5.3432,-5.3206,-5.2886,-5.2861,-5.2861,-5.2861,-5.2861,-5.2861,-5.2861,-5.2861,-5.2861,-5.2861,-5.2861,-5.2861,-5.2861,-5.2861,-5.2861,-5.2861,-5.2861,-5.2861,-5.2861,-5.2861,-5.2861,-5.2861,-5.2861,-5.2861,-5.2861,-5.2861,-5.2754,-5.2678,-5.2603,-5.2251,-5.1774,-5.1247,-5.067,-5.0519,-5.0042,-4.9766,-4.959,-4.959,-4.9515,-4.949,-4.9264,-4.8937,-4.8661,-4.841,-4.8033,-4.7506,-4.7129,-4.6803,-4.6351,-4.5874,-4.5824,-4.5723,-4.5824,-4.5824,-4.5924,-4.5974,-4.6024,-4.5999,-4.5849,-4.5573,-7.1937,-7.1711,-7.0782,-7.0305,-7.0079,-6.9627,-6.9175,-6.8698,-6.807,-6.7518,-6.7041,-6.6413,-6.6112,-6.6086,-6.5961,-6.566,-6.5057,-6.4304,-6.3827,-6.3726,-6.3199,-6.2923,-6.2822,-6.2822,-6.2822,-6.2822,-6.2822,-6.2822,-6.2822,-6.2822,-6.2822,-6.2822,-6.2822,-6.2621,-6.2245,-6.1994,-6.1743,-6.1341,-6.109,-6.0864,-6.0462,-6.0337,-5.9985,-5.9508,-5.9156,-5.8805,-5.8403,-5.7775,-5.7123,-5.6997,-5.6068,-5.5039,-5.4235,-5.3708,-5.3557,-5.308,-5.3005,-5.2861,-5.2861,-5.2861,-5.2861,-5.2861,-5.2861,-5.2861,-5.2861,-5.2861,-5.2861,-5.2861,-5.2861,-5.2861,-5.2861,-5.2861,-5.2861,-5.2861,-5.2861,-5.2861,-5.2861,-5.2861,-5.2861,-5.2904,-5.2754,-5.2503,-5.2251,-5.2101,-5.1674,-5.1247,-5.072,-5.0318,-5.0193,-5.0017,-4.9741,-4.959,-4.959,-4.959,-4.9565,-4.954,-4.9238,-4.9088,-4.8837,-4.8535,-4.8184,-4.7933,-4.7531,-4.6803,-4.6426,-4.6326,-4.62,-4.6125,-4.6175,-4.6301,-4.6276,-4.62,-4.6225,-4.6301,-4.6024,-7.2062,-7.1209,-7.1033,-7.043,-6.9652,-6.9476,-6.9285,-6.915,-6.8196,-6.7744,-6.7493,-6.6589,-6.6112,-6.5986,-6.5584,-6.5132,-6.4555,-6.3902,-6.3626,-6.3525,-6.3099,-6.2822,-6.2822,-6.2822,-6.2822,-6.2822,-6.2822,-6.2822,-6.2822,-6.2822,-6.2822,-6.2822,-6.2822,-6.2722,-6.2546,-6.2295,-6.2044,-6.1843,-6.1542,-6.1266,-6.1014,-6.0537,-6.0111,-5.9608,-5.9382,-5.9131,-5.8704,-5.8127,-5.7549,-5.7047,-5.642,-5.5767,-5.5064,-5.426,-5.3783,-5.3482,-5.313,-5.2861,-5.2861,-5.2861,-5.2861,-5.2861,-5.2861,-5.2861,-5.2861,-5.2861,-5.2861,-5.2861,-5.2861,-5.2861,-5.2861,-5.2861,-5.2861,-5.2861,-5.2861,-5.2861,-5.2861,-5.2861,-5.2836,-5.281,-5.2484,-5.2151,-5.1825,-5.1498,-5.1122,-5.0795,-5.0419,-5.0067,-4.9866,-4.9791,-4.9665,-4.959,-4.959,-4.959,-4.959,-4.959,-4.9464,-4.9439,-4.9264,-4.9088,-4.8812,-4.8686,-4.8234,-4.7531,-4.6979,-4.6728,-4.6577,-4.6426,-4.6401,-4.6476,-4.6401,-4.6351,-4.6577,-4.6753,-4.6577,-7.1987,-7.146,-7.0907,-7.0355,-6.9878,-6.9551,-6.9275,-6.8924,-6.817,-6.7643,-6.7191,-6.6488,-6.5936,-6.5685,-6.5434,-6.4856,-6.4103,-6.35,-6.3274,-6.3149,-6.2973,-6.2822,-6.2822,-6.2822,-6.2822,-6.2822,-6.2822,-6.2822,-6.2822,-6.2822,-6.2822,-6.2822,-6.2822,-6.2822,-6.2797,-6.2596,-6.2446,-6.232,-6.2144,-6.1868,-6.1542,-6.0814,-6.0186,-5.996,-5.9633,-5.9357,-5.9056,-5.8278,-5.7801,-5.7399,-5.6671,-5.6168,-5.5641,-5.5064,-5.4285,-5.3783,-5.3256,-5.2861,-5.2861,-5.2861,-5.2861,-5.2861,-5.2861,-5.2861,-5.2861,-5.2861,-5.2861,-5.2861,-5.2861,-5.2861,-5.2861,-5.2861,-5.2861,-5.2861,-5.2861,-5.2861,-5.2861,-5.2861,-5.2742,-5.2573,-5.2334,-5.1832,-5.1155,-5.0829,-5.0544,-5.0293,-5.0067,-4.9841,-4.9615,-4.959,-4.959,-4.959,-4.959,-4.959,-4.959,-4.959,-4.959,-4.959,-4.9565,-4.9389,-4.9314,-4.9138,-4.8786,-4.8259,-4.7757,-4.723,-4.6853,-4.6652,-4.6652,-4.6677,-4.6753,-4.6878,-4.7079,-4.7154,-4.7029,-7.1786,-7.151,-7.0631,-7.0204,-7.0029,-6.9501,-6.9049,-6.8547,-6.7919,-6.7392,-6.6915,-6.6262,-6.5685,-6.5333,-6.4957,-6.4404,-6.35,-6.2998,-6.2898,-6.2873,-6.2847,-6.2822,-6.2822,-6.2822,-6.2822,-6.2822,-6.2822,-6.2822,-6.2822,-6.2822,-6.2822,-6.2822,-6.2822,-6.2822,-6.2797,-6.2772,-6.2822,-6.2822,-6.2822,-6.2546,-6.1893,-6.1065,-6.0412,-6.0261,-5.9784,-5.9483,-5.9357,-5.8453,-5.7951,-5.7549,-5.6897,-5.6194,-5.6118,-5.5691,-5.4988,-5.4135,-5.3432,-5.3105,-5.2929,-5.2861,-5.2861,-5.2861,-5.2861,-5.2861,-5.2861,-5.2861,-5.2861,-5.2861,-5.2861,-5.2861,-5.2861,-5.2861,-5.2861,-5.2861,-5.2861,-5.2861,-5.2861,-5.2836,-5.2598,-5.2398,-5.2065,-5.1582,-5.0863,-5.0328,-5.0092,-5.0017,-4.9816,-4.9791,-4.959,-4.959,-4.959,-4.959,-4.959,-4.959,-4.959,-4.959,-4.959,-4.959,-4.959,-4.9515,-4.9515,-4.9515,-4.9163,-4.8862,-4.8259,-4.7732,-4.7305,-4.7054,-4.7129,-4.723,-4.728,-4.7355,-4.7481,-4.7581,-4.7556,-7.1334,-7.0455,-7.0305,-6.9978,-6.9476,-6.8949,-6.8698,-6.8447,-6.7518,-6.7041,-6.6764,-6.5911,-6.5383,-6.5032,-6.4254,-6.355,-6.3073,-6.2898,-6.2822,-6.2822,-6.2822,-6.2822,-6.2822,-6.2822,-6.2822,-6.2822,-6.2822,-6.2822,-6.2822,-6.2822,-6.2822,-6.2822,-6.2822,-6.2822,-6.2822,-6.2822,-6.2822,-6.2822,-6.2822,-6.2571,-6.2044,-6.1391,-6.0839,-6.0362,-5.9834,-5.9508,-5.9357,-5.8504,-5.7926,-5.7775,-5.6821,-5.6269,-5.6118,-5.5691,-5.5415,-5.4913,-5.426,-5.3406,-5.308,-5.2886,-5.2861,-5.2861,-5.2861,-5.2861,-5.2861,-5.2861,-5.2861,-5.2861,-5.2861,-5.2861,-5.2861,-5.2861,-5.2861,-5.2861,-5.2861,-5.2861,-5.2861,-5.2861,-5.2623,-5.2229,-5.1947,-5.1339,-5.0663,-5.0127,-4.9665,-4.9615,-4.9615,-4.969,-4.9715,-4.9791,-4.9615,-4.9615,-4.959,-4.959,-4.959,-4.959,-4.9615,-4.9615,-4.9615,-4.964,-4.9766,-4.9816,-4.9766,-4.9389,-4.8862,-4.8586,-4.841,-4.8184,-4.7908,-4.7782,-4.7832,-4.7832,-4.7832,-4.7933,-4.8134,-7.043,-7.0296,-6.9577,-6.92,-6.8924,-6.8396,-6.797,-6.7618,-6.7191,-6.6614,-6.6036,-6.5559,-6.4982,-6.4412,-6.3525,-6.3099,-6.2847,-6.2822,-6.2822,-6.2822,-6.2822,-6.2822,-6.2822,-6.2822,-6.2822,-6.2822,-6.2822,-6.2822,-6.2822,-6.2822,-6.2822,-6.2822,-6.2822,-6.2822,-6.2822,-6.2822,-6.2822,-6.2822,-6.2822,-6.2722,-6.232,-6.1667,-6.1065,-6.0763,-5.996,-5.9583,-5.9257,-5.8478,-5.7926,-5.77,-5.6821,-5.6244,-5.6194,-5.5968,-5.5742,-5.529,-5.4662,-5.3959,-5.3457,-5.3105,-5.2955,-5.2861,-5.2861,-5.2861,-5.2861,-5.2861,-5.2861,-5.2861,-5.2861,-5.2861,-5.2861,-5.2861,-5.2861,-5.2861,-5.2861,-5.2861,-5.2861,-5.2861,-5.2692,-5.2248,-5.1854,-5.1372,-5.0913,-5.0554,-5.0243,-5.0167,-5.0318,-5.0519,-5.0419,-5.0318,-5.0017,-4.9615,-4.9615,-4.959,-4.959,-4.959,-4.964,-4.964,-4.964,-4.9741,-5.0042,-5.0117,-5.0142,-5.0368,-5.0318,-5.0017,-4.964,-4.8912,-4.8259,-4.8284,-4.841,-4.846,-4.8535,-4.8812,-4.8962,-6.9401,-6.9551,-6.8748,-6.8422,-6.8371,-6.7819,-6.7292,-6.6789,-6.6589,-6.6072,-6.5427,-6.5218,-6.4637,-6.3931,-6.3426,-6.328,-6.3148,-6.2985,-6.2985,-6.2985,-6.2822,-6.2822,-6.2822,-6.2822,-6.2822,-6.2822,-6.2822,-6.2822,-6.2822,-6.2822,-6.2822,-6.2822,-6.2822,-6.2822,-6.2822,-6.2822,-6.2822,-6.2822,-6.2822,-6.2797,-6.2621,-6.1893,-6.1416,-6.0914,-6.0311,-5.9633,-5.9357,-5.8478,-5.7926,-5.77,-5.6821,-5.6219,-5.6194,-5.6143,-5.5867,-5.5415,-5.4787,-5.4235,-5.3683,-5.3256,-5.2936,-5.2861,-5.2861,-5.2861,-5.2861,-5.2861,-5.2861,-5.2861,-5.2861,-5.2861,-5.2861,-5.2861,-5.2861,-5.2861,-5.2861,-5.2861,-5.2861,-5.2861,-5.281,-5.2516,-5.2216,-5.1872,-5.1464,-5.1105,-5.0896,-5.0745,-5.0946,-5.1247,-5.1096,-5.082,-5.0393,-4.9891,-4.9665,-4.964,-4.959,-4.9615,-4.964,-4.9766,-4.9766,-5.0017,-5.0469,-5.067,-5.072,-5.1021,-5.1348,-5.1046,-5.0444,-4.949,-4.8636,-4.8987,-4.9264,-4.9213,-4.9314,-4.954,-4.9565,-6.8396,-6.7945,-6.7869,-6.7819,-6.7769,-6.7267,-6.6689,-6.6147,-6.572,-6.5445,-6.5173,-6.497,-6.4704,-6.4163,-6.4061,-6.3958,-6.3958,-6.3635,-6.3392,-6.323,-6.3067,-6.2822,-6.2822,-6.2822,-6.2822,-6.2822,-6.2822,-6.2822,-6.2822,-6.2822,-6.2822,-6.2822,-6.2822,-6.2822,-6.2822,-6.2822,-6.2822,-6.2822,-6.2822,-6.2822,-6.2672,-6.2195,-6.1667,-6.114,-6.0588,-6.001,-5.9483,-5.8478,-5.7901,-5.7851,-5.6821,-5.6244,-5.6219,-5.6219,-5.5942,-5.5415,-5.4863,-5.431,-5.3758,-5.3256,-5.2911,-5.2861,-5.2861,-5.2861,-5.2861,-5.2861,-5.2861,-5.2861,-5.2861,-5.2861,-5.2861,-5.2861,-5.2861,-5.2861,-5.2861,-5.2861,-5.2861,-5.2861,-5.281,-5.2735,-5.2535,-5.2216,-5.2141,-5.1832,-5.1498,-5.1322,-5.1448,-5.1774,-5.1398,-5.1096,-5.0695,-5.0243,-4.9866,-4.969,-4.9615,-4.9665,-4.9866,-5.0142,-5.0268,-5.0645,-5.1096,-5.1222,-5.1297,-5.1498,-5.1724,-5.1498,-5.1272,-5.0569,-5.0092,-5.0092,-5.0067,-4.9766,-4.9565,-4.9565,-4.959,-6.834,-6.8086,-6.7656,-6.7409,-6.7172,-6.6873,-6.6458,-6.5975,-6.5695,-6.5563,-6.5411,-6.5249,-6.5102,-6.4866,-6.4601,-6.4441,-6.436,-6.3797,-6.3554,-6.3311,-6.3067,-6.2822,-6.2822,-6.2822,-6.2822,-6.2822,-6.2822,-6.2822,-6.2822,-6.2822,-6.2822,-6.2822,-6.2822,-6.2822,-6.2822,-6.2822,-6.2822,-6.2822,-6.2822,-6.2822,-6.2722,-6.2295,-6.1743,-6.119,-6.0613,-6.006,-5.9433,-5.8453,-5.8052,-5.7625,-5.6771,-5.6394,-5.6219,-5.6219,-5.5892,-5.539,-5.4838,-5.4285,-5.3708,-5.3231,-5.2886,-5.2861,-5.2861,-5.2861,-5.2861,-5.2861,-5.2861,-5.2861,-5.2861,-5.2861,-5.2861,-5.2861,-5.2861,-5.2861,-5.2861,-5.2861,-5.2861,-5.2861,-5.2861,-5.2785,-5.276,-5.2635,-5.261,-5.2585,-5.2184,-5.1925,-5.2101,-5.2151,-5.1825,-5.1473,-5.1122,-5.072,-5.0343,-4.9992,-4.9891,-5.0017,-5.0167,-5.0494,-5.0795,-5.1222,-5.1649,-5.1749,-5.185,-5.2026,-5.2201,-5.2176,-5.2026,-5.1749,-5.1398,-5.0996,-5.0494,-5.0017,-4.9841,-4.9665,-4.959,-6.8201,-6.7899,-6.7706,-6.7292,-6.6975,-6.6798,-6.6398,-6.6016,-6.5883,-6.5955,-6.5892,-6.6029,-6.608,-6.5845,-6.5687,-6.5292,-6.4974,-6.436,-6.3878,-6.3554,-6.3148,-6.2822,-6.2822,-6.2822,-6.2822,-6.2822,-6.2822,-6.2822,-6.2822,-6.2822,-6.2822,-6.2822,-6.2822,-6.2822,-6.2822,-6.2822,-6.2822,-6.2822,-6.2822,-6.2822,-6.2747,-6.2471,-6.1843,-6.1316,-6.0788,-6.0211,-5.9458,-5.8529,-5.7976,-5.7549,-5.6947,-5.6319,-5.6219,-5.6118,-5.5817,-5.529,-5.4762,-5.4235,-5.3582,-5.3206,-5.2861,-5.2861,-5.2861,-5.2861,-5.2861,-5.2861,-5.2861,-5.2861,-5.2861,-5.2861,-5.2861,-5.2861,-5.2861,-5.2861,-5.2861,-5.2861,-5.2861,-5.2861,-5.2861,-5.2836,-5.281,-5.281,-5.2785,-5.276,-5.261,-5.2377,-5.2477,-5.2528,-5.2377,-5.2026,-5.1674,-5.1297,-5.0896,-5.0544,-5.0243,-5.0494,-5.0795,-5.1197,-5.1498,-5.18,-5.2101,-5.2226,-5.2352,-5.2503,-5.2678,-5.281,-5.2635,-5.2327,-5.1975,-5.1624,-5.0996,-5.0318,-5.0042,-4.9866,-4.964,-6.8085,-6.7174,-6.7931,-6.7924,-6.7416,-6.7112,-6.6782,-6.6366,-6.6394,-6.6503,-6.6839,-6.748,-6.7661,-6.7353,-6.7121,-6.6655,-6.5766,-6.4974,-6.4335,-6.3878,-6.3148,-6.2904,-6.2822,-6.2822,-6.2822,-6.2822,-6.2822,-6.2822,-6.2822,-6.2822,-6.2822,-6.2822,-6.2822,-6.2822,-6.2822,-6.2822,-6.2822,-6.2822,-6.2822,-6.2822,-6.2797,-6.2722,-6.2144,-6.1391,-6.109,-6.0537,-5.9508,-5.8478,-5.7951,-5.7725,-5.6821,-5.6269,-5.6219,-5.6219,-5.5717,-5.4762,-5.4637,-5.4059,-5.3105,-5.298,-5.2929,-5.2861,-5.2861,-5.2861,-5.2861,-5.2861,-5.2861,-5.2861,-5.2861,-5.2861,-5.2861,-5.2861,-5.2861,-5.2861,-5.2861,-5.2861,-5.2861,-5.2861,-5.2861,-5.2861,-5.2861,-5.2861,-5.2861,-5.2861,-5.2836,-5.2785,-5.2836,-5.2854,-5.2729,-5.2528,-5.2151,-5.1774,-5.1373,-5.1096,-5.087,-5.1096,-5.1398,-5.1825,-5.2126,-5.2352,-5.2528,-5.2628,-5.2779,-5.2861,-5.2861,-5.2861,-5.2861,-5.2785,-5.2503,-5.2051,-5.1247,-5.0619,-5.0343,-5.0167,-5.0092,-6.9053,-6.8732,-6.9194,-6.9218,-6.8962,-6.8328,-6.7847,-6.747,-6.7828,-6.8181,-6.8427,-6.9184,-6.9259,-6.8882,-6.8198,-6.7661,-6.6732,-6.5212,-6.4495,-6.4039,-6.323,-6.2904,-6.2822,-6.2822,-6.2822,-6.2822,-6.2822,-6.2822,-6.2822,-6.2822,-6.2822,-6.2822,-6.2822,-6.2822,-6.2822,-6.2822,-6.2822,-6.2822,-6.2822,-6.2822,-6.2822,-6.2772,-6.232,-6.1266,-6.119,-6.0613,-5.9533,-5.8478,-5.8001,-5.7801,-5.6846,-5.6294,-5.6219,-5.6219,-5.5691,-5.4838,-5.4536,-5.4059,-5.3256,-5.2861,-5.2861,-5.2861,-5.2861,-5.2861,-5.2861,-5.2861,-5.2861,-5.2861,-5.2861,-5.2861,-5.2861,-5.2861,-5.2861,-5.2861,-5.2861,-5.2861,-5.2861,-5.2861,-5.2861,-5.2861,-5.2861,-5.2861,-5.2861,-5.2861,-5.2861,-5.2861,-5.2861,-5.2861,-5.2829,-5.2779,-5.2553,-5.2176,-5.1825,-5.1599,-5.1498,-5.1699,-5.18,-5.2076,-5.2402,-5.2703,-5.281,-5.2861,-5.2861,-5.2861,-5.2861,-5.2861,-5.2861,-5.2861,-5.2785,-5.2452,-5.1774,-5.1222,-5.0971,-5.0896,-5.0896,-6.9999,-6.9934,-7.0254,-7.0389,-7.0314,-6.9557,-6.906,-6.8909,-6.9532,-6.9905,-7.0054,-7.0571,-7.0571,-6.9979,-6.9231,-6.8198,-6.7198,-6.5687,-6.4495,-6.4039,-6.323,-6.2904,-6.2822,-6.2822,-6.2822,-6.2822,-6.2822,-6.2822,-6.2822,-6.2822,-6.2822,-6.2822,-6.2822,-6.2822,-6.2822,-6.2822,-6.2822,-6.2822,-6.2822,-6.2822,-6.2822,-6.2697,-6.2295,-6.1517,-6.104,-6.0663,-5.9583,-5.8755,-5.8077,-5.77,-5.7097,-5.6394,-5.6294,-5.6093,-5.5641,-5.4913,-5.4059,-5.3658,-5.3105,-5.2861,-5.2861,-5.2861,-5.2861,-5.2861,-5.2861,-5.2861,-5.2861,-5.2861,-5.2861,-5.2861,-5.2861,-5.2861,-5.2861,-5.2861,-5.2861,-5.2861,-5.2861,-5.2861,-5.2861,-5.2861,-5.2861,-5.2861,-5.2861,-5.2861,-5.2861,-5.2861,-5.2861,-5.2861,-5.2861,-5.2879,-5.2854,-5.2553,-5.2352,-5.2201,-5.2151,-5.2251,-5.2352,-5.2377,-5.2628,-5.2836,-5.2861,-5.2861,-5.2861,-5.2861,-5.2861,-5.2861,-5.2861,-5.2836,-5.281,-5.2829,-5.2553,-5.2051,-5.1649,-5.1498,-5.1448,-7.0913,-7.048,-7.113,-7.145,-7.1377,-7.0775,-7.048,-7.0452,-7.113,-7.1421,-7.1494,-7.1783,-7.1566,-7.0837,-7.0054,-6.8779,-6.7276,-6.595,-6.492,-6.4039,-6.323,-6.2985,-6.2822,-6.2822,-6.2822,-6.2822,-6.2822,-6.2822,-6.2822,-6.2822,-6.2822,-6.2822,-6.2822,-6.2822,-6.2822,-6.2822,-6.2822,-6.2822,-6.2822,-6.2822,-6.2822,-6.2797,-6.2195,-6.1517,-6.109,-6.0537,-5.9684,-5.8905,-5.8378,-5.7876,-5.7298,-5.6746,-5.642,-5.6219,-5.5516,-5.4662,-5.3632,-5.3155,-5.2886,-5.2861,-5.2861,-5.2861,-5.2861,-5.2861,-5.2861,-5.2861,-5.2861,-5.2861,-5.2861,-5.2861,-5.2861,-5.2861,-5.2861,-5.2861,-5.2861,-5.2861,-5.2861,-5.2861,-5.2861,-5.2861,-5.2861,-5.2861,-5.2861,-5.2861,-5.2861,-5.2861,-5.2861,-5.2861,-5.2861,-5.2861,-5.2836,-5.281,-5.2754,-5.276,-5.2804,-5.2678,-5.2678,-5.2628,-5.2729,-5.2861,-5.2861,-5.2861,-5.2861,-5.2861,-5.2861,-5.2861,-5.2861,-5.2861,-5.2861,-5.2854,-5.2779,-5.2628,-5.2151,-5.1875,-5.1749,-7.2129,-7.1956,-7.253,-7.2673,-7.2744,-7.2773,-7.2488,-7.2028,-7.2459,-7.2644,-7.2673,-7.2815,-7.2229,-7.1566,-7.06,-6.9156,-6.7634,-6.6185,-6.5,-6.4039,-6.323,-6.2904,-6.2822,-6.2822,-6.2822,-6.2822,-6.2822,-6.2822,-6.2822,-6.2822,-6.2822,-6.2822,-6.2822,-6.2822,-6.2822,-6.2822,-6.2822,-6.2822,-6.2822,-6.2822,-6.2797,-6.2797,-6.2094,-6.1492,-6.1115,-6.0487,-5.9659,-5.9056,-5.8504,-5.7926,-5.7349,-5.6796,-5.6269,-5.6168,-5.5717,-5.4637,-5.3658,-5.2861,-5.2861,-5.2861,-5.2861,-5.2861,-5.2861,-5.2861,-5.2861,-5.2861,-5.2861,-5.2861,-5.2861,-5.2861,-5.2861,-5.2861,-5.2861,-5.2861,-5.2861,-5.2861,-5.2861,-5.2861,-5.2861,-5.2861,-5.2861,-5.2861,-5.2861,-5.2861,-5.2861,-5.2861,-5.2861,-5.2861,-5.2861,-5.2861,-5.2861,-5.2861,-5.2861,-5.2861,-5.2861,-5.2829,-5.281,-5.2836,-5.2861,-5.2861,-5.2861,-5.2861,-5.2861,-5.2861,-5.2861,-5.2861,-5.2861,-5.2861,-5.2861,-5.2861,-5.2879,-5.2804,-5.2678,-5.2377,-5.2226,-7.3057,-7.3128,-7.3451,-7.3731,-7.3871,-7.411,-7.3901,-7.3621,-7.3591,-7.3503,-7.3029,-7.283,-7.215,-7.0922,-6.9787,-6.8469,-6.6872,-6.5661,-6.4681,-6.3797,-6.3148,-6.2904,-6.2822,-6.2822,-6.2822,-6.2822,-6.2822,-6.2822,-6.2822,-6.2822,-6.2822,-6.2822,-6.2822,-6.2822,-6.2822,-6.2822,-6.2822,-6.2822,-6.2822,-6.2822,-6.2772,-6.2621,-6.1943,-6.1366,-6.1065,-6.0337,-5.9633,-5.9106,-5.8654,-5.8052,-5.7474,-5.6972,-5.6369,-5.5993,-5.5566,-5.4561,-5.3833,-5.3206,-5.3005,-5.2861,-5.2861,-5.2861,-5.2861,-5.2861,-5.2861,-5.2861,-5.2861,-5.2861,-5.2861,-5.2861,-5.2861,-5.2861,-5.2861,-5.2861,-5.2861,-5.2861,-5.2861,-5.2861,-5.2861,-5.2861,-5.2861,-5.2861,-5.2861,-5.2861,-5.2861,-5.2861,-5.2861,-5.2861,-5.2861,-5.2861,-5.2861,-5.2861,-5.2861,-5.2861,-5.2861,-5.2861,-5.2861,-5.2861,-5.2861,-5.2861,-5.2861,-5.2861,-5.2861,-5.2861,-5.2861,-5.2861,-5.2861,-5.2861,-5.2861,-5.2861,-5.2861,-5.281,-5.2854,-5.2779,-5.2703,-7.3901,-7.3901,-7.4179,-7.4525,-7.4869,-7.4809,-7.4681,-7.4779,-7.4218,-7.3665,-7.2876,-7.2354,-7.1266,-6.9993,-6.8888,-6.7504,-6.6273,-6.5188,-6.4415,-6.3473,-6.3067,-6.2822,-6.2822,-6.2822,-6.2822,-6.2822,-6.2822,-6.2822,-6.2822,-6.2822,-6.2822,-6.2822,-6.2822,-6.2822,-6.2822,-6.2822,-6.2822,-6.2822,-6.2822,-6.2822,-6.2672,-6.232,-6.1743,-6.119,-6.0688,-6.0085,-5.9659,-5.9307,-5.9006,-5.8278,-5.775,-5.7273,-5.6445,-5.5591,-5.5039,-5.4536,-5.3833,-5.3331,-5.3005,-5.2861,-5.2861,-5.2861,-5.2861,-5.2861,-5.2861,-5.2861,-5.2861,-5.2861,-5.2861,-5.2861,-5.2861,-5.2861,-5.2861,-5.2861,-5.2861,-5.2861,-5.2861,-5.2861,-5.2861,-5.2861,-5.2861,-5.2861,-5.2861,-5.2861,-5.2861,-5.2861,-5.2861,-5.2861,-5.2861,-5.2861,-5.2861,-5.2861,-5.2861,-5.2861,-5.2861,-5.2861,-5.2861,-5.2861,-5.2861,-5.2861,-5.2861,-5.2861,-5.2861,-5.2861,-5.2861,-5.2861,-5.2861,-5.2861,-5.2861,-5.2861,-5.2861,-5.2861,-5.2861,-5.2861,-5.2861,-7.4663,-7.4663,-7.4731,-7.48,-7.4809,-7.433,-7.4121,-7.4061,-7.3515,-7.3244,-7.3014,-7.1983,-7.0703,-6.9365,-6.8344,-6.7012,-6.5725,-6.4873,-6.4203,-6.3554,-6.2985,-6.2822,-6.2822,-6.2822,-6.2822,-6.2822,-6.2822,-6.2822,-6.2822,-6.2822,-6.2822,-6.2822,-6.2822,-6.2822,-6.2822,-6.2822,-6.2822,-6.2822,-6.2822,-6.2797,-6.2728,-6.227,-6.1743,-6.1165,-6.0613,-6.0113,-5.9736,-5.9458,-5.8855,-5.8127,-5.7951,-5.7273,-5.6294,-5.534,-5.4787,-5.4436,-5.3733,-5.3256,-5.3005,-5.2861,-5.2861,-5.2861,-5.2861,-5.2861,-5.2861,-5.2861,-5.2861,-5.2861,-5.2861,-5.2861,-5.2861,-5.2861,-5.2861,-5.2861,-5.2861,-5.2861,-5.2861,-5.2861,-5.2861,-5.2861,-5.2861,-5.2861,-5.2861,-5.2861,-5.2861,-5.2861,-5.2861,-5.2861,-5.2861,-5.2861,-5.2861,-5.2861,-5.2861,-5.2861,-5.2861,-5.2861,-5.2861,-5.2861,-5.2861,-5.2861,-5.2861,-5.2861,-5.2861,-5.2861,-5.2861,-5.2861,-5.2861,-5.2861,-5.2861,-5.2861,-5.2861,-5.2861,-5.2861,-5.2861,-5.2861,-7.4001,-7.4001,-7.4001,-7.4001,-7.3941,-7.3612,-7.3462,-7.3343,-7.2574,-7.2149,-7.1942,-7.1004,-6.9789,-6.84,-6.746,-6.6336,-6.4997,-6.4636,-6.3856,-6.323,-6.2985,-6.2822,-6.2822,-6.2822,-6.2822,-6.2822,-6.2822,-6.2822,-6.2904,-6.2822,-6.2822,-6.2822,-6.2822,-6.2822,-6.2822,-6.2822,-6.2822,-6.2822,-6.2822,-6.2803,-6.2683,-6.221,-6.1807,-6.1356,-6.0829,-6.0273,-5.9993,-5.9664,-5.9008,-5.8052,-5.7424,-5.6947,-5.6143,-5.5465,-5.4888,-5.4436,-5.3858,-5.3181,-5.3005,-5.2861,-5.2861,-5.2861,-5.2861,-5.2861,-5.2861,-5.2861,-5.2861,-5.2861,-5.2861,-5.2861,-5.2861,-5.2861,-5.2861,-5.2861,-5.2861,-5.2861,-5.2861,-5.2861,-5.2861,-5.2861,-5.2861,-5.2861,-5.2861,-5.2861,-5.2861,-5.2861,-5.2861,-5.2861,-5.2861,-5.2861,-5.2861,-5.2861,-5.2861,-5.2861,-5.2861,-5.2861,-5.2861,-5.2861,-5.2861,-5.2861,-5.2861,-5.2861,-5.2861,-5.2861,-5.2861,-5.2861,-5.2861,-5.2861,-5.2861,-5.2861,-5.2861,-5.2861,-5.2861,-5.2861,-5.2861,-7.2954,-7.2924,-7.2954,-7.2924,-7.2894,-7.2804,-7.2774,-7.2588,-7.1688,-7.0858,-7.0273,-6.9854,-6.8389,-6.6944,-6.5993,-6.4781,-6.4089,-6.4003,-6.3453,-6.3067,-6.2822,-6.2822,-6.2822,-6.2822,-6.2904,-6.2904,-6.2985,-6.3067,-6.3148,-6.3148,-6.3148,-6.2985,-6.2985,-6.2985,-6.2985,-6.2904,-6.2985,-6.3067,-6.3098,-6.2896,-6.2577,-6.2154,-6.1875,-6.1524,-6.1069,-6.0559,-6.0278,-5.987,-5.9262,-5.8177,-5.7071,-5.6495,-5.6018,-5.5465,-5.4988,-5.4461,-5.3808,-5.3281,-5.303,-5.2861,-5.2861,-5.2861,-5.2861,-5.2861,-5.2861,-5.2861,-5.2861,-5.2861,-5.2861,-5.2861,-5.2861,-5.2861,-5.2861,-5.2861,-5.2861,-5.2861,-5.2861,-5.2861,-5.2861,-5.2861,-5.2861,-5.2861,-5.2861,-5.2861,-5.2861,-5.2861,-5.2861,-5.2861,-5.2861,-5.2861,-5.2861,-5.2861,-5.2861,-5.2861,-5.2861,-5.2861,-5.2861,-5.2861,-5.2861,-5.2861,-5.2861,-5.2861,-5.2861,-5.2861,-5.2861,-5.2861,-5.2861,-5.2861,-5.2861,-5.2861,-5.2861,-5.2861,-5.2861,-5.2861,-5.2861,-7.2924,-7.2924,-7.2924,-7.2894,-7.2804,-7.2325,-7.2086,-7.19,-7.1004,-7.0179,-6.9582,-6.8918,-6.7622,-6.5633,-6.5234,-6.4363,-6.3597,-6.3578,-6.3291,-6.2904,-6.2822,-6.2822,-6.2822,-6.2904,-6.3067,-6.323,-6.3392,-6.3554,-6.3716,-6.3797,-6.3878,-6.3878,-6.3878,-6.3797,-6.3822,-6.3716,-6.3554,-6.3635,-6.3529,-6.3457,-6.3287,-6.2754,-6.1857,-6.1452,-6.1044,-6.0763,-6.0508,-6.0278,-5.944,-5.8351,-5.7118,-5.6516,-5.6015,-5.5512,-5.4959,-5.4461,-5.3783,-5.3256,-5.3005,-5.2861,-5.2861,-5.2861,-5.2861,-5.2861,-5.2861,-5.2861,-5.2861,-5.2861,-5.2861,-5.2861,-5.2861,-5.2861,-5.2861,-5.2861,-5.2861,-5.2861,-5.2861,-5.2861,-5.2861,-5.2861,-5.2861,-5.2861,-5.2861,-5.2861,-5.2861,-5.2861,-5.2861,-5.2861,-5.2861,-5.2861,-5.2861,-5.2861,-5.2861,-5.2861,-5.2861,-5.2861,-5.2861,-5.2861,-5.2861,-5.2861,-5.2861,-5.2861,-5.2861,-5.2861,-5.2861,-5.2861,-5.2861,-5.2861,-5.2861,-5.2861,-5.2861,-5.2861,-5.2861,-5.2861,-5.2861]}]]